[[[{"header":{"parameterUnit":"kt","parameterCategory":2,"dx":1,"dy":1,"la1":29.587661999999998,"la2":31.0,"lo1":-88.76705300000003,"lo2":-86.6583820000003,"nx":115,"ny":88,"refTime":"2022-10-07T12:00:00:Z","depth":0,"parameterNumber":1,"parameterNumberName":"U-component_of_WINDS"},"data":[-8.5233,-8.5371,-8.5144,-8.5119,-8.5062,-8.4864,-8.478,-8.478,-8.478,-8.478,-8.478,-8.478,-8.478,-8.478,-8.478,-8.478,-8.478,-8.478,-8.478,-8.478,-8.478,-8.478,-8.4877,-8.507,-8.5579,-8.6062,-8.6609,-8.735,-8.8412,-8.8666,-8.8734,-8.9281,-8.9217,-8.9185,-8.9153,-8.9249,-8.9507,-8.9571,-8.9475,-8.912,-8.7807,-8.5108,-8.2183,-8.0102,-7.8007,-7.7065,-7.6564,-7.6564,-7.6564,-7.6564,-7.671,-7.6768,-7.6971,-7.7117,-7.7507,-7.7959,-7.799,-7.8424,-7.93,-7.9885,-8.0426,-8.0705,-8.1569,-8.1924,-8.182,-8.182,-8.182,-8.182,-8.182,-8.182,-8.182,-8.182,-8.182,-8.182,-8.199,-8.3344,-8.4755,-8.5573,-8.6645,-8.8112,-8.9184,-8.9184,-8.9184,-8.9184,-8.9184,-8.9184,-8.9184,-8.9184,-8.9184,-8.9184,-8.9184,-8.9184,-8.9184,-8.9184,-8.9184,-8.9184,-8.9184,-8.9184,-8.9184,-8.9184,-8.9184,-8.9184,-8.9184,-8.9184,-8.9184,-8.9184,-8.9184,-8.9184,-8.9184,-8.9184,-8.9184,-8.9184,-8.9184,-8.9009,-8.8247,-8.6764,-8.7474,-8.6635,-8.6286,-8.6121,-8.5233,-8.4838,-8.478,-8.478,-8.478,-8.478,-8.478,-8.478,-8.478,-8.478,-8.478,-8.478,-8.478,-8.478,-8.478,-8.478,-8.478,-8.478,-8.478,-8.4973,-8.5166,-8.5263,-8.6191,-8.7124,-8.7221,-8.7704,-8.8798,-8.9024,-8.8959,-8.9024,-8.8959,-8.8605,-8.8444,-8.8251,-8.8026,-8.6002,-8.3196,-8.1596,-7.99,-7.8211,-7.6746,-7.6564,-7.6564,-7.6564,-7.6564,-7.6564,-7.6564,-7.6564,-7.6594,-7.6884,-7.6913,-7.7046,-7.7512,-7.8222,-7.9168,-7.9913,-8.0596,-8.1749,-8.2108,-8.1873,-8.182,-8.182,-8.182,-8.182,-8.182,-8.182,-8.182,-8.182,-8.1849,-8.2159,-8.278,-8.4162,-8.5432,-8.7068,-8.8818,-8.9184,-8.9184,-8.9184,-8.9184,-8.9184,-8.9184,-8.9184,-8.9184,-8.9184,-8.9184,-8.9184,-8.9184,-8.9184,-8.9184,-8.9184,-8.9184,-8.9184,-8.9184,-8.9184,-8.9184,-8.9184,-8.9184,-8.9184,-8.9184,-8.9184,-8.9184,-8.9184,-8.9184,-8.9184,-8.9184,-8.9184,-8.9184,-8.9184,-8.8893,-8.7953,-8.7631,-8.7959,-8.756,-8.7065,-8.6451,-8.5988,-8.5314,-8.4864,-8.478,-8.478,-8.478,-8.478,-8.478,-8.478,-8.478,-8.478,-8.478,-8.478,-8.478,-8.478,-8.478,-8.478,-8.478,-8.478,-8.478,-8.478,-8.478,-8.4909,-8.5579,-8.5836,-8.5933,-8.6384,-8.6545,-8.6512,-8.6577,-8.6609,-8.6545,-8.6738,-8.6545,-8.6255,-8.5382,-8.2819,-8.0875,-7.9909,-7.8414,-7.6955,-7.6564,-7.6564,-7.6564,-7.6564,-7.6564,-7.6564,-7.6564,-7.6564,-7.6564,-7.6564,-7.6623,-7.6755,-7.7368,-7.8193,-7.9139,-7.9971,-8.1028,-8.2005,-8.183,-8.1901,-8.182,-8.182,-8.182,-8.182,-8.182,-8.182,-8.182,-8.182,-8.2046,-8.2215,-8.3118,-8.4896,-8.6927,-8.8535,-8.9184,-8.9184,-8.9184,-8.9184,-8.9184,-8.9184,-8.9184,-8.9184,-8.9184,-8.9184,-8.9184,-8.9184,-8.9184,-8.9184,-8.9184,-8.9184,-8.9184,-8.9184,-8.9184,-8.9184,-8.9184,-8.9184,-8.9184,-8.9184,-8.9184,-8.9184,-8.9184,-8.9184,-8.9184,-8.9184,-8.9184,-8.9184,-8.9184,-8.9097,-8.7121,-8.8617,-8.8816,-8.885,-8.8248,-8.7297,-8.6776,-8.5988,-8.5233,-8.5428,-8.5452,-8.5201,-8.5176,-8.5062,-8.4806,-8.478,-8.478,-8.478,-8.478,-8.478,-8.478,-8.478,-8.478,-8.478,-8.478,-8.478,-8.478,-8.478,-8.4813,-8.4973,-8.4909,-8.4845,-8.4877,-8.5038,-8.5199,-8.5199,-8.5166,-8.5199,-8.5327,-8.5263,-8.5134,-8.4559,-8.2505,-8.0621,-7.9844,-7.8308,-7.6775,-7.6564,-7.6564,-7.6564,-7.6564,-7.6564,-7.6564,-7.6564,-7.6564,-7.6564,-7.6564,-7.6564,-7.6623,-7.7046,-7.7802,-7.8858,-7.9715,-8.0544,-8.133,-8.1841,-8.1863,-8.182,-8.182,-8.182,-8.182,-8.182,-8.182,-8.182,-8.182,-8.1849,-8.1849,-8.1905,-8.419,-8.656,-8.7858,-8.8959,-8.9184,-8.9184,-8.9184,-8.9184,-8.9272,-8.9272,-8.9272,-8.9272,-8.9359,-8.9359,-8.9272,-8.9272,-8.9184,-8.9184,-8.9184,-8.9184,-8.9184,-8.9184,-8.9184,-8.9184,-8.9184,-8.9184,-8.9184,-8.9184,-8.9184,-8.9184,-8.9184,-8.9184,-8.9184,-8.9184,-8.9184,-8.9184,-8.834,-8.6018,-9.0204,-9.1019,-9.1063,-9.0344,-8.931,-8.7436,-8.6614,-8.6505,-8.7264,-8.7211,-8.6418,-8.6396,-8.5788,-8.5119,-8.5036,-8.4979,-8.478,-8.478,-8.478,-8.478,-8.478,-8.478,-8.478,-8.478,-8.478,-8.478,-8.478,-8.478,-8.478,-8.478,-8.478,-8.478,-8.478,-8.478,-8.478,-8.478,-8.478,-8.478,-8.478,-8.4722,-8.3982,-8.2442,-8.059,-8.0234,-7.8376,-7.6564,-7.6564,-7.6564,-7.6564,-7.6564,-7.6564,-7.6564,-7.6564,-7.6564,-7.6564,-7.6564,-7.6564,-7.6564,-7.6884,-7.7452,-7.8614,-7.9737,-8.0581,-8.1228,-8.1771,-8.1966,-8.1844,-8.182,-8.182,-8.182,-8.182,-8.182,-8.182,-8.182,-8.182,-8.182,-8.2357,-8.4049,-8.6137,-8.7463,-8.8479,-8.9184,-8.9184,-8.9184,-8.9184,-8.9359,-8.9447,-8.9359,-8.9418,-8.9506,-8.9418,-8.9272,-8.9272,-8.9184,-8.9184,-8.9184,-8.9184,-8.9184,-8.9184,-8.9184,-8.9184,-8.9184,-8.9184,-8.9184,-8.9184,-8.9184,-8.9184,-8.9184,-8.9184,-8.9184,-8.9184,-8.9184,-8.834,-8.7107,-8.5045,-9.1008,-9.1356,-9.1356,-9.1143,-9.0517,-8.9164,-8.8484,-8.8467,-8.8146,-8.7856,-8.7508,-8.7422,-8.6818,-8.59,-8.5765,-8.5484,-8.4921,-8.5004,-8.4979,-8.4979,-8.478,-8.4864,-8.4806,-8.478,-8.4806,-8.478,-8.478,-8.478,-8.478,-8.478,-8.478,-8.478,-8.478,-8.478,-8.478,-8.478,-8.478,-8.478,-8.478,-8.478,-8.3745,-8.2196,-8.1101,-8.0169,-7.7969,-7.6885,-7.6564,-7.6564,-7.6564,-7.6564,-7.6564,-7.6564,-7.6564,-7.6564,-7.6564,-7.6564,-7.6564,-7.6564,-7.6652,-7.7245,-7.8453,-7.9554,-8.0014,-8.0668,-8.1187,-8.2034,-8.2028,-8.1981,-8.1901,-8.182,-8.182,-8.182,-8.182,-8.182,-8.182,-8.182,-8.2949,-8.4219,-8.5601,-8.6984,-8.8056,-8.8874,-8.9272,-8.9184,-8.9359,-8.9853,-8.9998,-9.0084,-9.0228,-9.0084,-8.9766,-8.9359,-8.9272,-8.9184,-8.9184,-8.9184,-8.9184,-8.9184,-8.9184,-8.9184,-8.9184,-8.9184,-8.9184,-8.9184,-8.9184,-8.9184,-8.9184,-8.9184,-8.9184,-8.9184,-8.9184,-8.8809,-8.7819,-8.595,-8.3324,-9.1356,-9.1356,-9.1356,-9.1356,-9.1232,-9.0563,-9.0251,-9.0157,-8.9422,-8.88,-8.8584,-8.8517,-8.7941,-8.7012,-8.6958,-8.6439,-8.6001,-8.57,-8.5676,-8.5756,-8.6033,-8.562,-8.5371,-8.5347,-8.5004,-8.4921,-8.478,-8.478,-8.478,-8.478,-8.478,-8.478,-8.478,-8.478,-8.478,-8.478,-8.478,-8.478,-8.478,-8.478,-8.4073,-8.2626,-8.1479,-8.0333,-7.8414,-7.7204,-7.6746,-7.6564,-7.6564,-7.6564,-7.6564,-7.6564,-7.6564,-7.6564,-7.6564,-7.6564,-7.6564,-7.6564,-7.6564,-7.6564,-7.7465,-7.9063,-7.9605,-7.9979,-8.1002,-8.1943,-8.2375,-8.2324,-8.2193,-8.1953,-8.1873,-8.1981,-8.2061,-8.1901,-8.182,-8.1933,-8.2385,-8.3739,-8.5234,-8.6673,-8.8253,-8.9046,-8.9418,-8.9506,-9.0142,-9.0629,-9.1055,-9.1281,-9.1281,-9.0543,-9.0084,-8.9447,-8.9184,-8.9184,-8.9184,-8.9184,-8.9184,-8.9184,-8.9184,-8.9184,-8.9184,-8.9184,-8.9184,-8.9184,-8.9184,-8.9184,-8.9184,-8.9184,-8.9184,-8.9184,-8.8959,-8.8232,-8.6986,-8.372,-8.0848,-9.1356,-9.1356,-9.1356,-9.1356,-9.1356,-9.1267,-9.1232,-9.1232,-9.1188,-9.0609,-8.9778,-8.9696,-8.9081,-8.8163,-8.8044,-8.7838,-8.7631,-8.7527,-8.7527,-8.7545,-8.7105,-8.6925,-8.6581,-8.6396,-8.5877,-8.5233,-8.4921,-8.5094,-8.478,-8.478,-8.478,-8.478,-8.478,-8.478,-8.478,-8.478,-8.478,-8.478,-8.478,-8.478,-8.4308,-8.3082,-8.1667,-8.0398,-7.895,-7.7588,-7.6955,-7.6564,-7.6564,-7.6564,-7.6564,-7.6564,-7.6564,-7.6564,-7.6564,-7.6564,-7.6564,-7.6564,-7.6564,-7.6564,-7.7536,-7.8337,-7.922,-8.0343,-8.1375,-8.2218,-8.2543,-8.2613,-8.2562,-8.2244,-8.2033,-8.2113,-8.2193,-8.1981,-8.182,-8.199,-8.2272,-8.3513,-8.5037,-8.6589,-8.8259,-8.9018,-8.939,-9.0228,-9.0941,-9.1421,-9.1897,-9.198,-9.097,-9.04,-9.0486,-8.9766,-8.9184,-8.9184,-8.9184,-8.9184,-8.9184,-8.9184,-8.9184,-8.9184,-8.9184,-8.9184,-8.9184,-8.9184,-8.9184,-8.9184,-8.9184,-8.9184,-8.9156,-8.8846,-8.8535,-8.7731,-8.5992,-8.2487,-7.9365,-9.1356,-9.1356,-9.1356,-9.1356,-9.1356,-9.1356,-9.1356,-9.1356,-9.1356,-9.1188,-9.0838,-9.0747,-9.0157,-8.9456,-8.913,-8.8982,-8.7959,-8.7474,-8.7191,-8.7908,-8.7474,-8.7317,-8.7422,-8.7422,-8.6851,-8.6209,-8.5821,-8.5371,-8.4921,-8.4806,-8.478,-8.478,-8.478,-8.478,-8.478,-8.478,-8.478,-8.478,-8.478,-8.478,-8.4159,-8.2869,-8.129,-8.0268,-7.8816,-7.7204,-7.6775,-7.6564,-7.6564,-7.6564,-7.6564,-7.6564,-7.6564,-7.6564,-7.6564,-7.6564,-7.6564,-7.6564,-7.6564,-7.6564,-7.6768,-7.7536,-7.9296,-8.0207,-8.0661,-8.2403,-8.287,-8.2979,-8.29,-8.2692,-8.2352,-8.2244,-8.2193,-8.2009,-8.1849,-8.182,-8.2357,-8.416,-8.5741,-8.7174,-8.8598,-8.8912,-8.9359,-9.0458,-9.1645,-9.2201,-9.2782,-9.1506,-9.04,-9.08,-9.097,-8.9911,-8.9184,-8.9184,-8.9184,-8.9184,-8.9184,-8.9184,-8.9184,-8.9184,-8.9184,-8.9184,-8.9184,-8.9184,-8.9184,-8.9184,-8.9184,-8.91,-8.8959,-8.8705,-8.7915,-8.6299,-8.4653,-8.1927,-7.8937,-9.1356,-9.1356,-9.1356,-9.1356,-9.1356,-9.1356,-9.1356,-9.1356,-9.1356,-9.1143,-9.0963,-9.1277,-9.0655,-8.9744,-8.9359,-8.9359,-8.8651,-8.7768,-8.7768,-8.8651,-8.8651,-8.8146,-8.7735,-8.789,-8.7872,-8.6851,-8.6451,-8.5955,-8.5257,-8.4864,-8.4806,-8.478,-8.478,-8.478,-8.478,-8.478,-8.478,-8.478,-8.478,-8.469,-8.4484,-8.2687,-8.1196,-8.056,-7.8683,-7.7273,-7.6606,-7.6564,-7.6564,-7.6564,-7.6564,-7.6564,-7.6564,-7.6564,-7.6564,-7.6564,-7.6564,-7.6564,-7.6564,-7.6564,-7.6564,-7.742,-7.8816,-8.0239,-8.0468,-8.242,-8.323,-8.3371,-8.3371,-8.3136,-8.28,-8.2642,-8.2403,-8.2141,-8.1901,-8.1901,-8.2579,-8.433,-8.6075,-8.7532,-8.9354,-8.9942,-8.9825,-9.0458,-9.198,-9.2835,-9.3409,-9.248,-9.0941,-9.1281,-9.097,-8.9825,-8.9272,-8.9272,-8.9184,-8.9184,-8.9184,-8.9184,-8.9184,-8.9184,-8.9184,-8.9184,-8.9184,-8.9184,-8.9184,-8.9184,-8.9184,-8.9128,-8.8902,-8.7802,-8.6194,-8.459,-8.2306,-7.9752,-7.752,-9.1356,-9.1356,-9.1356,-9.1356,-9.1356,-9.1356,-9.1356,-9.1356,-9.1356,-9.0918,-9.0378,-9.0928,-9.0263,-8.9031,-8.9504,-8.9538,-8.9261,-8.9081,-8.913,-8.9179,-8.9179,-8.8734,-8.8332,-8.8281,-8.8534,-8.7012,-8.6689,-8.6689,-8.6286,-8.529,-8.4806,-8.478,-8.478,-8.478,-8.478,-8.478,-8.478,-8.478,-8.478,-8.4632,-8.4159,-8.2961,-8.1416,-8.0333,-7.8683,-7.7382,-7.6816,-7.6564,-7.6564,-7.6564,-7.6564,-7.6564,-7.6564,-7.6564,-7.6564,-7.6564,-7.6564,-7.6564,-7.6564,-7.6564,-7.6564,-7.6884,-7.8961,-8.0328,-8.0939,-8.2492,-8.3916,-8.3654,-8.381,-8.3683,-8.3293,-8.3008,-8.2692,-8.2483,-8.2193,-8.2203,-8.2882,-8.4183,-8.5864,-8.7488,-8.9578,-9.1252,-9.0714,-9.0856,-9.2534,-9.3572,-9.4109,-9.3409,-9.1897,-9.1337,-9.0486,-8.968,-8.9272,-8.9272,-8.9184,-8.9184,-8.9184,-8.9184,-8.9184,-8.9184,-8.9184,-8.9184,-8.9184,-8.9184,-8.8987,-8.8535,-8.8789,-8.8959,-8.7548,-8.6109,-8.4529,-8.2994,-7.9775,-7.7212,-7.5591,-9.1356,-9.1356,-9.1356,-9.1356,-9.1356,-9.1356,-9.1356,-9.1356,-9.1356,-9.1178,-9.0963,-9.1143,-9.0529,-8.9696,-8.9683,-8.9456,-8.8651,-8.8128,-8.8146,-8.8298,-8.845,-8.7838,-8.8146,-8.8651,-8.9031,-8.7993,-8.7527,-8.7118,-8.6614,-8.5314,-8.4889,-8.4806,-8.478,-8.478,-8.478,-8.478,-8.478,-8.478,-8.469,-8.4425,-8.3355,-8.2134,-8.0719,-7.9582,-7.8105,-7.7065,-7.6746,-7.6564,-7.6564,-7.6564,-7.6564,-7.6564,-7.6564,-7.6564,-7.6564,-7.6564,-7.6564,-7.6564,-7.6564,-7.6564,-7.6564,-7.6884,-7.899,-8.0154,-8.1026,-8.2608,-8.4061,-8.3965,-8.4042,-8.3965,-8.3577,-8.3343,-8.3136,-8.2771,-8.2483,-8.2489,-8.3148,-8.4426,-8.6074,-8.745,-8.96,-9.1535,-9.145,-9.2397,-9.3815,-9.475,-9.5304,-9.4988,-9.346,-9.2285,-9.1167,-9.04,-8.9853,-8.9506,-8.9272,-8.9184,-8.9184,-8.9184,-8.9184,-8.9184,-8.9184,-8.9184,-8.9184,-8.8761,-8.831,-8.7943,-8.7463,-8.6871,-8.5714,-8.4444,-8.3687,-8.2737,-7.9711,-7.7404,-7.5108,-9.1356,-9.1356,-9.1356,-9.1356,-9.1356,-9.1356,-9.1356,-9.1356,-9.1356,-9.1356,-9.1356,-9.1277,-9.0563,-8.96,-8.9407,-8.9179,-8.8061,-8.7317,-8.7264,-8.7297,-8.7191,-8.6979,-8.7369,-8.8197,-8.9227,-8.8315,-8.85,-8.818,-8.7065,-8.6089,-8.5395,-8.4832,-8.478,-8.478,-8.478,-8.478,-8.478,-8.478,-8.469,-8.4484,-8.3235,-8.1854,-8.0268,-7.9318,-7.7764,-7.6705,-7.6564,-7.6564,-7.6564,-7.6564,-7.6564,-7.6564,-7.6564,-7.6564,-7.6564,-7.6564,-7.6564,-7.6564,-7.6564,-7.6564,-7.6564,-7.7158,-7.8845,-8.0518,-8.0664,-8.2771,-8.3887,-8.4177,-8.4177,-8.4148,-8.3839,-8.3654,-8.3499,-8.3136,-8.2929,-8.285,-8.3628,-8.5257,-8.6725,-8.7839,-8.9649,-9.2084,-9.314,-9.4088,-9.5177,-9.6087,-9.6582,-9.6659,-9.5432,-9.424,-9.2835,-9.1897,-9.1111,-9.0629,-8.9651,-8.9331,-8.9184,-8.9184,-8.9184,-8.9184,-8.9184,-8.91,-8.8366,-8.7999,-8.7548,-8.6955,-8.6137,-8.5037,-8.4106,-8.3316,-8.2535,-8.1956,-8.0194,-7.7972,-7.5179,-9.1356,-9.1356,-9.1356,-9.1365,-9.14,-9.14,-9.14,-9.1444,-9.14,-9.14,-9.1444,-9.1277,-9.0216,-8.9031,-8.931,-8.913,-8.8061,-8.8061,-8.7422,-8.7191,-8.7317,-8.6839,-8.6946,-8.8044,-8.931,-8.8617,-8.8701,-8.8651,-8.7908,-8.6656,-8.5732,-8.4921,-8.478,-8.478,-8.478,-8.478,-8.478,-8.478,-8.478,-8.4632,-8.3594,-8.2134,-8.0526,-7.9814,-7.8037,-7.6564,-7.6564,-7.6564,-7.6564,-7.6564,-7.6564,-7.6564,-7.6564,-7.6564,-7.6564,-7.6564,-7.6564,-7.6564,-7.6564,-7.6564,-7.6564,-7.7304,-7.8467,-7.9878,-8.0576,-8.28,-8.3945,-8.4177,-8.4177,-8.4177,-8.4071,-8.3916,-8.3654,-8.3449,-8.3293,-8.3215,-8.3854,-8.5738,-8.7735,-8.8309,-9.0421,-9.347,-9.5048,-9.6613,-9.7863,-9.8418,-9.8894,-9.8863,-9.7575,-9.6367,-9.4878,-9.3409,-9.2563,-9.1194,-9.0171,-8.9337,-8.8848,-8.8733,-8.8564,-8.8648,-8.862,-8.7999,-8.7267,-8.6758,-8.625,-8.577,-8.515,-8.3965,-8.2921,-8.2131,-8.1607,-8.137,-8.0084,-7.7949,-7.5092,-9.1356,-9.1356,-9.1356,-9.1488,-9.162,-9.162,-9.1655,-9.1655,-9.162,-9.162,-9.1611,-9.14,-9.0655,-8.9731,-8.96,-8.9276,-8.8112,-8.8061,-8.7369,-8.7138,-8.7297,-8.7125,-8.7211,-8.8248,-8.96,-8.9373,-8.9081,-8.85,-8.7838,-8.6979,-8.59,-8.4806,-8.478,-8.478,-8.478,-8.478,-8.478,-8.478,-8.478,-8.4308,-8.3323,-8.1605,-8.0302,-7.9053,-7.7725,-7.6564,-7.6564,-7.6564,-7.6564,-7.6564,-7.6564,-7.6564,-7.6564,-7.6564,-7.6564,-7.6564,-7.6564,-7.6564,-7.6564,-7.6564,-7.6564,-7.6739,-7.7536,-7.8729,-8.0241,-8.2713,-8.4177,-8.4177,-8.4177,-8.4177,-8.4177,-8.41,-8.3994,-8.3887,-8.3887,-8.3654,-8.4166,-8.7525,-8.9831,-9.072,-9.2579,-9.5337,-9.7485,-9.9146,-10.0011,-10.0577,-10.0791,-10.0791,-9.9875,-9.8726,-9.7043,-9.5207,-9.3837,-9.1855,-9.0852,-8.9771,-8.8684,-8.8112,-8.7774,-8.752,-8.6927,-8.6335,-8.5968,-8.5404,-8.4811,-8.4388,-8.4078,-8.2921,-8.182,-8.1631,-8.1361,-8.1009,-7.9864,-7.778,-7.5266,-9.035,-9.0385,-9.1211,-9.162,-9.1742,-9.1742,-9.1742,-9.1742,-9.162,-9.1576,-9.1532,-9.14,-9.1053,-9.0609,-9.0437,-8.9805,-8.8998,-8.8883,-8.8197,-8.7631,-8.7683,-8.7701,-8.7716,-8.8883,-8.9778,-8.9552,-8.913,-8.8601,-8.7786,-8.6979,-8.5932,-8.4921,-8.478,-8.478,-8.478,-8.478,-8.478,-8.478,-8.469,-8.4367,-8.3323,-8.1792,-8.0333,-7.9582,-7.7627,-7.6746,-7.6564,-7.6564,-7.6564,-7.6564,-7.6564,-7.6564,-7.6564,-7.6564,-7.6564,-7.6564,-7.6564,-7.6564,-7.6564,-7.6564,-7.6564,-7.6594,-7.6768,-7.7798,-8.0241,-8.2655,-8.4177,-8.4177,-8.4177,-8.4177,-8.4177,-8.4177,-8.435,-8.478,-8.5206,-8.5433,-8.6807,-8.9818,-9.1781,-9.3282,-9.4789,-9.7397,-9.9803,-10.0688,-10.0971,-10.1317,-10.1387,-10.1387,-10.0869,-10.0076,-9.8644,-9.6843,-9.4566,-9.2151,-9.0885,-8.9397,-8.7892,-8.6814,-8.6476,-8.6194,-8.546,-8.4952,-8.4755,-8.4303,-8.3683,-8.3203,-8.2836,-8.2272,-8.1877,-8.1551,-8.12,-8.0356,-7.9451,-7.7303,-7.468,-8.872,-8.9171,-9.0742,-9.1568,-9.1751,-9.1786,-9.1786,-9.1751,-9.1532,-9.1365,-9.1488,-9.14,-9.14,-9.1277,-9.1277,-9.0792,-9.0204,-8.9921,-8.9325,-8.8467,-8.8617,-8.8701,-8.85,-8.9456,-9.011,-9.011,-8.9839,-8.9179,-8.8349,-8.7172,-8.5988,-8.5233,-8.4979,-8.478,-8.478,-8.478,-8.478,-8.478,-8.478,-8.478,-8.425,-8.2257,-8.1101,-8.004,-7.8443,-7.6885,-7.6635,-7.6564,-7.6564,-7.6564,-7.6564,-7.6564,-7.6564,-7.6564,-7.6564,-7.6564,-7.6564,-7.6564,-7.6564,-7.6564,-7.6564,-7.6564,-7.6564,-7.8031,-8.0008,-8.2335,-8.3509,-8.3945,-8.4177,-8.4177,-8.4177,-8.4379,-8.519,-8.5838,-8.6477,-8.7471,-8.8464,-9.0493,-9.2455,-9.4046,-9.6359,-9.9092,-10.1183,-10.1565,-10.1843,-10.1875,-10.1875,-10.1806,-10.1538,-10.0912,-9.9742,-9.7136,-9.4776,-9.1771,-8.9956,-8.7991,-8.6585,-8.5375,-8.5206,-8.5093,-8.4332,-8.3711,-8.3513,-8.3288,-8.2639,-8.2103,-8.2187,-8.2159,-8.1933,-8.1361,-8.0437,-7.9616,-7.8816,-7.6364,-7.3849,-8.6805,-8.9032,-8.9422,-9.0481,-9.1784,-9.1794,-9.1837,-9.1854,-9.1751,-9.162,-9.1655,-9.1488,-9.1488,-9.1576,-9.1444,-9.1311,-9.1098,-9.1008,-9.039,-8.971,-9.0076,-9.0123,-8.9934,-9.0437,-9.0928,-9.0747,-9.0297,-8.9683,-8.9016,-8.7508,-8.656,-8.5877,-8.5062,-8.478,-8.478,-8.478,-8.478,-8.478,-8.478,-8.478,-8.4425,-8.3203,-8.1886,-8.059,-7.912,-7.7696,-7.6856,-7.6676,-7.6564,-7.6564,-7.6564,-7.6564,-7.6564,-7.6564,-7.6564,-7.6564,-7.6564,-7.6564,-7.6564,-7.6564,-7.6564,-7.6564,-7.6564,-7.806,-7.9921,-8.1201,-8.2219,-8.3712,-8.4177,-8.4177,-8.4302,-8.5236,-8.6032,-8.6742,-8.7615,-8.8708,-8.9742,-9.1371,-9.3396,-9.5408,-9.7878,-9.9811,-10.1238,-10.1811,-10.1392,-10.136,-10.0872,-10.0969,-10.0679,-10.0389,-9.9321,-9.6939,-9.4611,-9.1498,-8.8874,-8.708,-8.5244,-8.4268,-8.4101,-8.3934,-8.3285,-8.2639,-8.2469,-8.2413,-8.182,-8.1849,-8.182,-8.182,-8.182,-8.128,-7.9891,-7.8649,-7.7303,-7.5179,-7.3047,-8.5501,-8.7077,-8.8571,-8.9947,-9.0976,-9.1454,-9.1802,-9.1897,-9.1673,-9.1655,-9.1699,-9.162,-9.1664,-9.1759,-9.1716,-9.1585,-9.1542,-9.1532,-9.1188,-9.0747,-9.1053,-9.1008,-9.0781,-9.1019,-9.1321,-9.1188,-9.0838,-9.0344,-8.9683,-8.8044,-8.7032,-8.6451,-8.5347,-8.4748,-8.478,-8.478,-8.478,-8.478,-8.478,-8.478,-8.4632,-8.4191,-8.3022,-8.1542,-7.9879,-7.8481,-7.7588,-7.7134,-7.6564,-7.6564,-7.6564,-7.6564,-7.6564,-7.6564,-7.6564,-7.6564,-7.6564,-7.6564,-7.6564,-7.6564,-7.6564,-7.6564,-7.6564,-7.7885,-7.963,-8.0751,-8.1724,-8.3393,-8.4177,-8.4177,-8.4302,-8.481,-8.6106,-8.7253,-8.8261,-8.9457,-9.1034,-9.3018,-9.4719,-9.6454,-9.7793,-9.9059,-10.0776,-10.113,-10.084,-10.0486,-10.0035,-9.9745,-9.9488,-9.8866,-9.8145,-9.6273,-9.4843,-9.1628,-8.8571,-8.6111,-8.3891,-8.3318,-8.3072,-8.2825,-8.2377,-8.2187,-8.199,-8.182,-8.182,-8.182,-8.182,-8.182,-8.182,-8.1631,-7.9479,-7.7473,-7.596,-7.4328,-7.2419,-8.4443,-8.5063,-8.7606,-8.9075,-8.9742,-9.0919,-9.1435,-9.159,-9.1498,-9.1585,-9.1751,-9.1794,-9.1846,-9.1897,-9.1939,-9.1889,-9.1794,-9.1751,-9.1629,-9.1454,-9.1454,-9.1498,-9.1365,-9.1454,-9.1454,-9.141,-9.1331,-9.0984,-9.017,-8.8948,-8.7959,-8.6851,-8.5765,-8.4889,-8.4864,-8.478,-8.478,-8.478,-8.478,-8.478,-8.478,-8.4574,-8.3923,-8.2535,-8.0462,-7.912,-7.8511,-7.7411,-7.6564,-7.6564,-7.6564,-7.6564,-7.6564,-7.6564,-7.6564,-7.6564,-7.6564,-7.6564,-7.6564,-7.6564,-7.6564,-7.6564,-7.6564,-7.7856,-7.9659,-8.0664,-8.1724,-8.3353,-8.4379,-8.481,-8.4886,-8.6002,-8.6931,-8.8372,-8.9734,-9.0721,-9.2597,-9.4079,-9.5138,-9.6291,-9.7002,-9.7942,-9.9037,-9.9713,-9.9488,-9.9166,-9.8876,-9.8683,-9.8393,-9.7674,-9.6661,-9.5558,-9.4428,-9.1239,-8.8193,-8.535,-8.3294,-8.3035,-8.2556,-8.2363,-8.2094,-8.1849,-8.182,-8.182,-8.182,-8.182,-8.182,-8.182,-8.174,-8.147,-7.9008,-7.6364,-7.4978,-7.3709,-7.1811,-8.3866,-8.5123,-8.5617,-8.668,-8.81,-8.9472,-9.0136,-9.0477,-9.1388,-9.1679,-9.1897,-9.1931,-9.1939,-9.1947,-9.1947,-9.1982,-9.1939,-9.1939,-9.1854,-9.1811,-9.1811,-9.1768,-9.1768,-9.1759,-9.1759,-9.1854,-9.1811,-9.1768,-9.1217,-9.038,-8.9028,-8.8061,-8.6872,-8.5788,-8.4947,-8.4748,-8.478,-8.478,-8.478,-8.478,-8.478,-8.478,-8.4191,-8.2901,-8.1101,-7.9814,-7.8816,-7.7519,-7.6564,-7.6564,-7.6564,-7.6564,-7.6564,-7.6564,-7.6564,-7.6564,-7.6564,-7.6564,-7.6564,-7.6564,-7.6564,-7.6564,-7.6564,-7.7885,-7.9717,-8.0693,-8.1782,-8.3587,-8.5084,-8.6181,-8.7945,-8.8372,-8.9533,-9.0523,-9.1819,-9.2665,-9.3274,-9.3435,-9.4497,-9.5592,-9.6268,-9.6944,-9.7846,-9.8329,-9.8103,-9.791,-9.7781,-9.762,-9.7264,-9.6681,-9.515,-9.3896,-9.2232,-8.9453,-8.7463,-8.505,-8.3721,-8.3201,-8.2489,-8.2249,-8.1929,-8.182,-8.182,-8.182,-8.182,-8.182,-8.182,-8.182,-8.1551,-8.1228,-7.9451,-7.6878,-7.4803,-7.2997,-7.1902,-8.3319,-8.4169,-8.4822,-8.5713,-8.675,-8.7985,-8.8645,-8.9011,-9.0213,-9.0836,-9.1024,-9.1871,-9.2236,-9.2354,-9.2354,-9.2354,-9.2354,-9.2194,-9.2067,-9.1982,-9.1982,-9.1982,-9.1939,-9.2017,-9.2059,-9.2144,-9.2067,-9.1947,-9.1646,-9.079,-8.9939,-8.9368,-8.7512,-8.6385,-8.5834,-8.5144,-8.4806,-8.4748,-8.478,-8.478,-8.478,-8.4748,-8.4308,-8.3686,-8.1792,-8.0462,-7.9582,-7.7794,-7.6746,-7.6564,-7.6564,-7.6564,-7.6564,-7.6564,-7.6564,-7.6564,-7.6564,-7.6564,-7.6564,-7.6564,-7.6564,-7.6564,-7.6564,-7.8089,-7.9688,-8.0518,-8.1695,-8.3622,-8.4933,-8.5957,-8.7441,-8.9007,-9.0183,-9.0793,-9.1656,-9.2374,-9.3083,-9.3306,-9.3853,-9.5012,-9.5399,-9.6139,-9.659,-9.6751,-9.6654,-9.6397,-9.63,-9.5592,-9.5367,-9.5236,-9.3714,-9.2366,-9.0426,-8.8656,-8.6931,-8.5433,-8.4042,-8.3293,-8.2642,-8.2273,-8.1981,-8.1901,-8.182,-8.182,-8.182,-8.182,-8.182,-8.182,-8.174,-8.0766,-7.9285,-7.733,-7.5153,-7.2818,-7.1381,-8.3054,-8.331,-8.4312,-8.4918,-8.5358,-8.6528,-8.7189,-8.7378,-8.8796,-8.9467,-8.9904,-9.1168,-9.1917,-9.2116,-9.2468,-9.272,-9.2638,-9.2514,-9.2312,-9.2109,-9.2109,-9.2109,-9.2151,-9.2312,-9.2396,-9.2396,-9.2194,-9.2109,-9.1982,-9.1359,-9.0665,-9.0206,-8.8399,-8.7006,-8.6503,-8.5508,-8.4864,-8.4748,-8.478,-8.478,-8.478,-8.4748,-8.469,-8.4484,-8.2748,-8.1416,-8.0398,-7.8007,-7.6606,-7.6564,-7.6564,-7.6564,-7.6564,-7.6564,-7.6564,-7.6564,-7.6564,-7.6564,-7.6564,-7.6564,-7.6564,-7.6564,-7.6652,-7.7594,-7.9805,-8.0183,-8.1699,-8.3709,-8.4891,-8.6299,-8.7842,-8.9007,-9.0486,-9.1457,-9.1819,-9.2147,-9.3019,-9.3306,-9.3725,-9.4562,-9.4916,-9.5367,-9.63,-9.5399,-9.5109,-9.4884,-9.4304,-9.3531,-9.3499,-9.366,-9.2693,-9.1668,-8.9978,-8.8686,-8.6961,-8.5462,-8.4321,-8.3499,-8.2771,-8.2352,-8.2113,-8.1953,-8.182,-8.182,-8.182,-8.182,-8.182,-8.182,-8.1361,-7.9946,-7.8648,-7.6648,-7.4654,-7.2484,-7.079,-8.3355,-8.3391,-8.3531,-8.3603,-8.3919,-8.5219,-8.5885,-8.6205,-8.7538,-8.8206,-8.8558,-8.9899,-9.0568,-9.0713,-9.1875,-9.2649,-9.2608,-9.2603,-9.2638,-9.2597,-9.2597,-9.2597,-9.2555,-9.2597,-9.2638,-9.2638,-9.2603,-9.2597,-9.2437,-9.2236,-9.1611,-9.0654,-8.932,-8.7994,-8.6986,-8.5821,-8.5183,-8.4896,-8.4806,-8.4806,-8.4748,-8.478,-8.478,-8.469,-8.3923,-8.293,-8.059,-7.8143,-7.6705,-7.6635,-7.6564,-7.6676,-7.6564,-7.6564,-7.6564,-7.6564,-7.6564,-7.6564,-7.6564,-7.6705,-7.6676,-7.6816,-7.6746,-7.7333,-7.9,-8.0445,-8.2055,-8.4572,-8.6949,-8.8392,-8.9978,-9.1621,-9.2374,-9.2665,-9.2955,-9.3019,-9.3306,-9.3306,-9.3338,-9.3499,-9.3564,-9.3531,-9.3692,-9.3628,-9.3596,-9.4014,-9.3757,-9.3306,-9.3306,-9.3306,-9.2536,-9.1293,-8.9978,-8.8616,-8.7065,-8.5538,-8.4628,-8.3626,-8.2929,-8.2642,-8.2403,-8.2193,-8.1953,-8.1901,-8.1981,-8.1981,-8.1901,-8.1361,-8.0819,-7.9726,-7.8438,-7.6396,-7.4178,-7.2207,-7.0985,-8.3428,-8.3428,-8.3428,-8.3428,-8.3499,-8.4097,-8.4414,-8.4659,-8.5996,-8.67,-8.7052,-8.8355,-8.9059,-8.92,-9.0678,-9.1347,-9.1483,-9.2333,-9.2685,-9.272,-9.2685,-9.2685,-9.272,-9.272,-9.272,-9.272,-9.272,-9.272,-9.2679,-9.2597,-9.2354,-9.1568,-9.002,-8.8831,-8.7943,-8.6527,-8.5411,-8.5126,-8.5036,-8.4954,-8.4748,-8.478,-8.478,-8.478,-8.469,-8.3443,-8.0783,-7.8105,-7.6995,-7.7657,-7.7794,-7.7382,-7.6746,-7.6564,-7.6564,-7.6564,-7.6564,-7.6635,-7.6705,-7.7411,-7.7794,-7.7901,-7.8586,-7.9543,-8.0683,-8.2171,-8.3564,-8.5605,-8.7538,-8.9371,-9.0725,-9.1523,-9.2309,-9.3115,-9.3306,-9.3306,-9.3306,-9.3306,-9.3306,-9.3306,-9.3306,-9.3306,-9.3338,-9.337,-9.3338,-9.3306,-9.3306,-9.3306,-9.3306,-9.3242,-9.2826,-9.1589,-9.0319,-8.8656,-8.7035,-8.6032,-8.5206,-8.3936,-8.3215,-8.3058,-8.29,-8.2692,-8.2403,-8.2273,-8.2193,-8.2141,-8.1981,-8.1631,-8.0324,-7.8763,-7.8192,-7.6538,-7.4423,-7.2415,-7.1623,-8.3428,-8.3428,-8.3428,-8.3428,-8.3428,-8.3428,-8.3428,-8.3569,-8.4659,-8.5081,-8.5433,-8.6736,-8.744,-8.7616,-8.9059,-8.9798,-9.015,-9.1347,-9.2081,-9.2121,-9.2121,-9.2081,-9.2121,-9.2473,-9.272,-9.272,-9.272,-9.272,-9.272,-9.2679,-9.2514,-9.2271,-9.0253,-8.916,-8.8617,-8.6743,-8.5774,-8.5501,-8.5387,-8.5216,-8.4954,-8.4806,-8.4748,-8.478,-8.478,-8.3535,-8.129,-7.9252,-7.8683,-7.9252,-7.9252,-7.8683,-7.7969,-7.7833,-7.7901,-7.7901,-7.7764,-7.7725,-7.7901,-7.8683,-7.9186,-7.9318,-7.9944,-8.1084,-8.2097,-8.3355,-8.4907,-8.6698,-8.8027,-8.9542,-9.1194,-9.1722,-9.2147,-9.3115,-9.3306,-9.3306,-9.3306,-9.3306,-9.3306,-9.3306,-9.3306,-9.3306,-9.3306,-9.3306,-9.3306,-9.3306,-9.3306,-9.3306,-9.3306,-9.3242,-9.2341,-9.1391,-9.0183,-8.8585,-8.718,-8.6373,-8.5433,-8.4013,-8.3548,-8.3421,-8.3264,-8.3,-8.2686,-8.2347,-8.2051,-8.1523,-8.1449,-8.1125,-7.8953,-7.685,-7.5772,-7.426,-7.277,-7.1818,-7.0795,-8.3428,-8.3428,-8.3428,-8.3428,-8.3428,-8.3428,-8.3428,-8.3428,-8.3639,-8.371,-8.3956,-8.5222,-8.5856,-8.6208,-8.7475,-8.8179,-8.846,-8.9833,-9.0502,-9.0361,-9.0502,-9.0502,-9.0643,-9.1664,-9.2227,-9.2509,-9.2649,-9.272,-9.272,-9.272,-9.2271,-9.1481,-9.0287,-8.9062,-8.801,-8.6689,-8.5909,-8.5662,-8.5501,-8.533,-8.5273,-8.4979,-8.4748,-8.478,-8.478,-8.4041,-8.2718,-8.2196,-8.1698,-8.0783,-8.0655,-8.0462,-8.0333,-8.0398,-8.0139,-8.0074,-8.0333,-8.0204,-8.0333,-8.0428,-8.056,-8.059,-8.0846,-8.0747,-8.1438,-8.2865,-8.4586,-8.6961,-8.8346,-9.0098,-9.2345,-9.2955,-9.3019,-9.3306,-9.3306,-9.3306,-9.3306,-9.3306,-9.3306,-9.3306,-9.3306,-9.3306,-9.3306,-9.3306,-9.3306,-9.3306,-9.3306,-9.3306,-9.3306,-9.2955,-9.1851,-9.0653,-8.9564,-8.8016,-8.6403,-8.5613,-8.4857,-8.3887,-8.381,-8.3732,-8.3654,-8.3092,-8.2693,-8.2091,-8.1637,-8.0941,-8.0364,-7.9654,-7.8145,-7.5626,-7.329,-7.121,-7.0098,-6.9437,-6.8729,-8.3428,-8.3428,-8.3428,-8.3428,-8.3428,-8.3428,-8.3428,-8.3428,-8.3428,-8.3428,-8.3499,-8.4062,-8.4236,-8.459,-8.5891,-8.6524,-8.6736,-8.8214,-8.839,-8.7651,-8.8355,-8.8918,-8.9059,-8.9587,-9.022,-9.1206,-9.2262,-9.272,-9.272,-9.2679,-9.2555,-9.1862,-9.0472,-8.9354,-8.8782,-8.7138,-8.6043,-8.5909,-8.5718,-8.5525,-8.533,-8.5216,-8.5011,-8.4806,-8.4748,-8.4132,-8.3022,-8.3594,-8.3805,-8.3263,-8.2442,-8.1542,-8.0719,-8.0719,-8.0655,-8.0655,-8.0655,-8.0719,-8.0783,-8.1573,-8.201,-8.2196,-8.2748,-8.3203,-8.3456,-8.4498,-8.6015,-8.8066,-8.9469,-9.1129,-9.2825,-9.3306,-9.3306,-9.3306,-9.3306,-9.3306,-9.3306,-9.3306,-9.3306,-9.3306,-9.3306,-9.3306,-9.3306,-9.3306,-9.3306,-9.3306,-9.3306,-9.3306,-9.3306,-9.3306,-9.2244,-9.0958,-8.9633,-8.7945,-8.6032,-8.4933,-8.4196,-8.4003,-8.3868,-8.3597,-8.3125,-8.2556,-8.1939,-8.1366,-8.0555,-7.9776,-7.8066,-7.7575,-7.6428,-7.4405,-7.1868,-6.9951,-6.836,-6.7603,-6.7204,-8.3428,-8.3428,-8.3428,-8.3428,-8.3428,-8.3428,-8.3428,-8.3428,-8.3428,-8.3428,-8.3428,-8.3428,-8.3428,-8.371,-8.4485,-8.5013,-8.5081,-8.5996,-8.6032,-8.5433,-8.6595,-8.7299,-8.744,-8.7862,-8.8601,-8.9728,-9.0819,-9.1276,-9.1276,-9.1699,-9.1741,-9.1472,-9.0469,-8.9798,-8.9013,-8.7545,-8.6209,-8.5707,-8.5224,-8.4695,-8.4171,-8.3882,-8.3681,-8.3518,-8.3847,-8.3438,-8.2233,-8.2964,-8.3429,-8.3276,-8.2558,-8.1857,-8.1539,-8.1667,-8.1917,-8.1917,-8.1917,-8.1917,-8.2041,-8.2869,-8.3415,-8.3594,-8.4191,-8.469,-8.4877,-8.5558,-8.6711,-8.8187,-8.9668,-9.1052,-9.2372,-9.3016,-9.3306,-9.3306,-9.3306,-9.3306,-9.3306,-9.3306,-9.3306,-9.3306,-9.3306,-9.3306,-9.3306,-9.3306,-9.3306,-9.3306,-9.3306,-9.3306,-9.3306,-9.3306,-9.2665,-9.1293,-9.0251,-8.8867,-8.7035,-8.5658,-8.4505,-8.3669,-8.3247,-8.2825,-8.2065,-8.1404,-8.0868,-8.02,-7.9304,-7.7999,-7.5995,-7.4484,-7.2995,-7.1263,-6.9958,-6.8559,-6.703,-6.6341,-6.6011,-8.3428,-8.3428,-8.3428,-8.3428,-8.3428,-8.3428,-8.3428,-8.3428,-8.3428,-8.3428,-8.3428,-8.3428,-8.3428,-8.3428,-8.3567,-8.3534,-8.3675,-8.3851,-8.3816,-8.3743,-8.5119,-8.5715,-8.5785,-8.6982,-8.7721,-8.8073,-8.8144,-8.8214,-8.8566,-8.9723,-8.9923,-8.9386,-9.0177,-8.9577,-8.8046,-8.7541,-8.6524,-8.4823,-8.3864,-8.2984,-8.1608,-8.1239,-8.103,-8.0975,-8.1908,-8.1885,-8.0575,-8.0662,-8.0887,-8.0759,-8.0703,-8.1241,-8.2277,-8.3309,-8.4381,-8.3982,-8.4446,-8.4568,-8.4446,-8.4419,-8.4484,-8.4574,-8.469,-8.478,-8.478,-8.4909,-8.5579,-8.6995,-8.8376,-8.97,-9.1181,-9.2372,-9.3081,-9.3274,-9.3274,-9.3306,-9.3306,-9.3306,-9.3306,-9.3306,-9.3306,-9.3306,-9.3306,-9.3306,-9.3306,-9.3306,-9.3306,-9.3306,-9.3306,-9.3306,-9.2665,-9.1523,-9.0757,-8.9564,-8.7945,-8.6284,-8.4621,-8.3136,-8.2376,-8.1823,-8.1112,-8.0032,-7.9473,-7.8763,-7.7798,-7.6032,-7.397,-7.2217,-7.0546,-6.8616,-6.7799,-6.6569,-6.5735,-6.511,-6.4807,-8.3428,-8.3428,-8.3428,-8.3428,-8.3428,-8.3428,-8.3428,-8.3428,-8.3428,-8.3428,-8.3428,-8.3428,-8.3428,-8.3428,-8.3428,-8.3428,-8.3428,-8.3428,-8.3428,-8.3463,-8.3921,-8.4131,-8.4201,-8.4696,-8.5398,-8.6348,-8.6454,-8.7088,-8.8003,-8.8566,-8.862,-8.823,-8.7995,-8.7637,-8.6891,-8.5484,-8.458,-8.3828,-8.2921,-8.2157,-8.1552,-8.1208,-8.0938,-8.0547,-8.0204,-7.9839,-7.9204,-8.0009,-8.0469,-8.0469,-8.0469,-8.0662,-8.1136,-8.1619,-8.182,-8.2005,-8.2721,-8.3268,-8.3365,-8.4201,-8.4748,-8.4748,-8.478,-8.478,-8.478,-8.478,-8.5424,-8.6512,-8.7414,-8.8637,-9.0569,-9.1567,-9.1857,-9.1954,-9.2726,-9.3306,-9.3306,-9.3274,-9.3242,-9.3145,-9.3113,-9.3209,-9.3306,-9.3306,-9.3306,-9.3306,-9.3306,-9.3306,-9.3306,-9.3306,-9.3019,-9.26,-9.1465,-8.9797,-8.8116,-8.5439,-8.3224,-8.1822,-8.0907,-8.0729,-8.0071,-7.8761,-7.7771,-7.7051,-7.5746,-7.3889,-7.2076,-7.0309,-6.8219,-6.5896,-6.5252,-6.55,-6.4863,-6.4137,-6.4055,-8.3428,-8.3428,-8.3428,-8.3428,-8.3428,-8.3428,-8.3428,-8.3428,-8.3428,-8.3428,-8.3428,-8.3428,-8.3428,-8.3428,-8.3428,-8.3428,-8.3428,-8.3428,-8.3428,-8.3428,-8.3428,-8.3428,-8.3428,-8.3428,-8.3992,-8.4802,-8.4907,-8.5398,-8.6348,-8.6982,-8.7193,-8.7113,-8.706,-8.6653,-8.5849,-8.4621,-8.3305,-8.2399,-8.1511,-8.0695,-8.0049,-7.9945,-7.9735,-7.9267,-7.8544,-7.8091,-7.7934,-7.8581,-7.9011,-7.9011,-7.9011,-7.9236,-7.9719,-7.9751,-7.9944,-8.0524,-8.1305,-8.182,-8.2037,-8.3172,-8.3976,-8.4008,-8.4426,-8.478,-8.478,-8.4813,-8.5102,-8.5997,-8.648,-8.7478,-8.9217,-8.9636,-8.9797,-9.0344,-9.1181,-9.1664,-9.1761,-9.1761,-9.1761,-9.1761,-9.1761,-9.2018,-9.2308,-9.2984,-9.3306,-9.3306,-9.3306,-9.3048,-9.2759,-9.2533,-9.2179,-9.1638,-9.0522,-8.9082,-8.7591,-8.4465,-8.198,-8.0648,-7.9513,-7.9236,-7.8292,-7.686,-7.638,-7.5694,-7.4912,-7.3312,-7.198,-7.0198,-6.7852,-6.5614,-6.4613,-6.4697,-6.4388,-6.3945,-6.3693,-8.3428,-8.3428,-8.3428,-8.3428,-8.3428,-8.3428,-8.3428,-8.3428,-8.3428,-8.3428,-8.3428,-8.3428,-8.3428,-8.3428,-8.3428,-8.3428,-8.3428,-8.3428,-8.3428,-8.3428,-8.3428,-8.3428,-8.3428,-8.3428,-8.3428,-8.3604,-8.3603,-8.3639,-8.3638,-8.4905,-8.5609,-8.568,-8.6873,-8.6741,-8.513,-8.466,-8.3253,-8.0511,-7.9861,-7.9051,-7.7888,-7.7459,-7.7423,-7.7387,-7.7021,-7.6933,-7.683,-7.6559,-7.6487,-7.6455,-7.6584,-7.7099,-7.8291,-7.8452,-7.8914,-8.0041,-8.0331,-8.0427,-8.0588,-8.1692,-8.2496,-8.2625,-8.3558,-8.4491,-8.4426,-8.4459,-8.4587,-8.478,-8.5836,-8.648,-8.6899,-8.7253,-8.7736,-8.8766,-8.9056,-8.9249,-8.9153,-8.9475,-8.9088,-8.9217,-8.941,-8.9925,-9.0956,-9.2276,-9.2694,-9.2791,-9.2952,-9.2533,-9.1374,-9.1084,-9.0569,-8.9455,-8.8232,-8.6548,-8.4789,-8.2456,-8.0736,-7.9319,-7.8034,-7.7514,-7.6089,-7.5056,-7.478,-7.4389,-7.3673,-7.283,-7.1723,-6.9855,-6.7406,-6.5753,-6.4613,-6.4388,-6.4388,-6.3921,-6.3525,-8.3428,-8.3428,-8.3428,-8.3428,-8.3428,-8.3428,-8.3428,-8.3428,-8.3428,-8.3428,-8.3428,-8.3428,-8.3428,-8.3428,-8.3428,-8.3428,-8.3428,-8.3428,-8.3428,-8.3428,-8.3428,-8.3428,-8.3428,-8.3428,-8.3428,-8.3428,-8.3428,-8.3428,-8.3499,-8.3921,-8.4025,-8.406,-8.4485,-8.4022,-8.2948,-8.2198,-8.1118,-7.9609,-7.8826,-7.817,-7.7676,-7.7677,-7.7595,-7.7461,-7.7361,-7.7159,-7.6803,-7.6733,-7.6597,-7.6423,-7.6423,-7.6584,-7.697,-7.7002,-7.7131,-7.753,-7.8485,-7.9043,-7.9043,-8.0331,-8.1071,-8.1136,-8.1338,-8.2046,-8.2914,-8.3172,-8.3622,-8.4394,-8.4194,-8.4355,-8.5257,-8.6255,-8.7022,-8.7414,-8.8476,-8.9024,-8.8959,-8.9024,-8.8927,-8.9024,-8.8734,-8.9185,-8.9539,-8.9958,-9.0376,-9.0376,-9.0312,-8.9958,-8.97,-8.9603,-8.9475,-8.906,-8.7819,-8.5669,-8.2323,-8.0113,-7.8381,-7.7087,-7.6833,-7.6403,-7.563,-7.5157,-7.4724,-7.4259,-7.3025,-7.195,-7.0524,-6.8785,-6.6595,-6.5111,-6.4388,-6.4388,-6.4304,-6.3633,-6.3211,-8.3428,-8.3428,-8.3428,-8.3428,-8.3428,-8.3428,-8.3428,-8.3428,-8.3428,-8.3428,-8.3428,-8.3428,-8.3428,-8.3428,-8.3428,-8.3428,-8.3428,-8.3428,-8.3428,-8.3428,-8.3428,-8.3428,-8.3428,-8.3428,-8.3428,-8.3428,-8.3428,-8.3428,-8.3428,-8.3428,-8.3428,-8.3428,-8.3428,-8.2949,-8.2026,-8.1134,-8.0233,-7.9279,-7.8392,-7.7842,-7.7776,-7.7842,-7.7875,-7.7759,-7.7578,-7.7411,-7.7109,-7.6887,-7.67,-7.6578,-7.6442,-7.6423,-7.6423,-7.6423,-7.6423,-7.6455,-7.7196,-7.7647,-7.7679,-7.8914,-7.9655,-7.9687,-8.017,-8.0791,-8.1627,-8.1724,-8.2046,-8.2753,-8.2206,-8.2335,-8.3686,-8.4645,-8.5386,-8.5997,-8.6738,-8.7253,-8.7317,-8.7285,-8.7317,-8.7285,-8.7285,-8.7446,-8.7994,-8.8122,-8.838,-8.8927,-8.9056,-8.8831,-8.8219,-8.8122,-8.7897,-8.7207,-8.5609,-8.3187,-8.0557,-7.7999,-7.6914,-7.6564,-7.6225,-7.5842,-7.5486,-7.5157,-7.4724,-7.4332,-7.2951,-7.1316,-6.949,-6.7912,-6.6401,-6.5029,-6.4388,-6.4304,-6.4029,-6.3464,-6.2593,-8.3428,-8.3428,-8.3428,-8.3428,-8.3428,-8.3428,-8.3428,-8.3428,-8.3428,-8.3428,-8.3428,-8.3428,-8.3428,-8.3428,-8.3428,-8.3428,-8.3428,-8.3428,-8.3428,-8.3428,-8.3428,-8.3428,-8.3428,-8.3428,-8.3428,-8.3428,-8.3428,-8.3428,-8.3428,-8.3428,-8.3428,-8.3428,-8.3428,-8.2914,-8.2026,-8.1217,-8.0287,-7.9312,-7.8392,-7.7989,-7.8038,-7.7989,-7.7973,-7.7973,-7.7727,-7.7561,-7.7461,-7.7058,-7.6803,-7.6733,-7.6494,-7.6423,-7.6423,-7.6423,-7.6423,-7.6423,-7.6423,-7.6423,-7.6487,-7.7615,-7.8323,-7.842,-7.9333,-8.0041,-8.0299,-8.017,-8.0138,-8.0395,-8.0472,-8.102,-8.223,-8.26,-8.3301,-8.4387,-8.4825,-8.4792,-8.5166,-8.5004,-8.5004,-8.4947,-8.5385,-8.5373,-8.6507,-8.6673,-8.7124,-8.8058,-8.809,-8.7768,-8.6899,-8.6673,-8.6319,-8.4703,-8.2536,-8.0489,-7.9047,-7.7519,-7.6746,-7.6535,-7.6254,-7.5842,-7.5386,-7.5056,-7.4651,-7.4085,-7.2877,-7.124,-6.9568,-6.7912,-6.6294,-6.4863,-6.4304,-6.422,-6.3777,-6.3018,-6.1669,-8.3428,-8.3428,-8.3428,-8.3428,-8.3428,-8.3428,-8.3428,-8.3428,-8.3428,-8.3428,-8.3428,-8.3428,-8.3428,-8.3428,-8.3428,-8.3428,-8.3428,-8.3428,-8.3428,-8.3428,-8.3428,-8.3428,-8.3428,-8.3428,-8.3428,-8.3428,-8.3428,-8.3428,-8.3428,-8.3428,-8.3428,-8.3428,-8.3428,-8.2949,-8.2061,-8.1826,-8.0923,-7.9358,-7.844,-7.8295,-7.8894,-7.8295,-7.7973,-7.7973,-7.7842,-7.7677,-7.7278,-7.7127,-7.6905,-7.6494,-7.6442,-7.6423,-7.6423,-7.6423,-7.6423,-7.6423,-7.6423,-7.6423,-7.6423,-7.6712,-7.6874,-7.6906,-7.7164,-7.784,-7.8689,-7.7948,-7.7776,-7.8828,-7.9593,-8.0251,-8.0926,-8.1684,-8.2399,-8.3019,-8.385,-8.4736,-8.5947,-8.6839,-8.6999,-8.6231,-8.6066,-8.5774,-8.5392,-8.5257,-8.5424,-8.5778,-8.5681,-8.5617,-8.5327,-8.5231,-8.4693,-8.3326,-8.1792,-8.0204,-7.8883,-7.7519,-7.6676,-7.6564,-7.6013,-7.5629,-7.5343,-7.4811,-7.4377,-7.4085,-7.2877,-7.106,-6.9464,-6.7912,-6.6294,-6.478,-6.4388,-6.4304,-6.4053,-6.2546,-6.0045,-8.3428,-8.3428,-8.3428,-8.3428,-8.3428,-8.3428,-8.3428,-8.3428,-8.3428,-8.3428,-8.3428,-8.3428,-8.3428,-8.3428,-8.3428,-8.3428,-8.3428,-8.3428,-8.3428,-8.3428,-8.3428,-8.3428,-8.3428,-8.3428,-8.3428,-8.3428,-8.3428,-8.3428,-8.3428,-8.3428,-8.3428,-8.3428,-8.3428,-8.3171,-8.2644,-8.1826,-8.1134,-8.0572,-7.9689,-7.9001,-7.8692,-7.8199,-7.7973,-7.7973,-7.7973,-7.7776,-7.7378,-7.7228,-7.6975,-7.6546,-7.6442,-7.61,-7.5437,-7.5405,-7.5115,-7.4471,-7.4439,-7.4439,-7.4439,-7.4407,-7.4696,-7.5372,-7.6004,-7.6487,-7.6564,-7.5855,-7.6191,-7.7968,-7.8182,-7.8819,-8.0101,-8.0734,-8.1218,-8.1578,-8.2625,-8.338,-8.381,-8.4832,-8.5312,-8.4898,-8.5286,-8.5428,-8.4864,-8.478,-8.478,-8.478,-8.478,-8.478,-8.478,-8.478,-8.4308,-8.3022,-8.1542,-8.0204,-7.895,-7.7519,-7.6705,-7.6564,-7.5942,-7.5458,-7.5386,-7.4739,-7.4332,-7.4158,-7.2121,-7.042,-6.949,-6.7351,-6.5639,-6.4471,-6.4388,-6.4388,-6.422,-6.2824,-6.0242,-8.3428,-8.3428,-8.3428,-8.3428,-8.3428,-8.3428,-8.3428,-8.3356,-8.2935,-8.2724,-8.2723,-8.2723,-8.2723,-8.2687,-8.2759,-8.2687,-8.2759,-8.2934,-8.3039,-8.3075,-8.3322,-8.3428,-8.3428,-8.3428,-8.3428,-8.3428,-8.3428,-8.3428,-8.3428,-8.3428,-8.3428,-8.3428,-8.3428,-8.3391,-8.3283,-8.1831,-8.1349,-8.1986,-8.1008,-7.97,-7.8183,-7.7989,-7.7973,-7.7973,-7.7924,-7.7776,-7.7478,-7.7228,-7.7007,-7.67,-7.6333,-7.5553,-7.4291,-7.4117,-7.3344,-7.196,-7.1831,-7.1734,-7.1573,-7.1734,-7.2346,-7.3551,-7.4954,-7.5198,-7.3827,-7.3809,-7.4792,-7.6645,-7.6621,-7.7118,-7.8771,-7.9351,-7.9715,-8.0162,-8.1105,-8.1519,-8.1111,-8.2225,-8.3016,-8.2773,-8.3842,-8.4674,-8.4445,-8.4587,-8.478,-8.478,-8.478,-8.478,-8.478,-8.478,-8.4191,-8.2961,-8.1605,-8.0204,-7.8883,-7.7519,-7.6705,-7.6564,-7.5913,-7.5386,-7.5386,-7.4739,-7.4186,-7.3939,-7.1338,-6.9386,-6.8706,-6.6381,-6.4755,-6.4471,-6.4388,-6.4388,-6.4304,-6.2503,-6.0315,-8.3428,-8.3428,-8.3428,-8.3428,-8.3428,-8.3428,-8.3428,-8.318,-8.0681,0.0,0.0,-7.9519,-7.9555,-7.959,-7.9555,-7.9555,-7.966,-8.0892,-8.1455,-8.1525,-8.2793,-8.3428,-8.3428,-8.3428,-8.3428,-8.3428,-8.3428,-8.3428,-8.3428,-8.3428,-8.3428,-8.3428,-8.3428,-8.3428,-8.3356,-8.3062,-8.2609,-8.1986,-8.0399,-7.9404,-7.9068,-7.8344,-7.7973,-7.7973,-7.7759,-7.7478,-7.7228,-7.7007,-7.6733,-7.641,-7.5327,-7.4503,-7.4246,-7.3151,-7.1863,-7.0479,-7.035,-6.9835,-6.8708,-6.9706,-7.0446,-7.0736,-7.2056,-7.2282,-7.0865,-7.1863,-7.2653,-7.3076,-7.4735,-7.5583,-7.5277,-7.6954,-7.8296,-7.8817,-7.9775,-8.0835,-8.178,-8.2894,-8.3044,-8.2606,-8.3491,-8.4049,-8.3237,-8.3969,-8.478,-8.4748,-8.4652,-8.478,-8.478,-8.4716,-8.418,-8.2988,-8.1574,-8.0204,-7.8883,-7.7519,-7.6705,-7.6477,-7.5855,-7.5458,-7.5315,-7.4739,-7.3764,-7.2255,-7.0547,-6.8785,-6.7406,-6.5572,-6.4471,-6.4388,-6.4388,-6.4388,-6.3883,-6.0034,-5.6093,-8.1033,-8.1033,-8.1033,-8.1033,0.0,-8.1033,-8.0153,-7.8674,-7.7126,-7.6492,-7.6527,-7.7302,-7.7618,-7.7654,-7.8393,-7.871,-7.8781,-7.9519,-7.9836,-7.9942,-8.0681,-8.0998,-8.1033,-8.1033,-8.1033,-8.1068,-8.1807,-8.2195,-8.2265,-8.3004,-8.3428,-8.3428,-8.3428,-8.3428,-8.3428,-8.3428,-8.2949,-8.2061,-8.1134,-8.0233,-7.9358,-7.8881,-7.8392,-7.794,-7.7793,0.0,0.0,0.0,0.0,0.0,0.0,0.0,0.0,-6.9641,0.0,-6.581,-6.5681,-6.5069,-6.3685,-6.4156,-6.5198,-6.6615,-6.7388,-6.7162,-6.5778,-6.7645,-6.9684,-7.1627,-7.2343,-7.3074,-7.379,-7.4891,-7.5827,-7.632,-7.728,-7.817,-7.9207,-8.0383,-8.1065,-8.1095,-8.1892,-8.2453,-8.2323,-8.2588,-8.2842,-8.3526,-8.3654,-8.3879,-8.4523,-8.4137,-8.345,-8.2781,-8.1541,-8.0173,-7.895,-7.7519,-7.639,-7.5513,-7.492,-7.3929,-7.2453,-7.1698,-7.0802,-6.9099,-6.7515,-6.613,-6.5189,-6.3808,-6.2726,-6.2645,-6.1967,-6.1095,-5.9396,-5.62,-5.314,-7.871,-7.871,-7.8429,-7.8322,-7.8218,-7.7407,-7.5579,-7.3359,-7.3391,-7.3359,-7.3465,-7.4697,-7.526,-7.5366,-7.6492,-7.6986,-7.7021,-7.7303,-7.7478,-7.7478,-7.8076,-7.8288,-7.8358,-7.8569,-7.871,-7.8781,-8.0012,-8.061,-8.061,-8.1913,-8.2511,-8.2476,-8.2511,-8.2511,-8.2511,0.0,0.0,0.0,-8.1151,-8.0437,-7.9127,-7.9035,-7.8559,-7.7627,-7.7447,0.0,-7.4767,-7.4263,-7.3337,-7.1734,-7.0092,0.0,-6.6914,0.0,0.0,0.0,0.0,0.0,0.0,0.0,0.0,0.0,-6.1013,-6.0916,-6.036,-6.2623,-6.566,-6.9177,-6.9121,-6.9662,-7.181,-7.2479,-7.2989,-7.3379,-7.4361,-7.5109,-7.5526,-7.6874,-7.8027,-7.8753,-7.9577,-8.0431,-8.1158,-8.0873,-8.1007,-8.1981,-8.2174,-8.2745,-8.3686,-8.285,-8.2206,-8.2126,-8.102,-7.9732,-7.8266,-7.6627,-7.509,-7.4176,-7.3376,-7.1861,-6.9721,-6.8617,-6.7525,-6.5981,-6.4502,-6.3587,-6.3124,-6.201,-6.1076,-6.0557,-5.9409,-5.7408,-5.4082,-5.2014,-5.0619,-7.871,-7.8639,-7.7372,-7.6879,-7.6562,-7.2482,-7.0578,-7.0226,-7.0195,-7.0226,-7.0195,-7.0402,-7.0477,-7.0512,-7.0688,-7.0758,-7.086,-7.2127,-7.2793,-7.2969,-7.5577,-7.6844,-7.6914,-7.8146,-7.871,-7.871,-7.8921,-7.8992,-7.9027,-7.9168,-7.9343,-7.9308,-7.9273,-7.9308,-7.9308,-7.9308,-7.8918,-7.8145,-7.7865,-7.7936,-7.8069,-7.8135,-7.7493,-7.6148,-7.5615,-7.4751,-7.3189,-7.1524,-7.0542,-7.0189,-6.771,-6.5283,-6.3169,-6.1729,-5.915,0.0,-5.4817,0.0,0.0,0.0,0.0,0.0,0.0,0.0,0.0,-5.7407,-5.9508,-6.247,-6.3739,-6.5029,-6.655,-6.8973,-7.0429,-7.0591,-7.1703,-7.2558,-7.2668,-7.3956,-7.4876,-7.4945,-7.7248,-7.8807,-7.9041,-7.9924,-8.0437,-8.0717,-8.063,-8.0543,-8.0919,-8.0712,-8.0616,-8.0726,-7.9756,-7.8073,-7.596,-7.4081,-7.2779,-7.2413,-7.0928,-6.9512,-6.8754,-6.7336,-6.5748,-6.4197,-6.3511,-6.2896,-6.1642,-6.1174,-6.0276,-5.8607,-5.7759,-5.559,-5.0497,-4.7775,-4.6401,-7.3643,-7.3573,-7.294,-7.1177,-6.8637,-6.565,-6.4418,-6.4418,-6.4418,-6.4418,-6.4383,-6.4418,-6.4911,-6.5756,-6.6601,-6.6988,-6.7129,-6.8642,-6.9311,-6.9452,-7.1669,-7.2726,-7.2726,-7.3327,-7.3643,-7.3679,-7.4556,-7.4943,-7.4978,-7.5823,-7.6668,-7.7548,-7.7548,-7.6246,-7.3819,-7.5366,-7.611,-7.5766,-7.6813,-7.706,-7.6357,-7.6344,-7.5803,-7.4636,-7.4224,-7.2941,-7.0632,-6.9547,-6.7815,-6.5359,-6.3266,-6.1327,-5.9519,-5.7046,-5.4398,0.0,0.0,0.0,0.0,0.0,0.0,0.0,0.0,0.0,0.0,0.0,-5.4573,-5.6602,-5.8759,-6.0916,-6.3138,-6.4446,-6.5862,-6.7452,-6.816,-6.9191,-7.0768,-7.1509,-7.2398,-7.366,-7.4468,-7.5499,-7.6704,-7.7043,-7.7594,-7.9204,-7.7412,-7.6214,-7.6945,-7.727,-7.7346,-7.732,-7.6922,-7.6083,-7.5081,-7.2658,-7.0637,-6.9535,-6.7859,-6.596,-6.4342,-6.3296,-6.2196,-6.0829,-6.0476,-6.0197,-5.9431,-5.8455,-5.7266,-5.5918,-5.3475,-4.9834,-4.5969,-4.4487,-4.3889,-6.8471,-6.8366,-6.7269,-6.477,-6.1356,-5.9807,-5.9138,-5.9138,-5.9138,-5.9173,-5.9138,-5.9138,-5.9807,-6.1004,-6.2138,-6.2904,-6.3327,-6.4488,-6.5263,-6.572,-6.7234,-6.7848,-6.7727,-6.8077,-6.8253,-6.8323,-6.9477,-7.0344,-7.0856,-7.1986,-7.3359,-7.4767,-7.3817,-7.1845,-6.921,-7.1194,-7.2574,-7.3109,-7.5091,-7.5623,-7.4514,-7.4797,-7.4426,-7.3156,-7.2518,-7.0868,-6.8222,-6.6838,-6.4504,-6.1068,-5.8912,-5.7071,-5.5433,-5.2515,0.0,0.0,0.0,0.0,0.0,0.0,0.0,0.0,0.0,-4.4238,-4.7007,0.0,-5.0001,0.0,-5.4058,-5.6692,-5.9242,-6.0038,0.0,0.0,-6.4569,-6.5831,-6.792,-6.8793,-6.988,-7.1424,-7.1651,-7.2252,-7.4046,-7.3937,-7.4439,-7.6113,-7.3829,-7.2339,-7.3691,-7.3961,-7.3983,-7.4235,-7.4134,-7.3869,-7.359,-7.1464,-6.8864,-6.6601,-6.4533,-6.2368,-5.9804,-5.898,-5.8305,-5.6908,-5.6559,-5.641,-5.6059,-5.4654,-5.3222,-5.1765,-4.7914,-4.3936,-4.2846,-4.245,-4.237,-6.5298,-6.4911,-6.0616,-5.8636,-5.8178,-5.6614,-5.598,-5.598,-5.598,-5.598,-5.598,-5.598,-5.6015,-5.6156,-5.6297,0.0,-5.8495,-5.8636,-5.9455,-6.0863,-6.2412,-6.2862,-6.2337,-6.3724,-6.4419,-6.4419,-6.4524,-6.5636,-6.7521,-6.7732,-6.8607,-6.9984,-6.5826,-6.4946,-6.731,-6.6971,-6.7746,-6.9759,-7.1363,-7.2399,-7.2885,-7.4131,-7.3871,-7.1722,-6.9959,-6.8255,-6.6626,-6.2402,-5.9854,-5.9362,-5.5706,-5.2545,-5.0287,0.0,0.0,0.0,0.0,0.0,0.0,0.0,0.0,0.0,0.0,0.0,0.0,0.0,0.0,-4.7039,-4.9776,0.0,-5.358,-5.599,0.0,0.0,0.0,-6.2888,-6.2971,-6.5401,-6.6931,-6.6389,0.0,0.0,-7.0429,-7.1525,-7.1895,-7.08,-7.0586,-7.0997,-7.2308,-7.1613,-7.1525,-7.2522,-7.1803,-7.1053,-7.0809,-6.9413,-6.7219,-6.421,-6.1128,-5.8757,-5.7464,-5.6162,-5.4574,-5.3155,-5.272,-5.2378,-5.0997,-5.0287,-4.875,-4.4991,-4.2259,-4.1006,-4.2031,-4.1743,-4.1551,-5.9877,-5.6322,-5.4491,-5.3682,-5.3646,-5.3048,-5.2743,-5.2778,-5.2778,-5.2778,-5.2778,-5.2778,-5.2778,-5.2778,-5.2778,0.0,0.0,0.0,-5.5442,-5.6111,-5.7599,-5.8041,-5.7581,-5.8172,-5.8696,-5.9204,-5.9268,-6.022,-6.1958,-6.2282,-6.2006,-6.1117,0.0,-6.0396,-6.1672,-6.4153,-6.5595,-6.6063,-6.8018,-6.8932,-6.8692,-6.8793,-6.8391,-6.7461,-6.6496,-6.4913,-6.2448,-6.0371,-5.7721,-5.4375,-5.2674,-5.0154,0.0,0.0,0.0,0.0,0.0,0.0,0.0,0.0,0.0,0.0,0.0,-3.5513,-3.8282,0.0,0.0,0.0,-4.588,-4.8005,-5.0259,-5.2578,0.0,0.0,0.0,0.0,0.0,0.0,0.0,-6.2417,-6.4155,-6.5877,-6.7176,-6.5933,-6.5375,-6.666,-6.6288,-6.6661,-6.8748,0.0,-6.7533,-6.8069,-6.7715,-6.7088,-6.6302,-6.5343,-6.3656,-6.0671,-5.7967,-5.6026,-5.5583,-5.4045,-5.2562,-5.1423,-5.0278,-4.918,-4.8135,-4.497,-4.2133,-4.0997,-3.9604,-3.895,-3.9978,-3.9579,-3.9162,-5.5019,0.0,0.0,0.0,0.0,-4.933,-4.8978,-4.8965,-4.8507,-4.831,-4.831,-4.8296,0.0,0.0,0.0,0.0,0.0,0.0,-5.1468,-5.2187,-5.327,-5.3541,-5.3035,-5.3035,-5.3368,-5.4028,-5.3994,-5.4958,-5.6722,-5.6152,-5.5139,-5.3874,0.0,0.0,0.0,0.0,-6.2445,-6.3469,-6.5108,-6.6013,-6.6081,-6.556,-6.5188,-6.5051,-6.3731,-6.1961,-5.9725,-5.7839,-5.5019,-5.1093,-4.939,0.0,0.0,0.0,0.0,0.0,0.0,0.0,0.0,0.0,0.0,0.0,0.0,0.0,0.0,0.0,0.0,0.0,0.0,0.0,-4.6717,-4.901,-5.0867,0.0,0.0,0.0,0.0,0.0,0.0,0.0,0.0,0.0,-6.2184,-6.0599,-6.0181,0.0,0.0,-6.282,-6.5395,-6.4737,-6.4303,-6.5001,-6.5058,0.0,-6.3187,-6.247,-6.0938,-5.782,-5.5676,-5.3791,-5.2307,-5.0956,-4.9528,-4.7974,-4.6688,-4.5012,-4.282,-3.9086,-3.6911,-3.7078,-3.6604,-3.6409,-3.732,-3.6998,-3.6637,0.0,0.0,0.0,0.0,-4.8331,0.0,0.0,0.0,-4.2786,-4.2188,0.0,-4.2206,0.0,0.0,0.0,0.0,-4.5766,-4.5883,0.0,0.0,-4.9482,-4.9312,-4.8775,-4.8808,-4.8814,-4.8853,-4.8853,-5.0136,-5.2312,-4.9248,-4.825,0.0,0.0,0.0,0.0,0.0,-5.7428,-6.2311,-6.2753,-6.3908,-6.5879,-6.5971,-6.5889,-6.5662,-6.1938,-5.9764,-5.9433,-5.4265,-5.1126,-5.0836,-4.5655,0.0,0.0,0.0,0.0,0.0,0.0,0.0,0.0,0.0,0.0,0.0,0.0,0.0,0.0,0.0,0.0,0.0,0.0,0.0,0.0,-4.5138,0.0,0.0,0.0,0.0,0.0,0.0,0.0,0.0,0.0,-5.6522,-5.4659,-5.6382,-5.7739,-5.7122,0.0,0.0,0.0,0.0,-6.221,-6.4593,-6.485,-6.4129,-6.2669,-6.1947,-6.0173,-5.6396,0.0,0.0,-4.6891,-4.598,-4.4911,-4.1904,-4.1359,-3.9428,-3.414,-3.3016,-3.2816,-3.2854,-3.2848,-3.3233,-3.4663,-3.4663,-3.4663,0.0,0.0,0.0,0.0,0.0,0.0,0.0,0.0,0.0,-3.9707,-3.8792,-3.8773,0.0,0.0,0.0,0.0,0.0,0.0,0.0,0.0,-4.4394,-4.4582,-4.4325,-4.5161,-4.5883,-4.6503,-4.5613,-4.4781,0.0,0.0,0.0,0.0,0.0,0.0,0.0,0.0,-5.5316,-5.6731,-5.8384,-5.9838,-6.1053,-6.1148,-6.1148,-6.1036,-5.94,-5.7114,-5.4072,-5.1998,-4.9411,0.0,0.0,0.0,0.0,0.0,0.0,0.0,0.0,0.0,0.0,0.0,0.0,0.0,0.0,0.0,0.0,0.0,0.0,0.0,0.0,0.0,0.0,0.0,-4.3496,0.0,0.0,0.0,0.0,0.0,0.0,0.0,0.0,0.0,-5.0444,-5.0977,-5.2019,-5.3325,-5.3991,-5.4974,-5.6545,0.0,0.0,0.0,0.0,0.0,0.0,0.0,-5.3757,-5.161,-4.9851,-4.7946,-4.5339,-4.253,-4.0042,-3.8406,0.0,0.0,-3.1912,-3.1288,-3.1515,-3.1947,-3.1654,-3.1887,-3.387,-3.3562,-3.322,0.0,0.0,0.0,0.0,0.0,0.0,0.0,0.0,0.0,-3.5505,-3.449,0.0,0.0,0.0,0.0,0.0,0.0,0.0,0.0,0.0,0.0,0.0,-4.0305,-4.1582,0.0,0.0,0.0,0.0,0.0,0.0,0.0,0.0,0.0,0.0,0.0,0.0,-5.276,-5.3673,-5.5091,-5.6486,-5.7772,-5.7802,-5.7729,-5.7586,-5.7327,-5.5238,-5.1064,0.0,0.0,0.0,-3.9367,0.0,0.0,0.0,0.0,0.0,0.0,0.0,0.0,0.0,0.0,0.0,0.0,0.0,0.0,0.0,0.0,0.0,0.0,0.0,0.0,0.0,-3.9213,0.0,0.0,0.0,0.0,0.0,0.0,0.0,0.0,0.0,0.0,-4.7325,-4.8219,-4.9037,-4.9997,-5.0872,-5.1559,-5.1943,-5.2347,0.0,0.0,0.0,0.0,0.0,0.0,0.0,0.0,0.0,0.0,0.0,0.0,0.0,-3.2713,-3.018,-2.8803,-2.8536,-2.8737,-2.9248,0.0,0.0,0.0,0.0,0.0,0.0,0.0,0.0,0.0,0.0,0.0,0.0,0.0,0.0,0.0,-2.9119,0.0,0.0,-2.7196,0.0,0.0,0.0,0.0,0.0,0.0,0.0,0.0,0.0,0.0,0.0,0.0,0.0,0.0,0.0,0.0,0.0,0.0,0.0,0.0,0.0,0.0,-4.9667,-5.3401,-5.3009,-5.3922,-5.6162,-5.6325,-5.6147,-5.5754,-5.5717,-5.4171,-5.0935,0.0,0.0,0.0,0.0,0.0,0.0,0.0,0.0,0.0,0.0,0.0,0.0,0.0,0.0,0.0,0.0,0.0,0.0,0.0,0.0,0.0,0.0,0.0,0.0,0.0,0.0,-3.5355,-3.7198,-3.8637,0.0,0.0,0.0,0.0,0.0,0.0,0.0,0.0,0.0,-4.445,-4.6278,-4.7904,-4.7917,-4.8827,-4.9827,-5.096,-5.1809,-5.1887,-5.0486,-4.8257,-4.5928,0.0,0.0,0.0,0.0,0.0,0.0,0.0,0.0,0.0,0.0,0.0,0.0,0.0,0.0,0.0,0.0,0.0,0.0,0.0,0.0,0.0,0.0,0.0,0.0,0.0,0.0,0.0,0.0,0.0,-2.3593,0.0,0.0,0.0,0.0,0.0,0.0,0.0,0.0,0.0,0.0,0.0,0.0,0.0,0.0,0.0,0.0,0.0,0.0,0.0,0.0,0.0,0.0,0.0,0.0,-4.6789,-4.8964,-5.014,-5.1517,-5.3232,-5.4148,-5.4569,-5.4396,-5.3173,-5.1603,-4.9623,0.0,0.0,0.0,0.0,0.0,0.0,0.0,0.0,0.0,0.0,0.0,0.0,0.0,0.0,0.0,0.0,0.0,0.0,0.0,0.0,0.0,0.0,0.0,0.0,0.0,0.0,0.0,-3.6129,-3.7495,-3.8392,0.0,0.0,0.0,0.0,0.0,0.0,0.0,0.0,0.0,0.0,-4.3375,-4.3748,-4.4837,-4.5448,-4.4776,-4.4827,-4.4539,-4.3431,-4.1984,-4.07,-3.9707,0.0,0.0,0.0,0.0,0.0,0.0,0.0,0.0,0.0,0.0,0.0,0.0,0.0,0.0,0.0,0.0,0.0,0.0,0.0,0.0,0.0,0.0,0.0,0.0,0.0,0.0,0.0,0.0,0.0,0.0,0.0,0.0,0.0,0.0,0.0,0.0,0.0,0.0,0.0,0.0,0.0,0.0,0.0,0.0,0.0,0.0,0.0,0.0,0.0,0.0,0.0,0.0,0.0,-4.484,-4.7323,-4.7879,-4.8885,-5.0458,-5.1063,-5.1325,-5.1159,-5.0082,-4.8783,0.0,0.0,0.0,0.0,0.0,0.0,0.0,0.0,0.0,0.0,0.0,0.0,0.0,0.0,0.0,0.0,0.0,0.0,0.0,0.0,0.0,0.0,0.0,0.0,0.0,0.0,0.0,0.0,-3.2032,-3.3292,-3.4601,0.0,0.0,0.0,0.0,0.0,0.0,0.0,0.0,0.0,0.0,-3.9458,-3.8931,-4.0203,0.0,0.0,-4.0203,-4.0192,-3.9545,-3.8199,-3.6994,-3.6295,-3.4789,0.0,0.0,0.0,0.0,0.0,0.0,0.0,0.0,0.0,0.0,0.0,0.0,0.0,0.0,0.0,0.0,0.0,0.0,0.0,0.0,0.0,0.0,0.0,0.0,0.0,0.0,0.0,0.0,0.0,0.0,0.0,0.0,0.0,0.0,0.0,0.0,0.0,0.0,0.0,0.0,0.0,0.0,0.0,0.0,0.0,0.0,0.0,0.0,0.0,0.0,0.0,0.0,-4.369,-4.7397,-4.6206,-4.636,-4.7931,-4.7633,-4.7215,-4.6873,-4.6745,-4.6005,0.0,0.0,0.0,0.0,0.0,0.0,0.0,0.0,0.0,0.0,0.0,0.0,0.0,0.0,0.0,0.0,0.0,0.0,0.0,0.0,0.0,0.0,0.0,0.0,0.0,0.0,0.0,0.0,0.0,0.0,0.0,0.0,0.0,0.0,0.0,0.0,0.0,0.0,0.0,0.0,0.0,-3.6008,-3.4015,-3.5387,-3.664,0.0,-3.7457,-3.8164,-3.804,-3.6161,-3.4363,-3.3242,0.0,0.0,0.0,0.0,0.0,0.0,0.0,0.0,0.0,0.0,0.0,0.0,0.0,0.0,0.0,0.0,0.0,0.0,0.0,0.0,0.0,0.0,0.0,0.0,0.0,0.0,0.0,0.0,0.0,0.0,0.0,0.0,0.0,0.0,0.0,0.0,0.0,0.0,0.0,0.0,0.0,0.0,0.0,0.0,0.0,0.0,0.0,0.0,0.0,0.0,0.0,0.0,0.0,0.0,-4.5008,-4.5325,-4.5722,-4.6171,-4.6811,-4.709,-4.6964,-4.5776,0.0,0.0,0.0,0.0,0.0,0.0,0.0,0.0,0.0,0.0,0.0,0.0,0.0,0.0,0.0,0.0,0.0,0.0,0.0,0.0,0.0,0.0,0.0,0.0,0.0,0.0,0.0,-2.2534,0.0,0.0,0.0,0.0,0.0,0.0,0.0,0.0,0.0,0.0,0.0,0.0,0.0,0.0,-3.2772,-3.281,-3.446,-3.5417,0.0,0.0,-3.4657,-3.3697,-3.1745,-3.0142,0.0,0.0,0.0,0.0,0.0,0.0,0.0,0.0,0.0,0.0,0.0,0.0,0.0,0.0,0.0,0.0,0.0,0.0,0.0,0.0,0.0,0.0,0.0,0.0,0.0,0.0,0.0,0.0,0.0,0.0,0.0,0.0,0.0,0.0,0.0,0.0,0.0,0.0,0.0,0.0,0.0,0.0,0.0,0.0,0.0,0.0,0.0,0.0,0.0,0.0,0.0,0.0,0.0,0.0,-4.0677,-4.3338,-4.4203,-4.4607,-4.4653,-4.4983,-4.5145,-4.5058,-4.38,-4.3293,0.0,0.0,0.0,0.0,0.0,0.0,0.0,0.0,0.0,0.0,0.0,0.0,0.0,0.0,0.0,0.0,0.0,0.0,0.0,0.0,0.0,0.0,0.0,0.0,0.0,0.0,0.0,0.0,0.0,0.0,0.0,0.0,0.0,0.0,0.0,0.0,0.0,0.0,0.0,0.0,0.0,0.0,-3.0412,-3.1718,0.0,0.0,0.0,-3.1474,-3.0685,0.0,0.0,0.0,0.0,0.0,0.0,0.0,0.0,0.0,0.0,0.0,0.0,0.0,0.0,0.0,0.0,0.0,0.0,0.0,0.0,0.0,0.0,0.0,0.0,0.0,0.0,0.0,0.0,0.0,0.0,0.0,0.0,0.0,0.0,0.0,0.0,0.0,0.0,0.0,0.0,0.0,0.0,0.0,0.0,0.0,0.0,0.0,0.0,0.0,0.0,0.0,0.0,0.0,0.0,0.0,0.0,0.0,-4.2301,-4.302,-4.3383,-4.346,-4.3034,-4.2649,-4.2396,-4.1753,-4.163,0.0,0.0,0.0,0.0,0.0,0.0,0.0,0.0,0.0,0.0,0.0,0.0,0.0,0.0,0.0,0.0,0.0,0.0,0.0,0.0,0.0,0.0,0.0,0.0,0.0,0.0,0.0,0.0,0.0,0.0,0.0,0.0,0.0,0.0,0.0,0.0,0.0,0.0,0.0,0.0,0.0,-2.8409,-2.774,-2.8428,-2.8991,0.0,0.0,-2.8687,-2.8444,-2.8161,0.0,0.0,0.0,0.0,0.0,0.0,0.0,0.0,0.0,0.0,0.0,0.0,0.0,0.0,0.0,0.0,0.0,0.0,0.0,0.0,0.0,0.0,0.0,0.0,0.0,0.0,0.0,0.0,0.0,0.0,0.0,0.0,0.0,0.0,0.0,0.0,0.0,0.0,0.0,0.0,0.0,0.0,0.0,0.0,0.0,0.0,0.0,0.0,0.0,0.0,0.0,0.0,0.0,0.0,0.0,0.0,-4.1423,-4.2611,-4.3203,-4.3225,-4.2934,-4.2677,-4.2507,-4.1781,-4.1184,0.0,0.0,0.0,0.0,0.0,0.0,0.0,0.0,0.0,0.0,0.0,0.0,0.0,0.0,0.0,0.0,0.0,0.0,0.0,0.0,0.0,0.0,0.0,0.0,0.0,0.0,0.0,0.0,0.0,0.0,0.0,0.0,0.0,0.0,0.0,0.0,0.0,0.0,0.0,0.0,0.0,-2.6094,-2.6657,-2.7502,0.0,0.0,0.0,0.0,-2.6174,-2.4637,0.0,0.0,0.0,0.0,0.0,0.0,0.0,0.0,0.0,0.0,0.0,0.0,0.0,0.0,0.0,0.0,0.0,0.0,0.0,0.0,0.0,0.0,0.0,0.0,0.0,0.0,0.0,0.0,0.0,0.0,0.0,0.0,0.0,0.0,0.0,0.0,0.0,0.0,0.0,0.0,0.0,0.0,0.0,0.0,0.0,0.0,0.0,0.0,0.0,0.0,0.0,0.0,0.0,0.0,0.0,0.0,-3.9436,-4.0847,-4.2004,-4.2826,-4.2738,-4.245,-4.2018,-4.1329,-4.0426,0.0,0.0,0.0,0.0,0.0,0.0,0.0,0.0,0.0,0.0,0.0,0.0,0.0,0.0,0.0,0.0,0.0,0.0,0.0,0.0,0.0,0.0,0.0,0.0,0.0,0.0,0.0,0.0,0.0,0.0,0.0,0.0,0.0,0.0,0.0,0.0,0.0,0.0,0.0,0.0,-2.4181,-2.4241,-2.5487,0.0,0.0,0.0,0.0,0.0,0.0,-2.3013,-2.17,0.0,0.0,0.0,0.0,0.0,0.0,0.0,0.0,0.0,0.0,0.0,0.0,0.0,0.0,0.0,0.0,0.0,0.0,0.0,0.0,0.0,0.0,0.0,0.0,0.0,0.0,0.0,0.0,0.0,0.0,0.0,0.0,0.0,0.0,0.0,0.0,0.0,0.0,0.0,0.0,0.0,0.0,0.0,0.0,0.0,0.0,0.0,0.0,0.0,0.0,0.0,0.0,0.0,0.0,0.0,-3.7783,-3.922,-4.0802,-4.2536,-4.2596,-4.2223,-4.1421,-4.0553,-3.9406,-3.7721,0.0,0.0,0.0,0.0,0.0,0.0,0.0,0.0,0.0,0.0,0.0,0.0,0.0,0.0,0.0,0.0,0.0,0.0,0.0,0.0,0.0,0.0,0.0,0.0,0.0,0.0,0.0,0.0,0.0,0.0,0.0,0.0,0.0,0.0,0.0,0.0,0.0,0.0,0.0,-2.2353,-2.2976,0.0,0.0,0.0,0.0,0.0,0.0,0.0,0.0,-2.0492,0.0,0.0,0.0,0.0,0.0,0.0,0.0,0.0,0.0,0.0,0.0,0.0,0.0,0.0,0.0,0.0,0.0,0.0,0.0,0.0,0.0,0.0,0.0,0.0,0.0,0.0,0.0,0.0,0.0,0.0,0.0,0.0,0.0,0.0,0.0,0.0,0.0,0.0,0.0,0.0,0.0,0.0,0.0,0.0,0.0,0.0,0.0,0.0,0.0,0.0,0.0,0.0,0.0,0.0,0.0,0.0,-3.9666,-4.1088,-4.2471,-4.2596,-4.2223,-4.1421,-3.9716,-3.7598,-3.5133,0.0,0.0,0.0,0.0,0.0,0.0,0.0,0.0,0.0,0.0,0.0,0.0,0.0,0.0,0.0,0.0,0.0,0.0,0.0,0.0,0.0,0.0,0.0,0.0,0.0,0.0,0.0,0.0,0.0,0.0,0.0,0.0,0.0,0.0,0.0,0.0,0.0,0.0,-2.0982,-2.1929,0.0,0.0,0.0,0.0,0.0,0.0,0.0,0.0,-1.8824,0.0,0.0,0.0,0.0,0.0,0.0,0.0,0.0,0.0,0.0,0.0,0.0,0.0,0.0,0.0,0.0,0.0,0.0,0.0,0.0,0.0,0.0,0.0,0.0,0.0,0.0,0.0,0.0,0.0,0.0,0.0,0.0,0.0,0.0,0.0,0.0,0.0,0.0,0.0,0.0,0.0,0.0,0.0,0.0,0.0,0.0,0.0,0.0,0.0,0.0,0.0,0.0,0.0,0.0,0.0,0.0,0.0,0.0,-3.9489,-4.0893,-4.1952,-4.1959,-4.0865,-3.8666,-3.6686,0.0,0.0,0.0,0.0,0.0,0.0,0.0,0.0,0.0,0.0,0.0,0.0,0.0,0.0,0.0,0.0,0.0,0.0,0.0,0.0,0.0,0.0,0.0,0.0,0.0,0.0,0.0,0.0,0.0,0.0,0.0,0.0,0.0,0.0,0.0,0.0,0.0,0.0,0.0,0.0,0.0,0.0,0.0,0.0,0.0,0.0,0.0,0.0,0.0,0.0,0.0,0.0,0.0,0.0,0.0,0.0,0.0,0.0,0.0,0.0,0.0,0.0,0.0,0.0,0.0,0.0,0.0,0.0,0.0,0.0,0.0,0.0,0.0,0.0,0.0,0.0,0.0,0.0,0.0,0.0,0.0,0.0,0.0,0.0,0.0,0.0,0.0,0.0,0.0,0.0,0.0,0.0,0.0,0.0,0.0,0.0,0.0,0.0,0.0,0.0,0.0,0.0,0.0,0.0,0.0,0.0,0.0,0.0,-3.8172,-3.945,-4.1402,-4.1751,-4.0453,-3.7778,-3.5713,0.0,0.0,0.0,0.0,0.0,0.0,0.0,0.0,0.0,0.0,0.0,0.0,0.0,0.0,0.0,0.0,0.0,0.0,0.0,0.0,0.0,0.0,0.0,0.0,0.0,0.0,0.0,0.0,0.0,0.0,0.0,0.0,0.0,0.0,0.0,0.0,0.0,0.0,0.0,0.0,0.0,0.0,0.0,0.0,0.0,0.0,0.0,0.0,-1.772,0.0,0.0,0.0,0.0,0.0,0.0,0.0,0.0,0.0,0.0,0.0,0.0,0.0,0.0,0.0,0.0,0.0,0.0,0.0,0.0,0.0,0.0,0.0,0.0,0.0,0.0,0.0,0.0,0.0,0.0,0.0,0.0,0.0,0.0,0.0,0.0,0.0,0.0,0.0,0.0,0.0,0.0,0.0,0.0,0.0,0.0,0.0,0.0,0.0,0.0,0.0,0.0,0.0,0.0,0.0,0.0,0.0,0.0,0.0,-3.8503,-3.9453,-4.137,-4.172,-4.0423,-3.7355,-3.4257,0.0,0.0,0.0,0.0,0.0,0.0,0.0,0.0,0.0,0.0,0.0,0.0,0.0,0.0,0.0,0.0,0.0,0.0,0.0,0.0,0.0,0.0,0.0,0.0,0.0,0.0,0.0,0.0,0.0,0.0,0.0,0.0,0.0,0.0,0.0,0.0,0.0,0.0,0.0,0.0,0.0,0.0,0.0,0.0,0.0,0.0,0.0,0.0,0.0,0.0,0.0,0.0,0.0,0.0,0.0,0.0,0.0,0.0,0.0,0.0,0.0,0.0,0.0,0.0,0.0,0.0,0.0,0.0,0.0,0.0,0.0,0.0,0.0,0.0,0.0,0.0,0.0,0.0,0.0,0.0,0.0,0.0,0.0,0.0,0.0,0.0,0.0,0.0,0.0,0.0,0.0,0.0,0.0,0.0,0.0,0.0,0.0,0.0,0.0,0.0,0.0,0.0,0.0,0.0,0.0,0.0,0.0,0.0,-3.6677,-3.7225,-3.9118,-3.8968,-3.6535,-3.5179,-3.2917,0.0,0.0,0.0,0.0,0.0,0.0,0.0,0.0,0.0,0.0,0.0,0.0,0.0,0.0,0.0,0.0,0.0,0.0,0.0,0.0,0.0,0.0,0.0,0.0,0.0,0.0,0.0,0.0,0.0,0.0,0.0,0.0,0.0,0.0,0.0,0.0,0.0,0.0,0.0,0.0,0.0,0.0,0.0,0.0,0.0,0.0,0.0,0.0,0.0,0.0,0.0,0.0,0.0,0.0,0.0,0.0,0.0,0.0,0.0,0.0,0.0,0.0,0.0,0.0,0.0,0.0,0.0,0.0,0.0,0.0,0.0,0.0,0.0,0.0,0.0,0.0,0.0,0.0,0.0,0.0,0.0,0.0,0.0,0.0,0.0,0.0,0.0,0.0,0.0,0.0,0.0,0.0,0.0,0.0,0.0,0.0,0.0,0.0,0.0,0.0,0.0,0.0,0.0,0.0,0.0,0.0,0.0,0.0,0.0,-3.5265,-3.5686,-3.4811,-3.2492,-3.2317,-3.0879,0.0,0.0,0.0,0.0,0.0,0.0,0.0,0.0,0.0,0.0,0.0,0.0,0.0,0.0,0.0,0.0,0.0,0.0,0.0,0.0,0.0,0.0,0.0,0.0,0.0,0.0,0.0,0.0,0.0,0.0,0.0,0.0,0.0,0.0,0.0,0.0,0.0,0.0,0.0,0.0,0.0,0.0,0.0,0.0,0.0,0.0,0.0,0.0,0.0,0.0,0.0,0.0,0.0,0.0,0.0,0.0,0.0,0.0,0.0,0.0,0.0,0.0,0.0,0.0,0.0,0.0,0.0,0.0,0.0,0.0,0.0,0.0,0.0,0.0,0.0,0.0,0.0,0.0,0.0,0.0,0.0,0.0,0.0,0.0,0.0,0.0,0.0,0.0,0.0,0.0,0.0,0.0,0.0,0.0,0.0,0.0,0.0,0.0,0.0,0.0,0.0,0.0,0.0,0.0,0.0,0.0,0.0,0.0,0.0,-3.4417,-3.1067,-2.9245,-2.9046,-2.9046,-2.7716,0.0,0.0,0.0,0.0,0.0,0.0,0.0,0.0,0.0,0.0,0.0,0.0,0.0,0.0,0.0,0.0,0.0,0.0,0.0,0.0,0.0,0.0,0.0,0.0,0.0,0.0,0.0,0.0,0.0,0.0,0.0,0.0,0.0,0.0,0.0,0.0,0.0,0.0,0.0,0.0,0.0,0.0,0.0,0.0,0.0,0.0,0.0,0.0,0.0,0.0,0.0,0.0,0.0,0.0,0.0,0.0,0.0,0.0,0.0,0.0,0.0,0.0,0.0,0.0,0.0,0.0,0.0,0.0,0.0,0.0,0.0,0.0,0.0,0.0,0.0,0.0,0.0,0.0,0.0,0.0,0.0,0.0,0.0,0.0,0.0,0.0,0.0,0.0,0.0,0.0,0.0,0.0,0.0,0.0,0.0,0.0,0.0,0.0,0.0,0.0,0.0,0.0,0.0,0.0,0.0,0.0,0.0,0.0,0.0,-3.0377,-2.7751,-2.6171,-2.5849,-2.6927,-2.6151,-2.3247,0.0,0.0,0.0,0.0,0.0,0.0,0.0,0.0,0.0,0.0,0.0,0.0,0.0,0.0,0.0,0.0,0.0,0.0,0.0,0.0,0.0,0.0,0.0,0.0,0.0,0.0,0.0,0.0,0.0,0.0,0.0,0.0,0.0,0.0,0.0,0.0,0.0,0.0,0.0,0.0,0.0,0.0,0.0,0.0,0.0,0.0,0.0,0.0,0.0,0.0,0.0,0.0,0.0,0.0,0.0,0.0,0.0,0.0,0.0,0.0,0.0,0.0,0.0,0.0,0.0,0.0,0.0,0.0,0.0,0.0,0.0,0.0,0.0,0.0,0.0,0.0,0.0,0.0,0.0,0.0,0.0,0.0,0.0,0.0,0.0,0.0,0.0,0.0,0.0,0.0,0.0,0.0,0.0,0.0,0.0,0.0,0.0,0.0,0.0,0.0,0.0,0.0,0.0,0.0,0.0,0.0,0.0,0.0,-2.5921,-2.4835,-2.4093,-2.3829,-2.4943,-2.4395,0.0,0.0,0.0,0.0,0.0,0.0,0.0,0.0,0.0,0.0,0.0,0.0,0.0,0.0,0.0,0.0,0.0,0.0,0.0,0.0,0.0,0.0,0.0,0.0,0.0,0.0,0.0,0.0,0.0,0.0,0.0,0.0,0.0,0.0,0.0,0.0,0.0,0.0,0.0,0.0,0.0,0.0,0.0,0.0,0.0,0.0,0.0,0.0,0.0,0.0,0.0,0.0,0.0,0.0,0.0,0.0,0.0,0.0,0.0,0.0,0.0,0.0,0.0,0.0,0.0,0.0,0.0,0.0,0.0,0.0,0.0,0.0,0.0,0.0,0.0,0.0,0.0,0.0,0.0,0.0,0.0,0.0,0.0,0.0,0.0,0.0,0.0,0.0,0.0,0.0,0.0,0.0,0.0,0.0,0.0,0.0,0.0,0.0,0.0,0.0,0.0,0.0,0.0,0.0,0.0,0.0,0.0,0.0,-1.9005,-2.1047,-2.2278,-2.2839,-2.2947,-2.2926,-2.2304,0.0,0.0,0.0,0.0,0.0,0.0,0.0,0.0,0.0,0.0,0.0,0.0,0.0,0.0,0.0,0.0,0.0,0.0,0.0,0.0,0.0,0.0,0.0,0.0,0.0,0.0,0.0,0.0,0.0,0.0,0.0,0.0,0.0,0.0,0.0,0.0,0.0,0.0,0.0,0.0,0.0,0.0,0.0,0.0,0.0,0.0,0.0,0.0,0.0,0.0,0.0,0.0,0.0,0.0,0.0,0.0,0.0,0.0,0.0,0.0,0.0,0.0,0.0,0.0,0.0,0.0,0.0,0.0,0.0,0.0,0.0,0.0,0.0,0.0,0.0,0.0,0.0,0.0,0.0,0.0,0.0,0.0,0.0,0.0,0.0,0.0,0.0,0.0,0.0,0.0,0.0,0.0,0.0,0.0,0.0,0.0,0.0,0.0,0.0,0.0,0.0,0.0,0.0,0.0,0.0,0.0,0.0,0.0,0.0,-2.012,0.0,-2.0266,-1.9933,-2.0276,-2.0074,0.0,0.0,0.0,0.0,0.0,0.0,0.0,0.0,0.0,0.0,0.0,0.0,0.0,0.0,0.0,0.0,0.0,0.0,0.0,0.0,0.0,0.0,0.0,0.0,0.0,0.0,0.0,0.0,0.0,0.0,0.0,0.0,0.0,0.0,0.0,0.0,0.0,0.0,0.0,0.0,0.0,0.0,0.0,0.0,0.0,0.0,0.0,0.0,0.0,0.0,0.0,0.0,0.0,0.0,0.0,0.0,0.0,0.0,0.0,0.0,0.0,0.0,0.0,0.0,0.0,0.0,0.0,0.0,0.0,0.0,0.0,0.0,0.0,0.0,0.0,0.0,0.0,0.0,0.0,0.0,0.0,0.0,0.0,0.0,0.0,0.0,0.0,0.0,0.0,0.0,0.0,0.0,0.0,0.0,0.0,0.0,0.0,0.0,0.0,0.0,0.0,0.0,0.0,0.0,0.0,0.0,0.0,0.0,0.0,-1.8859,-1.8682,-1.8609,-1.8767,-1.9065,-1.8869,0.0,0.0,0.0,0.0,0.0,0.0,0.0,0.0,0.0,0.0,0.0,0.0,0.0,0.0,0.0,0.0,0.0,0.0,0.0,0.0,0.0,0.0,0.0,0.0,0.0,0.0,0.0,0.0,0.0,0.0,0.0,0.0,0.0,0.0,0.0,0.0,0.0,0.0,0.0,0.0,0.0,0.0,0.0,0.0,0.0,0.0,0.0,0.0,0.0,0.0,0.0,0.0,0.0,0.0,0.0,0.0,0.0,0.0,0.0,0.0,0.0,0.0,0.0,0.0,0.0,0.0,0.0,0.0,0.0,0.0,0.0,0.0,0.0,0.0,0.0,0.0,0.0,0.0,0.0,0.0,0.0,0.0,0.0,0.0,0.0,0.0,0.0,0.0,0.0,0.0,0.0,0.0,0.0,0.0,0.0,0.0,0.0,0.0,0.0,0.0,0.0,0.0,0.0,0.0,0.0,0.0,0.0,0.0,0.0,-1.7179,-1.7222,-1.7802,-1.8916,-1.905,-1.8456,0.0,0.0,0.0,0.0,0.0,0.0,0.0,0.0,0.0,0.0,0.0,0.0,0.0,0.0,0.0,0.0,0.0,0.0,0.0,0.0,0.0,0.0,0.0,0.0,0.0,0.0,0.0,0.0,0.0,0.0,0.0,0.0,0.0,0.0,0.0,0.0,0.0,0.0,0.0,0.0,0.0,0.0,0.0,0.0,0.0,0.0,0.0,0.0,0.0,0.0,0.0,0.0,0.0,0.0,0.0,0.0,0.0,0.0,0.0,0.0,0.0,0.0,0.0,0.0,0.0,0.0,0.0,0.0,0.0,0.0,0.0,0.0,0.0,0.0,0.0,0.0,0.0,0.0,0.0,0.0,0.0,0.0,0.0,0.0,0.0,0.0,0.0,0.0,0.0,0.0,0.0,0.0,0.0,0.0,0.0,0.0,0.0,0.0,0.0,0.0,0.0,0.0,0.0,0.0,0.0,0.0,0.0,0.0,0.0,0.0,-1.5894,-1.6054,-1.6389,-1.6448,-1.6139,-1.5483,0.0,0.0,0.0,0.0,0.0,0.0,0.0,0.0,0.0,0.0,0.0,0.0,0.0,0.0,0.0,0.0,0.0,0.0,0.0,0.0,0.0,0.0,0.0,0.0,0.0,0.0,0.0,0.0,0.0,0.0,0.0,0.0,0.0,0.0,0.0,0.0,0.0,0.0,0.0,0.0,0.0,0.0,0.0,0.0,0.0,0.0,0.0,0.0,0.0,0.0,0.0,0.0,0.0,0.0,0.0,0.0,0.0,0.0,0.0,0.0,0.0,0.0,0.0,0.0,0.0,0.0,0.0,0.0,0.0,0.0,0.0,0.0,0.0,0.0,0.0,0.0,0.0,0.0,0.0,0.0,0.0,0.0,0.0,0.0,0.0,0.0,0.0,0.0,0.0,0.0,0.0,0.0,0.0,0.0,0.0,0.0,0.0,0.0,0.0,0.0,0.0,0.0,0.0,0.0,0.0,0.0,0.0,0.0,0.0,0.0,-1.5369,-1.5369,-1.5185,-1.4942,0.0,0.0,0.0,0.0,0.0,0.0,0.0,0.0,0.0,0.0,0.0,0.0,0.0,0.0,0.0,0.0,0.0,0.0,0.0,0.0,0.0,0.0,0.0,0.0,0.0,0.0,0.0,0.0,0.0,0.0,0.0,0.0,0.0,0.0,0.0,0.0,0.0,0.0,0.0,0.0,0.0,0.0,0.0,0.0,0.0,0.0,0.0,0.0,0.0,0.0,0.0,0.0,0.0,0.0,0.0,0.0,0.0,0.0,0.0,0.0,0.0,0.0,0.0,0.0,0.0,0.0,0.0,0.0,0.0,0.0,0.0,0.0,0.0,0.0,0.0,0.0,0.0,0.0,0.0,0.0,0.0,0.0,0.0,0.0,0.0,0.0,0.0,0.0,0.0,0.0,0.0,0.0,0.0,0.0,0.0,0.0,0.0,0.0,0.0,0.0,0.0,0.0,0.0,0.0,0.0,0.0,0.0,0.0,0.0,0.0,0.0,-1.5369,-1.5355,-1.4985,0.0,-1.4247,0.0,0.0,0.0,0.0,0.0,0.0,0.0,0.0,0.0,0.0,0.0,0.0,0.0,0.0,0.0,0.0,0.0,0.0,0.0,0.0,0.0,0.0,0.0,0.0,0.0,0.0,0.0,0.0,0.0,0.0,0.0,0.0,0.0,0.0,0.0,0.0,0.0,0.0,0.0,0.0,0.0,0.0,0.0,0.0,0.0,0.0,0.0,0.0,0.0,0.0,0.0,0.0,0.0,0.0,0.0,0.0,0.0,0.0,0.0,0.0,0.0,0.0,0.0,0.0,0.0,0.0,0.0,0.0,0.0,0.0,0.0,0.0,0.0,0.0,0.0,0.0,0.0,0.0,0.0,0.0,0.0,0.0,0.0,0.0,0.0,0.0,0.0,0.0,0.0,0.0,0.0,0.0,0.0,0.0,0.0,0.0,0.0,0.0,0.0,0.0,0.0,0.0,0.0,0.0,0.0,0.0,0.0,0.0,0.0,0.0,0.0,0.0,-1.4985,-1.4738,-1.4622,0.0,0.0,0.0,0.0,0.0,0.0,0.0,0.0,0.0,0.0,0.0,0.0,0.0,0.0,0.0,0.0,0.0,0.0,0.0,0.0,0.0,0.0,0.0,0.0,0.0,0.0,0.0,0.0,0.0,0.0,0.0,0.0,0.0,0.0,0.0,0.0,0.0,0.0,0.0,0.0,0.0,0.0,0.0,0.0,0.0,0.0,0.0,0.0,0.0,0.0,0.0,0.0,0.0,0.0,0.0,0.0,0.0,0.0,0.0,0.0,0.0,0.0,0.0,0.0,0.0,0.0,0.0,0.0,0.0,0.0,0.0,0.0,0.0,0.0,0.0,0.0,0.0,0.0,0.0,0.0,0.0,0.0,0.0,0.0,0.0,0.0,0.0,0.0,0.0,0.0,0.0,0.0,0.0,0.0,0.0,0.0,0.0,0.0,0.0,0.0,0.0,0.0,0.0,0.0,0.0,0.0,0.0,0.0,0.0,0.0,-1.5369,-1.5355,-1.4855,-1.4592,-1.4562,0.0,0.0,0.0,0.0,0.0,0.0,0.0,0.0,0.0,0.0,0.0,0.0,0.0,0.0,0.0,0.0,0.0,0.0,0.0,0.0,0.0,0.0,0.0,0.0,0.0,0.0,0.0,0.0,0.0,0.0,0.0,0.0,0.0,0.0,0.0,0.0,0.0,0.0,0.0,0.0,0.0,0.0,0.0,0.0,0.0,0.0,0.0,0.0,0.0,0.0,0.0,0.0,0.0,0.0,0.0,0.0,0.0,0.0,0.0,0.0,0.0,0.0,0.0,0.0,0.0,0.0,0.0,0.0,0.0,0.0,0.0,0.0,0.0,0.0,0.0,0.0,0.0,0.0,0.0,0.0,0.0,0.0,0.0,0.0,0.0,0.0,0.0,0.0,0.0,0.0,0.0,0.0,0.0,0.0,0.0,0.0,0.0,0.0,0.0,0.0,0.0,0.0,0.0,0.0,0.0,0.0,0.0,0.0,0.0,0.0,-1.5369,0.0,0.0,0.0,-1.4353,0.0,0.0,0.0,0.0,0.0,0.0,0.0,0.0,0.0,0.0,0.0,0.0,0.0,0.0,0.0,0.0,0.0,0.0,0.0,0.0,0.0,0.0,0.0,0.0,0.0,0.0,0.0,0.0,0.0,0.0,0.0,0.0,0.0,0.0,0.0,0.0,0.0,0.0,0.0,0.0,0.0,0.0,0.0,0.0,0.0,0.0,0.0,0.0,0.0,0.0,0.0,0.0,0.0,0.0,0.0,0.0,0.0,0.0,0.0,0.0,0.0,0.0,0.0,0.0,0.0,0.0,0.0,0.0,0.0,0.0,0.0,0.0,0.0,0.0,0.0,0.0,0.0,0.0,0.0,0.0,0.0,0.0,0.0,0.0,0.0,0.0,0.0,0.0,0.0,0.0,0.0,0.0,0.0,0.0,0.0,0.0,0.0,0.0,0.0,0.0,0.0,0.0,0.0,0.0,0.0,0.0,0.0,0.0,0.0,0.0,0.0,0.0,0.0,0.0,0.0,0.0,0.0,0.0,0.0,0.0,0.0,0.0,0.0,0.0,0.0,0.0,0.0,0.0,0.0,0.0,0.0,0.0,0.0,0.0,0.0,0.0,0.0,0.0,0.0,0.0,0.0,0.0,0.0,0.0,0.0,0.0,0.0,0.0,0.0,0.0,0.0,0.0,0.0,0.0,0.0,0.0,0.0,0.0,0.0,0.0,0.0,0.0,0.0,0.0,0.0,0.0,0.0,0.0,0.0,0.0,0.0,0.0,0.0,0.0,0.0,0.0,0.0,0.0,0.0,0.0,0.0,0.0,0.0,0.0,0.0,0.0,0.0,0.0,0.0,0.0,0.0,0.0,0.0,0.0,0.0,0.0,0.0,0.0,0.0,0.0,0.0,0.0,0.0,0.0,0.0,0.0,0.0,0.0,0.0,0.0,0.0,0.0,0.0,0.0,0.0,0.0,0.0,0.0,0.0,0.0,0.0,0.0,0.0,0.0,0.0,0.0,0.0,0.0,0.0,0.0,0.0,0.0,0.0,0.0,0.0,0.0,0.0,0.0,0.0,0.0,0.0,0.0,0.0,0.0,0.0,0.0,0.0,0.0,0.0,0.0,0.0,0.0,0.0,0.0,0.0,0.0,0.0,0.0,0.0,0.0,0.0,0.0,0.0,0.0,0.0,0.0,0.0,0.0,0.0,0.0,0.0,0.0,0.0,0.0,0.0,0.0,0.0,0.0,0.0,0.0,0.0,0.0,0.0,0.0,0.0,0.0,0.0,0.0,0.0,0.0,0.0,0.0,0.0,0.0,0.0,0.0,0.0,0.0,0.0,0.0,0.0,0.0,0.0,0.0,0.0,0.0,0.0,0.0,0.0,0.0,0.0,0.0,0.0,0.0,0.0,0.0,0.0,0.0,0.0,0.0,0.0,0.0,0.0,0.0,0.0,0.0,0.0,0.0,0.0,0.0,0.0,0.0,0.0,0.0,0.0,0.0,0.0,0.0,0.0,0.0,0.0,0.0,0.0,0.0,0.0,0.0,0.0,0.0,0.0,0.0,0.0,0.0,0.0,0.0,0.0,0.0,0.0,0.0,0.0,0.0,0.0,0.0,0.0,0.0,0.0,0.0,0.0,0.0,0.0,0.0,0.0,0.0,0.0,0.0,0.0,0.0,0.0,0.0,0.0,0.0,0.0,0.0,0.0,0.0,0.0,0.0,0.0,0.0,0.0,0.0,0.0,0.0,0.0,0.0,0.0,0.0,0.0,0.0,0.0,0.0,0.0,0.0,0.0,0.0,0.0,0.0,0.0,0.0,0.0,0.0,0.0,0.0,0.0,0.0,0.0,0.0,0.0,0.0,0.0,0.0,0.0,0.0,0.0,0.0,0.0,0.0,0.0,0.0,0.0,0.0,0.0,0.0,0.0,0.0,0.0,0.0,0.0,0.0,0.0,0.0,0.0,0.0,0.0,0.0,0.0,0.0,0.0,0.0,0.0,0.0,0.0,0.0,0.0,0.0,0.0,0.0,0.0,0.0,0.0,0.0,0.0,0.0,0.0,0.0,0.0,0.0,0.0,0.0,0.0,0.0,0.0,0.0,0.0,0.0,0.0,0.0,0.0,0.0,0.0,0.0,0.0,0.0,0.0,0.0,0.0,0.0,0.0,0.0,0.0,0.0,0.0,0.0,0.0,0.0,0.0,0.0,0.0,0.0,0.0,0.0,0.0,0.0,0.0,0.0,0.0,0.0,0.0,0.0,0.0,0.0,0.0,0.0,0.0,0.0,0.0,0.0,0.0,0.0,0.0,0.0,0.0,0.0,0.0,0.0,0.0,0.0,0.0,0.0,0.0,0.0,0.0,0.0,0.0,0.0,0.0,0.0,0.0,0.0,0.0,0.0,0.0,0.0,0.0,0.0,0.0,0.0,0.0,0.0,0.0,0.0,0.0,0.0,0.0,0.0,0.0,0.0,0.0,0.0,0.0,0.0,0.0,0.0,0.0,0.0,0.0,0.0,0.0,0.0,0.0,0.0,0.0,0.0,0.0,0.0,0.0,0.0,0.0,0.0,0.0,0.0,0.0,0.0,0.0,0.0,0.0,0.0,0.0,0.0,0.0,0.0,0.0,0.0,0.0,0.0,0.0,0.0,0.0,0.0,0.0,0.0,0.0,0.0,0.0,0.0,0.0,0.0,0.0,0.0,0.0,0.0,0.0,0.0,0.0,0.0,0.0,0.0,0.0,0.0,0.0,0.0,0.0,0.0,0.0,0.0,0.0,0.0,0.0,0.0,0.0,0.0,0.0,0.0,0.0,0.0,0.0,0.0,0.0,0.0,0.0,0.0,0.0,0.0,0.0,0.0,0.0,0.0,0.0,0.0,0.0,0.0,0.0,0.0,0.0,0.0,0.0,0.0,0.0,0.0,0.0,0.0,0.0,0.0,0.0,0.0,0.0,0.0,0.0,0.0,0.0,0.0,0.0,0.0,0.0,0.0,0.0,0.0,0.0,0.0,0.0,0.0,0.0,0.0,0.0,0.0,0.0,0.0,0.0,0.0,0.0,0.0,0.0,0.0,0.0,0.0,0.0,0.0,0.0,0.0,0.0,0.0,0.0,0.0,0.0,0.0,0.0,0.0,0.0,0.0,0.0,0.0,0.0,0.0,0.0,0.0,0.0,0.0,0.0,0.0,0.0,0.0,0.0,0.0,0.0,0.0,0.0,0.0,0.0,0.0,0.0,0.0,0.0,0.0,0.0,0.0,0.0,0.0,0.0,0.0,0.0,0.0,0.0,0.0,0.0,0.0,0.0,0.0,0.0,0.0,0.0,0.0,0.0,0.0,0.0,0.0,0.0,0.0,0.0,0.0,0.0,0.0,0.0,0.0,0.0,0.0,0.0,0.0,0.0,0.0,0.0,0.0,0.0,0.0,0.0,0.0,0.0,0.0,0.0,0.0,0.0,0.0,0.0,0.0,0.0,0.0,0.0,0.0,0.0,0.0,0.0,0.0,0.0,0.0,0.0,0.0,0.0,0.0,0.0,0.0,0.0,0.0,0.0,0.0,0.0,0.0,0.0,0.0,0.0,0.0,0.0,0.0,0.0,0.0,0.0,0.0,0.0,0.0,0.0,0.0,0.0,0.0,0.0,0.0,0.0,0.0,0.0,0.0,0.0,0.0,0.0,0.0,0.0,0.0,0.0,0.0,0.0,0.0,0.0,0.0,0.0,0.0,0.0,0.0,0.0,0.0,0.0,0.0,0.0,0.0,0.0,0.0,0.0,0.0,0.0,0.0,0.0,0.0,0.0,0.0,0.0,0.0,0.0,0.0,0.0,0.0,0.0,0.0,0.0,0.0,0.0,0.0,0.0,0.0,0.0,0.0,0.0,0.0,0.0,0.0,0.0,0.0,0.0,0.0,0.0,0.0,0.0,0.0,0.0,0.0,0.0,0.0,0.0,0.0,0.0,0.0,0.0,0.0,0.0,0.0,0.0,0.0,0.0,0.0,0.0,0.0,0.0,0.0,0.0,0.0,0.0,0.0,0.0,0.0,0.0,0.0,0.0,0.0,0.0,0.0,0.0,0.0,0.0,0.0,0.0,0.0,0.0,0.0,0.0,0.0,0.0,0.0,0.0,0.0,0.0,0.0,0.0,0.0,0.0,0.0,0.0,0.0,0.0,0.0,0.0,0.0,0.0,0.0,0.0,0.0,0.0,0.0,0.0,0.0,0.0,0.0,0.0,0.0,0.0,0.0,0.0,0.0,0.0,0.0,0.0,0.0,0.0,0.0,0.0,0.0,0.0,0.0,0.0,0.0,0.0,0.0,0.0,0.0,0.0,0.0,0.0,0.0,0.0,0.0,0.0,0.0,0.0,0.0,0.0,0.0]}],[{"header":{"parameterUnit":"kt","parameterCategory":2,"dx":1,"dy":1,"la1":29.587661999999998,"la2":31.0,"lo1":-88.76705300000003,"lo2":-86.6583820000003,"nx":115,"ny":88,"refTime":"2022-10-07T12:00:00:Z","depth":0,"parameterNumber":2,"parameterNumberName":"V-component_of_WINDS"},"data":[5.2231,5.1932,5.2304,5.2417,5.2509,5.29,5.3105,5.3105,5.3105,5.3105,5.3105,5.3105,5.3105,5.3105,5.3105,5.3105,5.3105,5.3105,5.3105,5.3105,5.3105,5.3105,5.3166,5.3287,5.3476,5.3777,5.4119,5.4582,5.5246,5.527,5.5447,5.5789,5.5749,5.5729,5.5709,5.5769,5.593,5.597,5.591,5.5689,5.6344,5.7542,5.8756,6.0498,6.2328,6.3669,6.4388,6.4388,6.4388,6.4388,6.451,6.4559,6.473,6.4852,6.5036,6.5561,6.5877,6.6833,6.8028,6.9443,7.0842,7.1558,7.2643,7.3442,7.3671,7.3671,7.3671,7.3671,7.3671,7.3671,7.3671,7.3671,7.3671,7.3671,7.3824,7.5043,7.6314,7.705,7.8016,7.9337,8.0302,8.0302,8.0302,8.0302,8.0302,8.0302,8.0302,8.0302,8.0302,8.0302,8.0302,8.0302,8.0302,8.0302,8.0302,8.0302,8.0302,8.0302,8.0302,8.0302,8.0302,8.0302,8.0302,8.0302,8.0302,8.0302,8.0302,8.0302,8.0302,8.0302,8.0302,8.0302,8.0302,8.0496,8.1219,4.9339,4.799,4.9642,5.0321,5.0603,5.2231,5.3013,5.3105,5.3105,5.3105,5.3105,5.3105,5.3105,5.3105,5.3105,5.3105,5.3105,5.3105,5.3105,5.3105,5.3105,5.3105,5.3105,5.3105,5.3226,5.3347,5.3408,5.3858,5.4441,5.4502,5.4803,5.5487,5.5628,5.5588,5.5628,5.5588,5.5367,5.5266,5.5145,5.5005,5.585,5.7179,5.8337,6.0072,6.2073,6.4112,6.4388,6.4388,6.4388,6.4388,6.4388,6.4388,6.4388,6.4412,6.4656,6.4681,6.4936,6.5619,6.666,6.8065,6.9468,7.0993,7.2326,7.3123,7.3557,7.3671,7.3671,7.3671,7.3671,7.3671,7.3671,7.3671,7.3671,7.3697,7.3976,7.4535,7.578,7.6923,7.8397,7.9972,8.0302,8.0302,8.0302,8.0302,8.0302,8.0302,8.0302,8.0302,8.0302,8.0302,8.0302,8.0302,8.0302,8.0302,8.0302,8.0302,8.0302,8.0302,8.0302,8.0302,8.0302,8.0302,8.0302,8.0302,8.0302,8.0302,8.0302,8.0302,8.0302,8.0302,8.0302,8.0302,8.0302,8.0568,8.1481,4.7703,4.7015,4.7913,4.8884,5.0038,5.0904,5.2025,5.29,5.3105,5.3105,5.3105,5.3105,5.3105,5.3105,5.3105,5.3105,5.3105,5.3105,5.3105,5.3105,5.3105,5.3105,5.3105,5.3105,5.3105,5.3105,5.3105,5.3186,5.3476,5.3636,5.3697,5.3979,5.4079,5.4059,5.4099,5.4119,5.4079,5.42,5.4079,5.3898,5.4002,5.6654,5.8624,5.9807,6.1816,6.3861,6.4388,6.4388,6.4388,6.4388,6.4388,6.4388,6.4388,6.4388,6.4388,6.4388,6.4437,6.4691,6.5496,6.6636,6.8041,6.9517,7.0904,7.2552,7.3036,7.3582,7.3671,7.3671,7.3671,7.3671,7.3671,7.3671,7.3671,7.3671,7.3875,7.4027,7.484,7.6441,7.827,7.9718,8.0302,8.0302,8.0302,8.0302,8.0302,8.0302,8.0302,8.0302,8.0302,8.0302,8.0302,8.0302,8.0302,8.0302,8.0302,8.0302,8.0302,8.0302,8.0302,8.0302,8.0302,8.0302,8.0302,8.0302,8.0302,8.0302,8.0302,8.0302,8.0302,8.0302,8.0302,8.0302,8.0302,8.0399,8.2315,4.5763,4.5376,4.5393,4.6552,4.839,4.9471,5.0904,5.2231,5.1839,5.1726,5.2211,5.2324,5.2509,5.2993,5.3105,5.3105,5.3105,5.3105,5.3105,5.3105,5.3105,5.3105,5.3105,5.3105,5.3105,5.3105,5.3105,5.3125,5.3226,5.3186,5.3146,5.3166,5.3267,5.3367,5.3367,5.3347,5.3367,5.3448,5.3408,5.3327,5.3741,5.6307,5.8844,5.9894,6.2011,6.4137,6.4388,6.4388,6.4388,6.4388,6.4388,6.4388,6.4388,6.4388,6.4388,6.4388,6.4388,6.4437,6.4936,6.5864,6.7202,6.8536,7.0016,7.1481,7.2566,7.3226,7.3671,7.3671,7.3671,7.3671,7.3671,7.3671,7.3671,7.3671,7.3697,7.3697,7.3748,7.5805,7.7939,7.9108,8.0099,8.0302,8.0302,8.0302,8.0302,8.0205,8.0205,8.0205,8.0205,8.0107,8.0107,8.0205,8.0205,8.0302,8.0302,8.0302,8.0302,8.0302,8.0302,8.0302,8.0302,8.0302,8.0302,8.0302,8.0302,8.0302,8.0302,8.0302,8.0302,8.0302,8.0302,8.0302,8.0302,8.0949,8.3248,4.2904,4.124,4.1141,4.2609,4.465,4.8217,4.9755,4.9944,4.8371,4.8466,5.0019,5.0132,5.1165,5.2417,5.2622,5.2715,5.3105,5.3105,5.3105,5.3105,5.3105,5.3105,5.3105,5.3105,5.3105,5.3105,5.3105,5.3105,5.3105,5.3105,5.3105,5.3105,5.3105,5.3105,5.3105,5.3105,5.3105,5.3105,5.3105,5.3198,5.4149,5.6264,5.8821,5.937,6.1925,6.4388,6.4388,6.4388,6.4388,6.4388,6.4388,6.4388,6.4388,6.4388,6.4388,6.4388,6.4388,6.4388,6.4656,6.5279,6.6551,6.8102,6.974,7.1079,7.2186,7.2997,7.3531,7.3671,7.3671,7.3671,7.3671,7.3671,7.3671,7.3671,7.3671,7.3671,7.4154,7.5678,7.7558,7.8752,7.9667,8.0302,8.0302,8.0302,8.0302,8.0107,8.001,8.0107,7.9984,7.9887,7.9984,8.0205,8.0205,8.0302,8.0302,8.0302,8.0302,8.0302,8.0302,8.0302,8.0302,8.0302,8.0302,8.0302,8.0302,8.0302,8.0302,8.0302,8.0302,8.0302,8.0302,8.0302,8.0949,8.1942,8.3756,4.1355,4.0674,4.0674,4.1057,4.2329,4.4942,4.6184,4.6299,4.6745,4.7207,4.8008,4.8085,4.9244,5.0978,5.1278,5.1745,5.2808,5.2602,5.2715,5.2715,5.3105,5.29,5.2993,5.3105,5.2993,5.3105,5.3105,5.3105,5.3105,5.3105,5.3105,5.3105,5.3105,5.3105,5.3105,5.3105,5.3105,5.3105,5.3105,5.3105,5.4515,5.6624,5.8116,5.9458,6.2437,6.3945,6.4388,6.4388,6.4388,6.4388,6.4388,6.4388,6.4388,6.4388,6.4388,6.4388,6.4388,6.4388,6.4461,6.4817,6.5976,6.7497,6.8945,7.0278,7.1356,7.2577,7.3213,7.3493,7.3582,7.3671,7.3671,7.3671,7.3671,7.3671,7.3671,7.3671,7.4688,7.5831,7.7076,7.832,7.9286,8.0022,8.0205,8.0302,8.0107,7.9495,7.9274,7.9176,7.8954,7.9176,7.9593,8.0107,8.0205,8.0302,8.0302,8.0302,8.0302,8.0302,8.0302,8.0302,8.0302,8.0302,8.0302,8.0302,8.0302,8.0302,8.0302,8.0302,8.0302,8.0302,8.0302,8.0491,8.1179,8.2279,8.3871,4.0674,4.0674,4.0674,4.0674,4.0858,4.223,4.2806,4.3003,4.4341,4.549,4.5991,4.5956,4.7129,4.8979,4.9073,4.9906,5.0658,5.1239,5.1352,5.1146,5.0677,5.1446,5.1932,5.2045,5.2602,5.2808,5.3105,5.3105,5.3105,5.3105,5.3105,5.3105,5.3105,5.3105,5.3105,5.3105,5.3105,5.3105,5.3105,5.3105,5.4078,5.5994,5.7584,5.9173,6.1816,6.35,6.4112,6.4388,6.4388,6.4388,6.4388,6.4388,6.4388,6.4388,6.4388,6.4388,6.4388,6.4388,6.4388,6.4388,6.5145,6.6784,6.8139,6.9219,7.0414,7.1704,7.2879,7.2994,7.3199,7.3467,7.3557,7.3493,7.3403,7.3582,7.3671,7.3773,7.418,7.5399,7.6745,7.8041,7.9464,8.0002,7.9984,7.9887,7.9053,7.8436,7.7941,7.7618,7.7618,7.8535,7.9176,8.001,8.0302,8.0302,8.0302,8.0302,8.0302,8.0302,8.0302,8.0302,8.0302,8.0302,8.0302,8.0302,8.0302,8.0302,8.0302,8.0302,8.0302,8.0302,8.0099,8.0673,8.1294,8.2451,8.3903,4.0674,4.0674,4.0674,4.0674,4.0674,4.0873,4.0858,4.0858,4.0957,4.2132,4.3788,4.3869,4.5022,4.6631,4.6937,4.7321,4.7703,4.7895,4.7895,4.7781,4.8657,4.9055,4.9736,5.0132,5.1091,5.2231,5.2808,5.2529,5.3105,5.3105,5.3105,5.3105,5.3105,5.3105,5.3105,5.3105,5.3105,5.3105,5.3105,5.3105,5.371,5.5383,5.7317,5.9085,6.113,6.297,6.3861,6.4388,6.4388,6.4388,6.4388,6.4388,6.4388,6.4388,6.4388,6.4388,6.4388,6.4388,6.4388,6.4388,6.5061,6.5878,6.7362,6.862,6.9808,7.1156,7.2229,7.2609,7.2724,7.3084,7.3378,7.3289,7.3199,7.3493,7.3671,7.3824,7.4078,7.5196,7.6568,7.7453,7.8774,7.9976,7.9959,7.8954,7.8015,7.7394,7.6769,7.6669,7.804,7.8757,7.8658,7.9593,8.0302,8.0302,8.0302,8.0302,8.0302,8.0302,8.0302,8.0302,8.0302,8.0302,8.0302,8.0302,8.0302,8.0302,8.0302,8.0302,8.0277,7.9997,7.9718,8.004,8.0189,8.1592,8.2906,4.0674,4.0674,4.0674,4.0674,4.0674,4.0674,4.0674,4.0674,4.0674,4.0957,4.1637,4.1835,4.3003,4.4358,4.4925,4.5216,4.7015,4.799,4.858,4.7111,4.799,4.8276,4.8085,4.8085,4.9263,5.0528,5.1185,5.1932,5.2808,5.2993,5.3105,5.3105,5.3105,5.3105,5.3105,5.3105,5.3105,5.3105,5.3105,5.3105,5.3874,5.5633,5.785,5.926,6.1302,6.35,6.4137,6.4388,6.4388,6.4388,6.4388,6.4388,6.4388,6.4388,6.4388,6.4388,6.4388,6.4388,6.4388,6.4388,6.4559,6.5061,6.6685,6.79,6.8891,7.0534,7.1563,7.2133,7.2223,7.2519,7.3019,7.3084,7.3199,7.3518,7.3697,7.3671,7.4154,7.5612,7.6863,7.6449,7.7358,7.9183,8.0107,7.8634,7.707,7.6343,7.5637,7.7294,7.8757,7.8238,7.804,7.9372,8.0302,8.0302,8.0302,8.0302,8.0302,8.0302,8.0302,8.0302,8.0302,8.0302,8.0302,8.0302,8.0302,8.0302,8.0302,8.0226,8.0099,7.987,7.9159,7.8905,7.9286,8.0158,8.1208,4.0674,4.0674,4.0674,4.0674,4.0674,4.0674,4.0674,4.0674,4.0674,4.1057,4.1454,4.0758,4.2033,4.3771,4.4553,4.4553,4.578,4.753,4.753,4.578,4.578,4.6745,4.7512,4.7225,4.7339,4.9263,5.0038,5.0884,5.2118,5.29,5.2993,5.3105,5.3105,5.3105,5.3105,5.3105,5.3105,5.3105,5.3105,5.3178,5.3434,5.5904,5.7917,5.8799,6.1474,6.3416,6.428,6.4388,6.4388,6.4388,6.4388,6.4388,6.4388,6.4388,6.4388,6.4388,6.4388,6.4388,6.4388,6.4388,6.4388,6.4963,6.6134,6.7627,6.8121,6.9928,7.1085,7.1679,7.1679,7.1951,7.2454,7.2634,7.2904,7.3314,7.3582,7.3582,7.4191,7.5764,7.6488,7.5923,7.6484,7.8358,7.947,7.8634,7.6669,7.5512,7.4801,7.6065,7.8015,7.7618,7.804,7.947,8.0205,8.0205,8.0302,8.0302,8.0302,8.0302,8.0302,8.0302,8.0302,8.0302,8.0302,8.0302,8.0302,8.0302,8.0302,8.0251,8.0048,7.9057,7.7609,7.7005,7.8619,7.9926,8.0625,4.0674,4.0674,4.0674,4.0674,4.0674,4.0674,4.0674,4.0674,4.0674,4.1553,4.2625,4.1438,4.2691,4.5119,4.426,4.4277,4.4748,4.5022,4.4925,4.4828,4.4828,4.5701,4.6474,4.657,4.6088,4.8979,4.9547,4.9547,5.0321,5.2138,5.2993,5.3105,5.3105,5.3105,5.3105,5.3105,5.3105,5.3105,5.3105,5.327,5.3874,5.5564,5.7673,5.9173,6.1474,6.3223,6.4029,6.4388,6.4388,6.4388,6.4388,6.4388,6.4388,6.4388,6.4388,6.4388,6.4388,6.4388,6.4388,6.4388,6.4388,6.4656,6.6256,6.7403,6.7916,6.9373,7.104,7.129,7.1107,7.1315,7.177,7.2158,7.2519,7.2814,7.3199,7.353,7.4137,7.5302,7.5466,7.5218,7.6338,7.7593,7.8337,7.8114,7.594,7.4597,7.3857,7.4801,7.6769,7.7493,7.8658,7.9691,8.0205,8.0205,8.0302,8.0302,8.0302,8.0302,8.0302,8.0302,8.0302,8.0302,8.0302,8.0302,8.0124,7.9718,7.9946,8.0099,7.8828,7.7533,7.611,7.605,7.8394,8.013,8.0884,4.0674,4.0674,4.0674,4.0674,4.0674,4.0674,4.0674,4.0674,4.0674,4.1072,4.1454,4.1057,4.2214,4.3869,4.3984,4.4358,4.578,4.6859,4.6745,4.6456,4.6167,4.7321,4.6745,4.578,4.5119,4.7033,4.7895,4.8789,4.9755,5.2025,5.2788,5.2993,5.3105,5.3105,5.3105,5.3105,5.3105,5.3105,5.3178,5.3526,5.5041,5.6713,5.8645,6.0242,6.2267,6.3669,6.4112,6.4388,6.4388,6.4388,6.4388,6.4388,6.4388,6.4388,6.4388,6.4388,6.4388,6.4388,6.4388,6.4388,6.4388,6.4656,6.6281,6.7257,6.7989,6.947,7.0692,7.0924,7.0833,7.0924,7.1381,7.1654,7.1951,7.2429,7.2814,7.298,7.3725,7.4858,7.4823,7.4855,7.602,7.7318,7.7418,7.6166,7.429,7.3033,7.2307,7.2722,7.4675,7.6243,7.7692,7.8757,7.9495,7.9887,8.0205,8.0302,8.0302,8.0302,8.0302,8.0302,8.0302,8.0302,8.0302,7.9921,7.9514,7.9184,7.8752,7.8219,7.7177,7.6034,7.5683,7.5318,7.7482,7.8939,8.0192,4.0674,4.0674,4.0674,4.0674,4.0674,4.0674,4.0674,4.0674,4.0674,4.0674,4.0674,4.0758,4.223,4.4065,4.4455,4.4828,4.6823,4.8276,4.8371,4.839,4.858,4.896,4.8181,4.6649,4.4731,4.6342,4.607,4.6763,4.8884,5.0584,5.1819,5.288,5.3105,5.3105,5.3105,5.3105,5.3105,5.3105,5.3178,5.3434,5.5222,5.7049,5.926,6.0589,6.2692,6.422,6.4388,6.4388,6.4388,6.4388,6.4388,6.4388,6.4388,6.4388,6.4388,6.4388,6.4388,6.4388,6.4388,6.4388,6.4388,6.4743,6.6159,6.7413,6.7535,6.9453,7.0545,7.079,7.079,7.0765,7.1132,7.129,7.1472,7.1951,7.2248,7.2339,7.3179,7.4604,7.5057,7.4691,7.5726,7.6247,7.5256,7.4006,7.2538,7.1263,7.0655,7.055,7.2076,7.3628,7.5512,7.6769,7.7817,7.8436,7.9666,8.0082,8.0302,8.0302,8.0302,8.0302,8.0302,8.0226,7.9565,7.9235,7.8828,7.8295,7.7558,7.6568,7.5729,7.5018,7.4806,7.4935,7.6102,7.7464,7.9917,4.0674,4.0674,4.0674,4.0559,4.0575,4.0575,4.0575,4.0475,4.0575,4.0575,4.0475,4.0758,4.279,4.5119,4.465,4.4925,4.6823,4.6823,4.8085,4.858,4.8276,4.9131,4.8941,4.6937,4.465,4.5763,4.5684,4.578,4.7111,4.9528,5.1259,5.2808,5.3105,5.3105,5.3105,5.3105,5.3105,5.3105,5.3105,5.327,5.4677,5.6713,5.8909,5.9871,6.2352,6.4388,6.4388,6.4388,6.4388,6.4388,6.4388,6.4388,6.4388,6.4388,6.4388,6.4388,6.4388,6.4388,6.4388,6.4388,6.4388,6.4865,6.5842,6.6877,6.7462,6.9478,7.0594,7.079,7.079,7.079,7.0857,7.104,7.129,7.1588,7.177,7.1861,7.2573,7.3876,7.4109,7.4429,7.4206,7.3686,7.2769,7.0678,6.9003,6.8275,6.7651,6.7629,6.9279,7.0821,7.2803,7.4801,7.5965,7.7544,7.8904,7.9562,7.9824,7.9895,7.9743,7.9819,7.9794,7.9235,7.8403,7.8117,7.766,7.7228,7.6669,7.5602,7.4662,7.3951,7.3964,7.4562,7.55,7.7272,7.9999,4.0674,4.0674,4.0674,4.0375,4.0075,4.0075,4.0091,4.0091,4.0075,4.0075,4.0191,4.0575,4.2033,4.3886,4.4065,4.4633,4.6727,4.6823,4.8181,4.8675,4.839,4.8543,4.8466,4.6552,4.4065,4.4438,4.5022,4.607,4.7321,4.896,5.0978,5.2993,5.3105,5.3105,5.3105,5.3105,5.3105,5.3105,5.3105,5.371,5.502,5.7406,5.915,6.0934,6.28,6.4388,6.4388,6.4388,6.4388,6.4388,6.4388,6.4388,6.4388,6.4388,6.4388,6.4388,6.4388,6.4388,6.4388,6.4388,6.4388,6.4534,6.5061,6.6061,6.733,6.9405,7.079,7.079,7.079,7.079,7.079,7.0882,7.0949,7.1016,7.1016,7.129,7.1568,7.1511,7.1615,7.1839,7.1682,7.1191,6.9535,6.7348,6.6196,6.5472,6.5142,6.5142,6.6263,6.7694,7.0022,7.2561,7.4141,7.6226,7.7595,7.8727,7.9154,7.9337,7.9032,7.8803,7.827,7.7736,7.7406,7.6898,7.6364,7.5983,7.5704,7.4662,7.3671,7.3824,7.4066,7.4394,7.5457,7.7442,7.9835,4.0226,4.0242,4.0252,4.0075,3.9891,3.9891,3.9891,3.9891,4.0075,4.0175,4.0275,4.0575,4.1256,4.2132,4.2412,4.3559,4.5102,4.5411,4.6649,4.7703,4.7608,4.7494,4.7626,4.5411,4.3788,4.4162,4.4925,4.5877,4.7416,4.896,5.0998,5.2808,5.3105,5.3105,5.3105,5.3105,5.3105,5.3105,5.3178,5.3618,5.502,5.7139,5.9173,6.0242,6.2861,6.4112,6.4388,6.4388,6.4388,6.4388,6.4388,6.4388,6.4388,6.4388,6.4388,6.4388,6.4388,6.4388,6.4388,6.4388,6.4388,6.4412,6.4559,6.528,6.733,6.9356,7.079,7.079,7.079,7.079,7.079,7.079,7.0465,6.9888,6.9307,6.9028,6.8279,6.8609,6.9162,6.9183,6.9185,6.7882,6.6372,6.5231,6.4791,6.4391,6.428,6.428,6.4881,6.5613,6.7479,7.0039,7.2399,7.4789,7.6262,7.7712,7.8102,7.8168,7.7863,7.7609,7.6949,7.6491,7.6314,7.5907,7.5348,7.4916,7.4586,7.4078,7.3722,7.3913,7.4243,7.4933,7.5726,7.7811,8.0435,3.9501,3.9701,3.9809,3.9815,3.9775,3.9791,3.9791,3.9775,4.0275,4.0559,4.0375,4.0575,4.0575,4.0758,4.0758,4.1736,4.2904,4.3494,4.4536,4.6053,4.5763,4.5684,4.607,4.4358,4.3101,4.3101,4.3575,4.4828,4.636,4.8694,5.0904,5.2231,5.2715,5.3105,5.3105,5.3105,5.3105,5.3105,5.3105,5.3105,5.3802,5.6534,5.8116,5.9632,6.184,6.3945,6.4304,6.4388,6.4388,6.4388,6.4388,6.4388,6.4388,6.4388,6.4388,6.4388,6.4388,6.4388,6.4388,6.4388,6.4388,6.4388,6.4388,6.5475,6.7135,6.9087,7.0228,7.0594,7.079,7.079,7.079,7.049,6.9448,6.8585,6.7715,6.6364,6.5609,6.6504,6.6712,6.6773,6.638,6.4968,6.4461,6.3928,6.3484,6.3504,6.3504,6.3615,6.3757,6.3825,6.5083,6.7858,7.0291,7.2835,7.465,7.6321,7.6772,7.6872,7.672,7.6618,7.5932,7.5374,7.5196,7.4992,7.4408,7.3926,7.4002,7.3976,7.3773,7.4066,7.4845,7.5553,7.6278,7.8733,8.1302,3.8762,3.964,3.9697,3.9459,3.9315,3.9675,3.9575,3.9345,3.9775,4.0075,4.0091,4.0375,4.0375,4.0175,4.0475,4.0774,4.1156,4.1355,4.251,4.3755,4.3085,4.2986,4.3379,4.2412,4.1438,4.1835,4.2707,4.3984,4.5234,4.8008,4.9849,5.1091,5.2509,5.3105,5.3105,5.3105,5.3105,5.3105,5.3105,5.3105,5.3526,5.5201,5.7071,5.8821,6.0848,6.2777,6.3921,6.4196,6.4388,6.4388,6.4388,6.4388,6.4388,6.4388,6.4388,6.4388,6.4388,6.4388,6.4388,6.4388,6.4388,6.4388,6.4388,6.55,6.7062,6.8136,6.899,7.0399,7.079,7.079,7.0582,6.9331,6.828,6.7314,6.6173,6.4894,6.4308,6.3978,6.4189,6.4202,6.3563,6.3434,6.3877,6.3464,6.3203,6.3183,6.3032,6.3092,6.2911,6.273,6.3427,6.6003,6.8267,7.0845,7.3099,7.4703,7.5252,7.5378,7.5393,7.5409,7.4825,7.4408,7.4256,7.4205,7.3671,7.3697,7.3671,7.3671,7.3671,7.4154,7.5318,7.645,7.7811,7.9917,8.2023,3.7956,3.8428,3.9087,3.8877,3.85,3.941,3.956,3.9245,3.986,4.0091,3.9991,4.0075,3.9976,3.966,3.976,4.006,4.016,4.0275,4.0957,4.1835,4.1256,4.1355,4.1851,4.124,4.0659,4.0957,4.1637,4.2609,4.3984,4.6937,4.8865,5.0038,5.2045,5.3085,5.3105,5.3105,5.3105,5.3105,5.3105,5.3105,5.327,5.3894,5.5473,5.7495,5.9784,6.1731,6.297,6.3585,6.4388,6.4388,6.4388,6.4388,6.4388,6.4388,6.4388,6.4388,6.4388,6.4388,6.4388,6.4388,6.4388,6.4388,6.4388,6.5353,6.6818,6.7608,6.8575,7.013,7.079,7.079,7.0582,6.9912,6.8186,6.665,6.531,6.3662,6.2128,6.1421,6.1805,6.2339,6.2151,6.2351,6.2972,6.3193,6.3012,6.2791,6.2509,6.2328,6.2167,6.2229,6.2375,6.448,6.6102,6.8734,7.1245,7.2737,7.357,7.3876,7.3982,7.4087,7.3848,7.4002,7.3824,7.3671,7.3671,7.3671,7.3671,7.3671,7.3671,7.3824,7.5753,7.7642,7.9175,8.0761,8.2578,3.7156,3.6876,3.7978,3.7925,3.7517,3.8827,3.9165,3.8996,3.9785,4.006,3.9775,3.9675,3.946,3.9245,3.9144,3.936,3.9675,3.9775,3.996,4.036,4.036,4.026,4.0559,4.036,4.036,4.0459,4.0544,4.1224,4.2888,4.5199,4.7015,4.9263,5.1278,5.2788,5.29,5.3105,5.3105,5.3105,5.3105,5.3105,5.3105,5.3362,5.424,5.6196,5.8997,6.0848,6.1754,6.3247,6.4388,6.4388,6.4388,6.4388,6.4388,6.4388,6.4388,6.4388,6.4388,6.4388,6.4388,6.4388,6.4388,6.4388,6.4388,6.5329,6.6842,6.7535,6.8575,6.9941,7.049,6.9912,6.9819,6.8256,6.7007,6.5094,6.3271,6.1914,5.9704,5.9216,6.0027,6.0902,6.1056,6.1201,6.1885,6.2308,6.2167,6.1966,6.1785,6.1664,6.1483,6.1628,6.1877,6.2949,6.4294,6.6899,6.9526,7.0985,7.2407,7.2819,7.3361,7.335,7.3594,7.3697,7.3671,7.3671,7.3671,7.3671,7.3671,7.3671,7.3761,7.4002,7.6297,7.8733,8.0053,8.1326,8.3157,3.5815,3.6352,3.6452,3.6571,3.6718,3.7864,3.8145,3.7824,3.8792,3.927,3.9245,3.926,3.9144,3.9029,3.9029,3.9044,3.9144,3.9144,3.9345,3.9445,3.9445,3.9545,3.9545,3.966,3.966,3.9345,3.9445,3.9545,4.0612,4.2265,4.4874,4.6823,4.915,5.1165,5.2695,5.3085,5.3105,5.3105,5.3105,5.3105,5.3105,5.3105,5.3894,5.5654,5.8116,5.9871,6.1302,6.3054,6.4388,6.4388,6.4388,6.4388,6.4388,6.4388,6.4388,6.4388,6.4388,6.4388,6.4388,6.4388,6.4388,6.4388,6.4388,6.5353,6.6891,6.7559,6.8624,6.9365,6.9517,6.8092,6.5671,6.5094,6.3422,6.2069,6.0343,5.9176,5.8426,5.8385,5.9048,5.9732,6.0155,6.0577,6.1141,6.1443,6.1302,6.1181,6.1101,6.1,6.0925,6.0854,6.1349,6.2296,6.3537,6.574,6.818,6.9799,7.1504,7.2166,7.298,7.3249,7.3608,7.3671,7.3671,7.3671,7.3671,7.3671,7.3671,7.3671,7.3913,7.4268,7.5892,7.8231,8.0217,8.1966,8.3079,3.5259,3.5295,3.5896,3.5833,3.5712,3.6895,3.7286,3.7097,3.8061,3.8441,3.8286,3.8525,3.8441,3.8254,3.8254,3.8254,3.8254,3.8542,3.8843,3.9044,3.9044,3.9044,3.9144,3.9059,3.8958,3.8758,3.8843,3.9029,3.973,4.1375,4.3019,4.4193,4.7763,5.0,5.0939,5.2304,5.2993,5.3085,5.3105,5.3105,5.3105,5.3085,5.371,5.4606,5.7139,5.8997,6.0242,6.2716,6.4112,6.4388,6.4388,6.4388,6.4388,6.4388,6.4388,6.4388,6.4388,6.4388,6.4388,6.4388,6.4388,6.4388,6.4388,6.5524,6.6867,6.7413,6.855,6.9857,6.9702,6.8374,6.6341,6.4224,6.2562,6.1674,6.0522,5.956,5.8589,5.8304,5.8646,5.937,5.9612,6.0074,6.0356,6.0457,6.0396,6.0235,6.0175,5.9732,5.9592,5.98,6.0424,6.1717,6.2877,6.4708,6.7007,6.9028,7.0833,7.177,7.2634,7.3109,7.3493,7.3582,7.3671,7.3671,7.3671,7.3671,7.3671,7.3671,7.3761,7.4659,7.6065,7.7838,7.989,8.2125,8.3577,3.4615,3.4295,3.5247,3.5174,3.4704,3.5952,3.6338,3.6081,3.7121,3.7287,3.7125,3.7646,3.7721,3.7334,3.7477,3.7461,3.7663,3.7966,3.8355,3.8743,3.8743,3.8743,3.8642,3.8355,3.8154,3.8154,3.8542,3.8743,3.9044,4.0199,4.1558,4.2544,4.6018,4.8601,4.9566,5.1633,5.29,5.3085,5.3105,5.3105,5.3105,5.3085,5.3178,5.3434,5.5814,5.7673,5.9085,6.2328,6.428,6.4388,6.4388,6.4388,6.4388,6.4388,6.4388,6.4388,6.4388,6.4388,6.4388,6.4388,6.4388,6.4388,6.4461,6.5109,6.6964,6.7281,6.825,6.9158,6.9513,6.788,6.5744,6.4224,6.2189,6.0821,6.0343,5.9841,5.869,5.8304,5.8566,5.9089,5.931,5.9592,6.0175,5.9612,5.9431,5.929,5.8928,5.8445,5.8425,5.8525,5.9765,6.1395,6.2857,6.473,6.703,6.9052,7.0441,7.1472,7.2429,7.3019,7.3289,7.3467,7.3671,7.3671,7.3671,7.3671,7.3671,7.3671,7.4066,7.537,7.6615,7.851,8.0408,8.247,8.4177,3.3783,3.3692,3.3855,3.3778,3.3906,3.4539,3.4918,3.4938,3.559,3.5862,3.6005,3.6436,3.6707,3.6651,3.712,3.7433,3.7534,3.7649,3.7663,3.7764,3.7764,3.7764,3.7865,3.7764,3.7663,3.7663,3.7649,3.7764,3.8053,3.8441,3.9715,4.1672,4.429,4.6787,4.8714,5.1185,5.2456,5.292,5.2993,5.2993,5.3085,5.3105,5.3105,5.3178,5.424,5.5543,5.8821,6.2158,6.422,6.4304,6.4388,6.4196,6.4388,6.4388,6.4388,6.4388,6.4388,6.4388,6.4388,6.422,6.4196,6.4029,6.4112,6.489,6.5558,6.6313,6.6744,6.6821,6.5669,6.4812,6.2857,6.0643,5.956,5.9176,5.8792,5.869,5.8304,5.8304,5.8324,5.8425,5.8465,5.8445,5.8545,5.8505,5.8485,5.8747,5.8586,5.8304,5.8304,5.8304,5.9378,6.1,6.2857,6.4827,6.6958,6.8959,7.0072,7.1265,7.2248,7.2634,7.2904,7.3199,7.3467,7.3582,7.3493,7.3493,7.3582,7.4066,7.4545,7.5657,7.7587,7.9283,8.0951,8.3065,8.441,3.3601,3.3601,3.3601,3.3601,3.363,3.3871,3.3998,3.4204,3.4745,3.5029,3.5171,3.5698,3.5982,3.6039,3.6636,3.6907,3.7077,3.7305,3.7447,3.7461,3.7447,3.7447,3.7461,3.7461,3.7461,3.7461,3.7461,3.7461,3.7562,3.7764,3.8254,3.9815,4.2937,4.5262,4.6883,4.983,5.2084,5.2549,5.2622,5.2828,5.3085,5.3105,5.3105,5.3105,5.3178,5.4838,5.8557,6.2267,6.3753,6.2885,6.2716,6.3223,6.4112,6.4388,6.4388,6.4388,6.4388,6.4304,6.422,6.3247,6.2716,6.2522,6.1536,6.1728,6.2612,6.3481,6.4411,6.4362,6.4627,6.3454,6.1773,6.0722,5.966,5.8609,5.8304,5.8304,5.8304,5.8304,5.8304,5.8304,5.8304,5.8304,5.8324,5.8344,5.8324,5.8304,5.8304,5.8304,5.8304,5.8406,5.8994,6.0622,6.2365,6.4708,6.6935,6.828,6.9307,7.09,7.1861,7.2042,7.2223,7.2519,7.2904,7.3109,7.3199,7.3314,7.3493,7.3824,7.4577,7.606,7.8534,8.0303,8.1754,8.3488,8.4418,3.3601,3.3601,3.3601,3.3601,3.3601,3.3601,3.3601,3.3658,3.4204,3.4375,3.4517,3.5043,3.5328,3.5399,3.5982,3.6281,3.6423,3.6907,3.732,3.7219,3.7219,3.732,3.7219,3.7362,3.7461,3.7461,3.7461,3.7461,3.7461,3.7562,3.7966,3.8456,4.2446,4.4696,4.5763,4.9452,5.1411,5.2011,5.2197,5.2476,5.2828,5.2993,5.3085,5.3105,5.3105,5.4768,5.785,6.0675,6.1474,6.0675,6.0675,6.1474,6.2437,6.2607,6.2522,6.2522,6.2692,6.28,6.2522,6.1474,6.0761,6.0589,5.9697,5.9046,5.9784,6.07,6.1406,6.1841,6.2789,6.2552,6.1078,6.0422,5.9841,5.8609,5.8304,5.8304,5.8304,5.8304,5.8304,5.8304,5.8304,5.8304,5.8304,5.8304,5.8304,5.8304,5.8304,5.8304,5.8304,5.8406,5.9681,6.0921,6.2562,6.4805,6.6745,6.7786,6.9028,7.0808,7.1356,7.1563,7.1745,7.1992,7.2354,7.2854,7.3073,7.2922,7.3176,7.3366,7.4597,7.552,7.7613,7.9113,8.0997,8.28,8.3626,3.3601,3.3601,3.3601,3.3601,3.3601,3.3601,3.3601,3.3601,3.3686,3.3715,3.3814,3.4432,3.4688,3.483,3.5342,3.5627,3.574,3.6295,3.6565,3.6508,3.6565,3.6565,3.6622,3.7035,3.7262,3.7376,3.7433,3.7461,3.7461,3.7461,3.8456,4.0015,4.2462,4.4891,4.6919,4.9547,5.1111,5.1598,5.2011,5.229,5.2383,5.2715,5.3085,5.3105,5.3105,5.4057,5.5925,5.6624,5.7339,5.8557,5.8734,5.8997,5.9173,5.9085,5.9435,5.9522,5.9173,5.9348,5.9173,5.9107,5.8799,5.8821,5.8469,5.8801,5.8492,5.9107,5.9503,5.9071,5.9871,5.9917,5.9114,5.8792,5.869,5.8304,5.8304,5.8304,5.8304,5.8304,5.8304,5.8304,5.8304,5.8304,5.8304,5.8304,5.8304,5.8304,5.8304,5.8304,5.8304,5.8792,6.0363,6.2013,6.3444,6.5575,6.781,6.8865,6.9795,7.1016,7.1107,7.1199,7.129,7.1596,7.1884,7.2628,7.3024,7.272,7.2678,7.267,7.3351,7.5461,7.6895,7.7542,7.9057,8.0943,8.209,3.3601,3.3601,3.3601,3.3601,3.3601,3.3601,3.3601,3.3601,3.3601,3.3601,3.363,3.3857,3.4034,3.4069,3.4702,3.4958,3.5043,3.5641,3.5712,3.5413,3.5698,3.5925,3.5982,3.6195,3.6451,3.685,3.7276,3.7461,3.7461,3.7562,3.7865,3.923,4.2068,4.4307,4.5359,4.8675,5.081,5.1111,5.1505,5.1898,5.229,5.2476,5.2735,5.2993,5.3085,5.3986,5.5473,5.4677,5.4423,5.5111,5.6264,5.7495,5.8645,5.8645,5.8734,5.8734,5.8734,5.8645,5.8557,5.7517,5.6892,5.6624,5.5814,5.5201,5.5369,5.5928,5.6662,5.6782,5.7549,5.8196,5.8285,5.8304,5.8304,5.8304,5.8304,5.8304,5.8304,5.8304,5.8304,5.8304,5.8304,5.8304,5.8304,5.8304,5.8304,5.8304,5.8304,5.8304,5.8304,5.8304,5.9761,6.1497,6.3347,6.5671,6.828,6.9702,7.0649,7.0643,7.0686,7.077,7.0682,7.0822,7.1072,7.167,7.1898,7.1516,7.2322,7.2181,7.2845,7.5551,7.7917,7.8374,7.8813,8.021,8.0446,3.3601,3.3601,3.3601,3.3601,3.3601,3.3601,3.3601,3.3601,3.3601,3.3601,3.3601,3.3601,3.3601,3.3715,3.4027,3.424,3.4375,3.4745,3.4759,3.4517,3.4987,3.5271,3.5328,3.5499,3.5797,3.6252,3.6693,3.6878,3.6878,3.7049,3.7649,3.8592,4.1348,4.3313,4.4988,4.7781,4.9773,5.0108,5.0703,5.1142,5.1202,5.1529,5.1783,5.2188,5.2521,5.3028,5.3914,5.2854,5.2259,5.2289,5.3486,5.4825,5.6171,5.6787,5.696,5.696,5.696,5.696,5.6781,5.5633,5.495,5.4677,5.3894,5.3178,5.3166,5.3723,5.4315,5.5105,5.6031,5.6896,5.7721,5.8123,5.8304,5.8304,5.8304,5.8304,5.8304,5.8304,5.8304,5.8304,5.8304,5.8304,5.8304,5.8304,5.8304,5.8304,5.8304,5.8304,5.8304,5.8304,5.9176,6.1,6.2464,6.4418,6.6935,6.8748,6.9506,6.9741,7.0008,7.0272,6.9936,6.9833,6.9989,7.0179,7.0162,7.0539,7.1646,7.2401,7.3314,7.526,7.6681,7.7833,7.9004,7.9237,7.9018,3.3601,3.3601,3.3601,3.3601,3.3601,3.3601,3.3601,3.3601,3.3601,3.3601,3.3601,3.3601,3.3601,3.3601,3.3763,3.3644,3.3701,3.3772,3.3757,3.3835,3.4282,3.4631,3.4659,3.5143,3.5442,3.5584,3.5612,3.5641,3.5783,3.6364,3.7477,3.9214,4.0149,4.2367,4.6446,4.6669,4.7591,4.8603,4.9647,4.9862,4.9278,5.0028,5.051,5.0599,5.1182,5.1291,5.0593,5.0526,5.0667,5.0586,5.0674,5.0888,5.2164,5.2946,5.3241,5.3374,5.3281,5.3229,5.3281,5.3394,5.3434,5.3362,5.3178,5.3105,5.3105,5.3186,5.3476,5.4361,5.5089,5.6051,5.6976,5.7721,5.8163,5.8284,5.8284,5.8304,5.8304,5.8304,5.8304,5.8304,5.8304,5.8304,5.8304,5.8304,5.8304,5.8304,5.8304,5.8304,5.8304,5.8304,5.9176,6.0722,6.1794,6.3444,6.5671,6.7716,6.822,6.8837,6.9275,6.9575,6.9123,6.8808,6.8933,6.9226,6.9285,6.9823,7.0966,7.2374,7.3373,7.4718,7.4641,7.574,7.6966,7.794,7.7749,3.3601,3.3601,3.3601,3.3601,3.3601,3.3601,3.3601,3.3601,3.3601,3.3601,3.3601,3.3601,3.3601,3.3601,3.3601,3.3601,3.3601,3.3601,3.3601,3.3616,3.38,3.3991,3.4019,3.4112,3.4503,3.4887,3.493,3.5186,3.5555,3.5783,3.6255,3.6998,3.8604,4.0054,4.1561,4.4382,4.5923,4.6347,4.7875,4.8878,4.9002,4.9278,4.972,5.0209,4.9753,4.9406,4.9492,4.9995,5.0405,5.0405,5.0405,5.0526,5.0699,5.1001,5.1251,5.1242,5.1815,5.2158,5.2219,5.2743,5.3085,5.3085,5.3105,5.3105,5.3105,5.3105,5.3508,5.4059,5.4622,5.5387,5.6594,5.7218,5.7399,5.7459,5.7942,5.8304,5.8304,5.8284,5.8264,5.8203,5.8183,5.8244,5.8304,5.8304,5.8304,5.8304,5.8304,5.8304,5.8304,5.8304,5.869,5.9277,6.0396,6.2585,6.4609,6.5708,6.6199,6.7448,6.819,6.8342,6.8236,6.8015,6.8054,6.8469,6.8954,6.9508,7.052,7.2017,7.3638,7.5472,7.5729,7.5515,7.6113,7.6775,7.7189,3.3601,3.3601,3.3601,3.3601,3.3601,3.3601,3.3601,3.3601,3.3601,3.3601,3.3601,3.3601,3.3601,3.3601,3.3601,3.3601,3.3601,3.3601,3.3601,3.3601,3.3601,3.3601,3.3601,3.3601,3.3828,3.4155,3.4197,3.4503,3.4887,3.5143,3.5228,3.5528,3.6843,3.8354,4.0032,4.2652,4.4527,4.5323,4.6824,4.7771,4.7743,4.7917,4.8266,4.8813,4.825,4.7972,4.8227,4.8984,4.9371,4.9371,4.9371,4.9512,4.9814,4.9834,4.9955,5.0317,5.0929,5.1251,5.1262,5.2098,5.2601,5.2622,5.2884,5.3105,5.3105,5.3125,5.3307,5.3737,5.4039,5.4663,5.5749,5.6011,5.6111,5.6453,5.6976,5.7278,5.7338,5.7338,5.7338,5.7338,5.7338,5.7499,5.768,5.8103,5.8304,5.8304,5.8304,5.8143,5.7962,5.7821,5.76,5.7819,5.9067,6.1082,6.3202,6.3793,6.4773,6.6186,6.7016,6.7226,6.7163,6.6961,6.7279,6.7708,6.7896,6.8514,6.9967,7.1434,7.3563,7.5315,7.6324,7.6254,7.6564,7.6885,7.7094,3.3601,3.3601,3.3601,3.3601,3.3601,3.3601,3.3601,3.3601,3.3601,3.3601,3.3601,3.3601,3.3601,3.3601,3.3601,3.3601,3.3601,3.3601,3.3601,3.3601,3.3601,3.3601,3.3601,3.3601,3.3601,3.3672,3.3778,3.3686,3.3792,3.4304,3.4588,3.4617,3.5209,3.7491,4.0491,4.1291,4.2993,4.5435,4.6341,4.6448,4.588,4.6083,4.6291,4.6499,4.6738,4.7029,4.7197,4.7491,4.7678,4.7658,4.7739,4.806,4.8803,4.8904,4.9311,5.0015,5.0196,5.0257,5.0357,5.1171,5.1674,5.1755,5.2339,5.2924,5.2884,5.2904,5.2984,5.3105,5.3636,5.4039,5.43,5.4522,5.4823,5.5467,5.5648,5.5769,5.5709,5.591,5.5668,5.5749,5.587,5.6192,5.6835,5.766,5.7922,5.7982,5.8083,5.7821,5.7097,5.6916,5.6594,5.6442,5.7435,5.9205,6.118,6.2985,6.4508,6.5531,6.6061,6.6203,6.5997,6.5967,6.6451,6.6833,6.7509,6.8362,6.9413,7.124,7.3561,7.5143,7.6324,7.6564,7.6564,7.6856,7.7233,3.3601,3.3601,3.3601,3.3601,3.3601,3.3601,3.3601,3.3601,3.3601,3.3601,3.3601,3.3601,3.3601,3.3601,3.3601,3.3601,3.3601,3.3601,3.3601,3.3601,3.3601,3.3601,3.3601,3.3601,3.3601,3.3601,3.3601,3.3601,3.363,3.38,3.3948,3.3963,3.4027,3.5449,3.7802,3.9317,4.0998,4.3224,4.4711,4.5473,4.5641,4.5414,4.5479,4.5856,4.6025,4.6362,4.695,4.7137,4.7284,4.7638,4.7638,4.7739,4.798,4.8,4.808,4.8446,4.8924,4.9391,4.9391,5.0196,5.0659,5.0699,5.0949,5.1392,5.1936,5.2098,5.238,5.2863,5.261,5.2711,5.3274,5.3898,5.4246,5.4622,5.5286,5.5628,5.5588,5.5628,5.5568,5.5628,5.5447,5.5729,5.595,5.6212,5.6473,5.6473,5.6433,5.6212,5.6051,5.599,5.591,5.5786,5.7303,5.8741,5.9537,6.217,6.404,6.4827,6.5188,6.5399,6.5599,6.5911,6.6401,6.6863,6.8097,6.9178,7.0524,7.2326,7.4449,7.59,7.6564,7.6564,7.6635,7.7193,7.7539,3.3601,3.3601,3.3601,3.3601,3.3601,3.3601,3.3601,3.3601,3.3601,3.3601,3.3601,3.3601,3.3601,3.3601,3.3601,3.3601,3.3601,3.3601,3.3601,3.3601,3.3601,3.3601,3.3601,3.3601,3.3601,3.3601,3.3601,3.3601,3.3601,3.3601,3.3601,3.3601,3.3601,3.4571,3.652,3.8373,4.0222,4.2153,4.4014,4.5055,4.5244,4.5055,4.5074,4.5348,4.5583,4.594,4.6446,4.6886,4.7117,4.7388,4.7535,4.7638,4.7638,4.7638,4.7638,4.7658,4.812,4.8401,4.8422,4.9311,4.9774,4.9794,5.0096,5.0606,5.113,5.1191,5.1392,5.1836,5.1493,5.1574,5.242,5.2892,5.3355,5.3737,5.42,5.4522,5.4562,5.4542,5.4562,5.4542,5.4542,5.4642,5.4984,5.5065,5.5226,5.5568,5.5648,5.5508,5.5125,5.5065,5.4924,5.5023,5.6932,5.8654,6.0018,6.2461,6.3969,6.4388,6.4672,6.5062,6.5475,6.5911,6.6401,6.6782,6.8177,6.9777,7.149,7.3146,7.4724,7.5971,7.6564,7.6635,7.6816,7.7332,7.799,3.3601,3.3601,3.3601,3.3601,3.3601,3.3601,3.3601,3.3601,3.3601,3.3601,3.3601,3.3601,3.3601,3.3601,3.3601,3.3601,3.3601,3.3601,3.3601,3.3601,3.3601,3.3601,3.3601,3.3601,3.3601,3.3601,3.3601,3.3601,3.3601,3.3601,3.3601,3.3601,3.3601,3.4556,3.652,3.8196,4.003,4.2171,4.4014,4.48,4.4715,4.48,4.4904,4.4904,4.5329,4.5687,4.5856,4.653,4.695,4.7137,4.7451,4.7638,4.7638,4.7638,4.7638,4.7638,4.7638,4.7638,4.7678,4.8381,4.8823,4.8883,4.9573,5.0015,5.0176,5.0096,5.0075,5.0236,5.0041,5.0382,5.1383,5.1364,5.1674,5.2731,5.2747,5.2727,5.2702,5.2602,5.2602,5.2695,5.2709,5.3088,5.3924,5.416,5.4441,5.5025,5.5045,5.4844,5.43,5.416,5.3938,5.4222,5.6329,5.9152,6.1067,6.3054,6.4112,6.4363,6.4697,6.5062,6.5532,6.5967,6.6482,6.7,6.8256,6.9855,7.1414,7.3146,7.4768,7.6113,7.6635,7.6705,7.7025,7.7647,7.8578,3.3601,3.3601,3.3601,3.3601,3.3601,3.3601,3.3601,3.3601,3.3601,3.3601,3.3601,3.3601,3.3601,3.3601,3.3601,3.3601,3.3601,3.3601,3.3601,3.3601,3.3601,3.3601,3.3601,3.3601,3.3601,3.3601,3.3601,3.3601,3.3601,3.3601,3.3601,3.3601,3.3601,3.4571,3.6536,3.6967,3.8815,4.2085,4.3928,4.4185,4.2948,4.4185,4.4904,4.4904,4.5055,4.5414,4.609,4.6342,4.6782,4.7451,4.7535,4.7638,4.7638,4.7638,4.7638,4.7638,4.7638,4.7638,4.7638,4.7819,4.7919,4.794,4.81,4.8522,4.917,4.8707,4.8482,4.9018,4.8061,4.822,4.9957,4.9445,4.951,5.1625,5.0632,5.0038,5.0374,4.9131,4.8846,5.0415,5.0697,5.1411,5.2842,5.3274,5.3508,5.373,5.367,5.3629,5.3448,5.3387,5.3955,5.5153,5.7139,5.9348,6.1216,6.3054,6.4196,6.4388,6.4921,6.531,6.5639,6.6188,6.6676,6.7,6.8256,6.9983,7.1462,7.3146,7.4768,7.6183,7.6564,7.6635,7.6845,7.793,7.9683,3.3601,3.3601,3.3601,3.3601,3.3601,3.3601,3.3601,3.3601,3.3601,3.3601,3.3601,3.3601,3.3601,3.3601,3.3601,3.3601,3.3601,3.3601,3.3601,3.3601,3.3601,3.3601,3.3601,3.3601,3.3601,3.3601,3.3601,3.3601,3.3601,3.3601,3.3601,3.3601,3.3601,3.4132,3.5293,3.6967,3.8373,3.9625,4.1373,4.2671,4.3396,4.4355,4.4904,4.4904,4.4904,4.5244,4.5921,4.6174,4.6595,4.7368,4.7535,4.7437,4.7138,4.7118,4.6937,4.6535,4.6514,4.6514,4.6514,4.6494,4.6675,4.7098,4.7377,4.7678,4.7842,4.74,4.7148,4.708,4.7093,4.7359,4.8248,4.7556,4.808,5.0852,4.9279,4.8748,4.9738,4.9348,4.9504,5.0509,5.1118,5.1839,5.29,5.3105,5.3105,5.3105,5.3105,5.3105,5.3105,5.3105,5.371,5.5473,5.7495,5.9348,6.113,6.3054,6.422,6.4388,6.5004,6.545,6.5532,6.6269,6.6782,6.6919,6.889,7.0574,7.149,7.3662,7.5343,7.6494,7.6564,7.6564,7.6705,7.7755,7.9582,3.3601,3.3601,3.3601,3.3601,3.3601,3.3601,3.3601,3.3678,3.3403,3.3318,3.3422,3.3422,3.3422,3.3408,3.3332,3.3408,3.3332,3.3507,3.355,3.3564,3.3559,3.3601,3.3601,3.3601,3.3601,3.3601,3.3601,3.3601,3.3601,3.3601,3.3601,3.3601,3.3601,3.3692,3.386,3.6862,3.7826,3.661,3.8639,4.1269,4.446,4.48,4.4904,4.4904,4.4989,4.5244,4.5752,4.6174,4.6614,4.7117,4.7351,4.7096,4.6535,4.6313,4.583,4.4965,4.4885,4.4825,4.4724,4.4825,4.5207,4.6072,4.6836,4.6875,4.6132,4.6233,4.5945,4.5147,4.6152,4.6797,4.64,4.616,4.719,4.9605,4.8492,4.8018,4.9583,5.0018,5.0251,5.0723,5.1883,5.227,5.2639,5.2984,5.3105,5.3105,5.3105,5.3105,5.3105,5.3105,5.3894,5.5564,5.7406,5.9348,6.1216,6.3054,6.422,6.4388,6.4979,6.5532,6.5532,6.6269,6.6944,6.7161,6.9646,7.1538,7.2243,7.4538,7.6154,7.6494,7.6564,7.6564,7.6635,7.7185,7.8427,3.3601,3.3601,3.3601,3.3601,3.3601,3.3601,3.3601,3.3607,3.2597,0.0,0.0,3.2229,3.2142,3.2156,3.2243,3.2142,3.2185,3.2785,3.3013,3.3042,3.3451,3.3601,3.3601,3.3601,3.3601,3.3601,3.3601,3.3601,3.3601,3.3601,3.3601,3.3601,3.3601,3.3601,3.3678,3.4299,3.5278,3.661,3.9976,4.1998,4.2707,4.4099,4.4904,4.4904,4.5348,4.5752,4.6174,4.6614,4.7137,4.7515,4.6955,4.6555,4.6394,4.571,4.4905,4.404,4.3959,4.3637,4.2933,4.3557,4.402,4.4201,4.5026,4.5167,4.4281,4.4905,4.5288,4.5111,4.4573,4.4855,4.6243,4.5669,4.6235,4.8892,4.7461,4.6553,4.7573,4.6542,4.6507,4.7813,4.8935,5.0004,5.1634,5.247,5.3105,5.3085,5.3025,5.3105,5.3105,5.3065,5.3629,5.532,5.7384,5.9348,6.1216,6.3054,6.422,6.4314,6.493,6.545,6.5614,6.6269,6.7297,6.8418,7.0393,7.2011,7.3561,7.51,7.6494,7.6564,7.6564,7.6564,7.6641,7.7013,7.7739,3.2739,3.2739,3.2739,3.2739,0.0,3.2739,3.2384,3.1687,3.1161,3.0905,3.0919,3.1232,3.136,3.1374,3.1773,3.1901,3.1929,3.2229,3.2357,3.24,3.2597,3.2725,3.2739,3.2739,3.2739,3.2754,3.3052,3.3209,3.3237,3.3536,3.3601,3.3601,3.3601,3.3601,3.3601,3.3601,3.4571,3.6536,3.8373,4.0222,4.2085,4.3052,4.4014,4.4885,4.514,0.0,0.0,0.0,0.0,0.0,0.0,0.0,0.0,4.3517,0.0,4.1123,4.1042,4.066,3.9795,4.0187,4.074,4.1626,4.2108,4.1968,4.1103,4.2269,4.3017,4.3038,4.3468,4.3799,4.4228,4.3785,4.4666,4.7228,4.5863,4.5473,4.7006,4.6878,4.6685,4.6938,4.8358,4.942,4.9709,5.0734,5.1765,5.2319,5.24,5.2541,5.2944,5.2702,5.2653,5.363,5.6436,5.9325,6.113,6.3054,6.4241,6.3926,6.4271,6.4834,6.5237,6.5843,6.675,6.8349,6.9914,7.1226,7.2241,7.3565,7.4589,7.4657,7.5172,7.5784,7.6884,7.7708,7.8414,3.1901,3.1901,3.1787,3.1644,3.1701,3.1275,3.0632,2.9639,2.9559,2.9639,2.9682,3.0179,3.0407,3.045,3.0905,3.1202,3.1216,3.133,3.1303,3.1303,3.1545,3.173,3.1659,3.1844,3.1901,3.1929,3.2429,3.2671,3.2671,3.3095,3.3337,3.3323,3.3337,3.3337,3.3337,0.0,0.0,0.0,3.6983,3.9123,4.2517,4.2689,4.3322,4.4592,4.4827,0.0,4.4814,4.4842,4.4831,4.4825,4.3798,0.0,4.222,0.0,0.0,0.0,0.0,0.0,0.0,0.0,0.0,0.0,3.8125,3.8065,3.7809,3.9131,4.0138,4.0545,4.2047,4.2689,4.1984,4.2269,4.3424,4.563,4.468,4.4685,4.6851,4.7919,4.7932,4.6505,4.8526,4.953,4.8404,4.9317,5.0619,5.1352,5.1473,5.1705,5.242,5.1896,5.1493,5.1692,5.4777,5.8195,6.0463,6.2467,6.3428,6.3213,6.3504,6.442,6.5016,6.5687,6.6647,6.8176,6.9473,7.0466,7.088,7.1807,7.295,7.3135,7.4022,7.5155,7.6702,7.8028,7.9075,3.1901,3.1772,3.126,3.1061,3.0933,2.9377,2.8515,2.8373,2.845,2.8373,2.845,2.8444,2.8564,2.8578,2.8649,2.8678,2.8629,2.9141,2.9318,2.9389,3.0535,3.1047,3.1075,3.1573,3.1901,3.1901,3.1986,3.2015,3.2029,3.2086,3.2057,3.2143,3.2129,3.2043,3.2143,3.2143,3.2992,3.469,3.8505,4.1767,4.4507,4.4545,4.4291,4.3964,4.4652,4.4693,4.3976,4.3938,4.3866,4.3859,4.231,4.139,4.1514,4.0664,3.9058,0.0,3.6455,0.0,0.0,0.0,0.0,0.0,0.0,0.0,0.0,3.5872,3.7094,3.8658,3.9636,4.0438,4.1082,4.2578,4.3689,4.4003,4.4588,4.501,4.5408,4.6213,4.6674,4.6491,4.8036,4.9124,4.8674,4.97,5.0385,5.0438,5.0505,5.0573,5.0687,5.0803,5.0742,5.0566,5.2291,5.5561,5.8418,6.0662,6.216,6.212,6.3584,6.4962,6.5103,6.646,6.8084,6.96,7.0074,7.0779,7.2173,7.2421,7.3121,7.4176,7.4597,7.4955,7.5753,7.6829,7.78,2.9847,2.9819,2.9562,2.8757,2.7644,2.6524,2.6027,2.6027,2.6027,2.6027,2.6012,2.6027,2.6226,2.6567,2.6908,2.7065,2.7122,2.7733,2.8003,2.806,2.8956,2.9383,2.9383,2.9719,2.9847,2.9862,3.0123,3.0279,3.0293,3.0635,3.0976,3.1331,3.1331,3.0805,2.9919,3.045,3.1138,3.1966,3.5513,3.8842,4.1891,4.1992,4.2343,4.3091,4.3721,4.3503,4.2335,4.2514,4.2068,4.0841,3.9533,3.8695,3.8284,3.749,3.6262,0.0,0.0,0.0,0.0,0.0,0.0,0.0,0.0,0.0,0.0,0.0,3.4101,3.5369,3.6717,3.8065,3.9453,4.0368,4.1255,4.2149,4.2591,4.3235,4.4221,4.4684,4.4692,4.415,4.5746,4.6606,4.6088,4.7212,4.8486,4.9492,4.9555,4.9731,5.0208,5.1508,5.2416,5.2522,5.4363,5.6555,5.8003,6.0833,6.2769,6.2747,6.4115,6.553,6.5905,6.67,6.7727,6.921,6.957,6.9862,7.0514,7.1227,7.1993,7.2709,7.293,7.3363,7.4286,7.4962,7.5446,2.7751,2.7708,2.7179,2.6169,2.4789,2.4163,2.3893,2.3893,2.3893,2.3907,2.3893,2.3893,2.4163,2.4647,2.5184,2.5415,2.5586,2.6055,2.6368,2.6553,2.7164,2.7671,2.7967,2.8112,2.8184,2.8213,2.8601,2.8689,2.8538,2.9084,2.9639,3.0208,2.9824,2.9027,2.8051,2.9217,3.0154,3.0939,3.3335,3.6171,3.9307,3.9665,4.0515,4.2237,4.2503,4.2162,4.0891,4.0758,3.9916,3.8252,3.6902,3.5835,3.523,3.443,0.0,0.0,0.0,0.0,0.0,0.0,0.0,0.0,0.0,2.7643,2.9445,0.0,3.1244,0.0,3.3779,3.5511,3.7018,3.7607,0.0,0.0,3.9665,4.044,4.1826,4.2363,4.2405,4.1967,4.3586,4.4493,4.3725,4.5087,4.6514,4.7561,4.8174,4.8908,4.9823,5.1908,5.3383,5.3811,5.5738,5.7583,5.7754,6.0365,6.2415,6.2516,6.4112,6.5435,6.5695,6.6081,6.6778,6.8121,6.846,6.8583,6.8919,6.9797,7.0468,7.0276,7.0536,7.1347,7.3285,7.334,7.3386,2.6382,2.6226,2.4491,2.3616,2.3432,2.2945,2.2689,2.2689,2.2689,2.2689,2.2689,2.2689,2.2703,2.276,2.2817,0.0,2.3559,2.3616,2.4021,2.459,2.5216,2.6119,2.7348,2.7873,2.8178,2.8178,2.8223,2.7945,2.7366,2.7452,2.7719,2.8364,2.6595,2.624,2.728,2.8686,3.0785,3.3648,3.4517,3.6195,3.8652,3.9624,4.0422,4.1304,4.1312,4.091,3.9934,3.8334,3.7401,3.7184,3.4725,3.3475,3.36,0.0,0.0,0.0,0.0,0.0,0.0,0.0,0.0,0.0,0.0,0.0,0.0,0.0,0.0,2.9393,3.1104,0.0,3.3399,3.4986,0.0,0.0,0.0,3.6859,3.7093,3.8428,3.9721,4.0982,0.0,0.0,4.3689,4.4586,4.4925,4.4241,4.6058,4.7775,4.8887,5.0494,5.1728,5.2811,5.4477,5.5637,5.5947,5.773,5.9471,6.0403,6.2887,6.4544,6.382,6.4465,6.5618,6.6676,6.6875,6.7192,6.8293,6.8582,6.8661,6.7652,6.8456,7.0139,7.2617,7.2301,7.2149,2.4192,2.2755,2.2016,2.1689,2.1675,2.1433,2.1377,2.1391,2.1391,2.1391,2.1391,2.1391,2.1391,2.1391,2.1391,0.0,0.0,0.0,2.24,2.267,2.3345,2.4264,2.5336,2.5596,2.6287,2.7372,2.7323,2.7523,2.7829,2.7,2.6001,2.4771,0.0,2.4325,2.4917,2.6573,2.8521,3.063,3.2625,3.4556,3.6428,3.7839,3.8792,3.9342,3.9561,3.91,3.7894,3.7359,3.6156,3.406,3.2914,3.1645,0.0,0.0,0.0,0.0,0.0,0.0,0.0,0.0,0.0,0.0,0.0,2.2191,2.3921,0.0,0.0,0.0,2.8669,2.9997,3.1405,3.1984,0.0,0.0,0.0,0.0,0.0,0.0,0.0,3.7504,3.8739,4.0074,4.1874,4.2207,4.3066,4.5175,4.7174,4.899,5.0639,0.0,5.3358,5.3782,5.4469,5.518,5.6004,5.7178,5.8714,6.0671,6.326,6.4735,6.4365,6.5416,6.608,6.5818,6.6268,6.6615,6.6252,6.6202,6.6295,6.6737,6.6735,6.7294,6.9244,6.8553,6.783,2.2229,0.0,0.0,0.0,0.0,1.9993,1.9851,1.9783,1.9598,1.958,1.958,1.9513,0.0,0.0,0.0,0.0,0.0,0.0,2.1582,2.2219,2.2681,2.3489,2.452,2.452,2.5241,2.6497,2.648,2.6582,2.6676,2.5738,2.4477,2.3007,0.0,0.0,0.0,0.0,2.6909,2.9092,3.1142,3.3093,3.4951,3.6154,3.6975,3.7368,3.7822,3.7599,3.6599,3.5967,3.4463,3.2004,3.0862,0.0,0.0,0.0,0.0,0.0,0.0,0.0,0.0,0.0,0.0,0.0,0.0,0.0,0.0,0.0,0.0,0.0,0.0,0.0,2.9192,2.9594,2.9814,0.0,0.0,0.0,0.0,0.0,0.0,0.0,0.0,0.0,3.933,3.9825,4.1265,0.0,0.0,4.897,5.0977,5.2657,5.3957,5.4543,5.4711,0.0,5.6521,5.7369,5.8719,6.1063,6.2516,6.34,6.3453,6.4204,6.4692,6.4391,6.5002,6.4884,6.289,6.2248,6.2506,6.342,6.3081,6.3062,6.464,6.4082,6.3457,0.0,0.0,0.0,0.0,1.9527,0.0,0.0,0.0,1.7341,1.7098,0.0,1.7052,0.0,0.0,0.0,0.0,2.0138,2.0249,0.0,0.0,2.3602,2.4385,2.5526,2.5543,2.5614,2.5703,2.5703,2.4861,2.3359,2.303,2.3273,0.0,0.0,0.0,0.0,0.0,2.6779,3.0559,3.0692,3.2038,3.4844,3.5077,3.5311,3.5652,3.6303,3.6534,3.6421,3.3662,3.2024,3.1843,2.8528,0.0,0.0,0.0,0.0,0.0,0.0,0.0,0.0,0.0,0.0,0.0,0.0,0.0,0.0,0.0,0.0,0.0,0.0,0.0,0.0,2.8137,0.0,0.0,0.0,0.0,0.0,0.0,0.0,0.0,0.0,3.5922,3.635,3.794,3.959,4.0933,0.0,0.0,0.0,0.0,5.2316,5.432,5.4899,5.5624,5.6925,5.7766,5.8746,6.0213,0.0,0.0,5.9481,5.9518,6.0281,6.2272,6.2635,6.1446,5.7528,5.7042,5.6983,5.7048,5.7183,5.7706,6.0037,6.0037,6.0037,0.0,0.0,0.0,0.0,0.0,0.0,0.0,0.0,0.0,1.6043,1.5673,1.5616,0.0,0.0,0.0,0.0,0.0,0.0,0.0,0.0,2.1653,2.2471,2.3382,2.4076,2.4977,2.5976,2.5544,2.4062,0.0,0.0,0.0,0.0,0.0,0.0,0.0,0.0,2.5648,2.8054,2.9588,3.1649,3.4104,3.4245,3.4245,3.4445,3.5077,3.4828,3.3542,3.2492,3.1327,0.0,0.0,0.0,0.0,0.0,0.0,0.0,0.0,0.0,0.0,0.0,0.0,0.0,0.0,0.0,0.0,0.0,0.0,0.0,0.0,0.0,0.0,0.0,2.6459,0.0,0.0,0.0,0.0,0.0,0.0,0.0,0.0,0.0,3.5321,3.6277,3.8142,4.1944,4.4804,4.7056,4.8722,0.0,0.0,0.0,0.0,0.0,0.0,0.0,5.6648,5.7952,5.8627,5.8683,5.79,5.8404,5.881,5.8579,0.0,0.0,5.7276,5.6884,5.7149,5.8082,5.7549,5.7378,5.8961,5.813,5.7539,0.0,0.0,0.0,0.0,0.0,0.0,0.0,0.0,0.0,1.4979,1.4551,0.0,0.0,0.0,0.0,0.0,0.0,0.0,0.0,0.0,0.0,0.0,2.1884,2.2872,0.0,0.0,0.0,0.0,0.0,0.0,0.0,0.0,0.0,0.0,0.0,0.0,2.4392,2.6615,2.8602,3.0829,3.3271,3.3372,3.3498,3.3667,3.4106,3.3602,3.1908,0.0,0.0,0.0,2.5748,0.0,0.0,0.0,0.0,0.0,0.0,0.0,0.0,0.0,0.0,0.0,0.0,0.0,0.0,0.0,0.0,0.0,0.0,0.0,0.0,0.0,2.4148,0.0,0.0,0.0,0.0,0.0,0.0,0.0,0.0,0.0,0.0,3.542,3.7504,4.1789,4.4331,4.631,4.7974,4.9834,5.1217,0.0,0.0,0.0,0.0,0.0,0.0,0.0,0.0,0.0,0.0,0.0,0.0,0.0,5.5813,5.5154,5.4601,5.4527,5.4764,5.5739,0.0,0.0,0.0,0.0,0.0,0.0,0.0,0.0,0.0,0.0,0.0,0.0,0.0,0.0,0.0,1.3733,0.0,0.0,1.2466,0.0,0.0,0.0,0.0,0.0,0.0,0.0,0.0,0.0,0.0,0.0,0.0,0.0,0.0,0.0,0.0,0.0,0.0,0.0,0.0,0.0,0.0,2.3029,2.648,2.7668,2.9583,3.2262,3.2437,3.2744,3.3335,3.3396,3.2872,3.1828,0.0,0.0,0.0,0.0,0.0,0.0,0.0,0.0,0.0,0.0,0.0,0.0,0.0,0.0,0.0,0.0,0.0,0.0,0.0,0.0,0.0,0.0,0.0,0.0,0.0,0.0,2.3624,2.6107,2.7687,0.0,0.0,0.0,0.0,0.0,0.0,0.0,0.0,0.0,4.0111,4.222,4.4379,4.6679,4.8192,4.9502,5.0408,5.1923,5.3497,5.4615,5.4785,5.4735,0.0,0.0,0.0,0.0,0.0,0.0,0.0,0.0,0.0,0.0,0.0,0.0,0.0,0.0,0.0,0.0,0.0,0.0,0.0,0.0,0.0,0.0,0.0,0.0,0.0,0.0,0.0,0.0,0.0,1.2151,0.0,0.0,0.0,0.0,0.0,0.0,0.0,0.0,0.0,0.0,0.0,0.0,0.0,0.0,0.0,0.0,0.0,0.0,0.0,0.0,0.0,0.0,0.0,0.0,2.2631,2.4147,2.7082,2.9296,3.0656,3.1499,3.1983,3.2202,3.2028,3.1468,3.0558,0.0,0.0,0.0,0.0,0.0,0.0,0.0,0.0,0.0,0.0,0.0,0.0,0.0,0.0,0.0,0.0,0.0,0.0,0.0,0.0,0.0,0.0,0.0,0.0,0.0,0.0,0.0,2.5711,2.6869,2.7702,0.0,0.0,0.0,0.0,0.0,0.0,0.0,0.0,0.0,0.0,4.4139,4.6101,4.8824,5.0475,5.0057,5.1682,5.2728,5.222,5.2664,5.3042,5.3174,0.0,0.0,0.0,0.0,0.0,0.0,0.0,0.0,0.0,0.0,0.0,0.0,0.0,0.0,0.0,0.0,0.0,0.0,0.0,0.0,0.0,0.0,0.0,0.0,0.0,0.0,0.0,0.0,0.0,0.0,0.0,0.0,0.0,0.0,0.0,0.0,0.0,0.0,0.0,0.0,0.0,0.0,0.0,0.0,0.0,0.0,0.0,0.0,0.0,0.0,0.0,0.0,0.0,2.2295,2.2572,2.5996,2.8011,2.8548,2.963,3.0308,3.0588,3.039,2.9967,0.0,0.0,0.0,0.0,0.0,0.0,0.0,0.0,0.0,0.0,0.0,0.0,0.0,0.0,0.0,0.0,0.0,0.0,0.0,0.0,0.0,0.0,0.0,0.0,0.0,0.0,0.0,0.0,2.392,2.5087,2.6252,0.0,0.0,0.0,0.0,0.0,0.0,0.0,0.0,0.0,0.0,4.4015,4.5885,4.8879,0.0,0.0,5.1458,5.2379,5.1536,5.1741,5.1864,5.1476,5.1821,0.0,0.0,0.0,0.0,0.0,0.0,0.0,0.0,0.0,0.0,0.0,0.0,0.0,0.0,0.0,0.0,0.0,0.0,0.0,0.0,0.0,0.0,0.0,0.0,0.0,0.0,0.0,0.0,0.0,0.0,0.0,0.0,0.0,0.0,0.0,0.0,0.0,0.0,0.0,0.0,0.0,0.0,0.0,0.0,0.0,0.0,0.0,0.0,0.0,0.0,0.0,0.0,2.1962,2.1788,2.4698,2.6229,2.6296,2.7293,2.8159,2.8724,2.8715,2.8469,0.0,0.0,0.0,0.0,0.0,0.0,0.0,0.0,0.0,0.0,0.0,0.0,0.0,0.0,0.0,0.0,0.0,0.0,0.0,0.0,0.0,0.0,0.0,0.0,0.0,0.0,0.0,0.0,0.0,0.0,0.0,0.0,0.0,0.0,0.0,0.0,0.0,0.0,0.0,0.0,0.0,4.3973,4.5863,4.8483,5.02,0.0,5.1202,5.2049,5.1999,5.1524,5.0826,4.975,0.0,0.0,0.0,0.0,0.0,0.0,0.0,0.0,0.0,0.0,0.0,0.0,0.0,0.0,0.0,0.0,0.0,0.0,0.0,0.0,0.0,0.0,0.0,0.0,0.0,0.0,0.0,0.0,0.0,0.0,0.0,0.0,0.0,0.0,0.0,0.0,0.0,0.0,0.0,0.0,0.0,0.0,0.0,0.0,0.0,0.0,0.0,0.0,0.0,0.0,0.0,0.0,0.0,0.0,2.3057,2.5124,2.6199,2.6255,2.7574,2.8294,2.8429,2.8189,0.0,0.0,0.0,0.0,0.0,0.0,0.0,0.0,0.0,0.0,0.0,0.0,0.0,0.0,0.0,0.0,0.0,0.0,0.0,0.0,0.0,0.0,0.0,0.0,0.0,0.0,0.0,1.9331,0.0,0.0,0.0,0.0,0.0,0.0,0.0,0.0,0.0,0.0,0.0,0.0,0.0,0.0,4.2902,4.4441,4.6997,4.8414,0.0,0.0,4.9842,4.9029,4.8419,4.8004,0.0,0.0,0.0,0.0,0.0,0.0,0.0,0.0,0.0,0.0,0.0,0.0,0.0,0.0,0.0,0.0,0.0,0.0,0.0,0.0,0.0,0.0,0.0,0.0,0.0,0.0,0.0,0.0,0.0,0.0,0.0,0.0,0.0,0.0,0.0,0.0,0.0,0.0,0.0,0.0,0.0,0.0,0.0,0.0,0.0,0.0,0.0,0.0,0.0,0.0,0.0,0.0,0.0,0.0,2.1914,2.232,2.4565,2.5624,2.5392,2.6563,2.7328,2.7544,2.7769,2.7647,0.0,0.0,0.0,0.0,0.0,0.0,0.0,0.0,0.0,0.0,0.0,0.0,0.0,0.0,0.0,0.0,0.0,0.0,0.0,0.0,0.0,0.0,0.0,0.0,0.0,0.0,0.0,0.0,0.0,0.0,0.0,0.0,0.0,0.0,0.0,0.0,0.0,0.0,0.0,0.0,0.0,0.0,4.4146,4.615,0.0,0.0,0.0,4.8006,4.7478,0.0,0.0,0.0,0.0,0.0,0.0,0.0,0.0,0.0,0.0,0.0,0.0,0.0,0.0,0.0,0.0,0.0,0.0,0.0,0.0,0.0,0.0,0.0,0.0,0.0,0.0,0.0,0.0,0.0,0.0,0.0,0.0,0.0,0.0,0.0,0.0,0.0,0.0,0.0,0.0,0.0,0.0,0.0,0.0,0.0,0.0,0.0,0.0,0.0,0.0,0.0,0.0,0.0,0.0,0.0,0.0,0.0,2.1091,2.3724,2.4859,2.4339,2.516,2.588,2.6364,2.744,2.7489,0.0,0.0,0.0,0.0,0.0,0.0,0.0,0.0,0.0,0.0,0.0,0.0,0.0,0.0,0.0,0.0,0.0,0.0,0.0,0.0,0.0,0.0,0.0,0.0,0.0,0.0,0.0,0.0,0.0,0.0,0.0,0.0,0.0,0.0,0.0,0.0,0.0,0.0,0.0,0.0,0.0,4.3433,4.4178,4.5494,4.6395,0.0,0.0,4.6584,4.6644,4.6638,0.0,0.0,0.0,0.0,0.0,0.0,0.0,0.0,0.0,0.0,0.0,0.0,0.0,0.0,0.0,0.0,0.0,0.0,0.0,0.0,0.0,0.0,0.0,0.0,0.0,0.0,0.0,0.0,0.0,0.0,0.0,0.0,0.0,0.0,0.0,0.0,0.0,0.0,0.0,0.0,0.0,0.0,0.0,0.0,0.0,0.0,0.0,0.0,0.0,0.0,0.0,0.0,0.0,0.0,0.0,0.0,2.308,2.4602,2.5322,2.5208,2.5479,2.5833,2.6112,2.7328,2.713,0.0,0.0,0.0,0.0,0.0,0.0,0.0,0.0,0.0,0.0,0.0,0.0,0.0,0.0,0.0,0.0,0.0,0.0,0.0,0.0,0.0,0.0,0.0,0.0,0.0,0.0,0.0,0.0,0.0,0.0,0.0,0.0,0.0,0.0,0.0,0.0,0.0,0.0,0.0,0.0,0.0,4.1356,4.2661,4.4013,0.0,0.0,0.0,0.0,4.5911,4.5376,0.0,0.0,0.0,0.0,0.0,0.0,0.0,0.0,0.0,0.0,0.0,0.0,0.0,0.0,0.0,0.0,0.0,0.0,0.0,0.0,0.0,0.0,0.0,0.0,0.0,0.0,0.0,0.0,0.0,0.0,0.0,0.0,0.0,0.0,0.0,0.0,0.0,0.0,0.0,0.0,0.0,0.0,0.0,0.0,0.0,0.0,0.0,0.0,0.0,0.0,0.0,0.0,0.0,0.0,0.0,0.0,2.393,2.497,2.5552,2.5733,2.5806,2.6205,2.6962,2.8074,2.7914,0.0,0.0,0.0,0.0,0.0,0.0,0.0,0.0,0.0,0.0,0.0,0.0,0.0,0.0,0.0,0.0,0.0,0.0,0.0,0.0,0.0,0.0,0.0,0.0,0.0,0.0,0.0,0.0,0.0,0.0,0.0,0.0,0.0,0.0,0.0,0.0,0.0,0.0,0.0,0.0,3.8791,4.0046,4.1287,0.0,0.0,0.0,0.0,0.0,0.0,4.409,4.3524,0.0,0.0,0.0,0.0,0.0,0.0,0.0,0.0,0.0,0.0,0.0,0.0,0.0,0.0,0.0,0.0,0.0,0.0,0.0,0.0,0.0,0.0,0.0,0.0,0.0,0.0,0.0,0.0,0.0,0.0,0.0,0.0,0.0,0.0,0.0,0.0,0.0,0.0,0.0,0.0,0.0,0.0,0.0,0.0,0.0,0.0,0.0,0.0,0.0,0.0,0.0,0.0,0.0,0.0,0.0,2.4071,2.4926,2.562,2.6066,2.6039,2.6641,2.7939,2.8727,2.8762,2.7976,0.0,0.0,0.0,0.0,0.0,0.0,0.0,0.0,0.0,0.0,0.0,0.0,0.0,0.0,0.0,0.0,0.0,0.0,0.0,0.0,0.0,0.0,0.0,0.0,0.0,0.0,0.0,0.0,0.0,0.0,0.0,0.0,0.0,0.0,0.0,0.0,0.0,0.0,0.0,3.7018,3.8812,0.0,0.0,0.0,0.0,0.0,0.0,0.0,0.0,4.2131,0.0,0.0,0.0,0.0,0.0,0.0,0.0,0.0,0.0,0.0,0.0,0.0,0.0,0.0,0.0,0.0,0.0,0.0,0.0,0.0,0.0,0.0,0.0,0.0,0.0,0.0,0.0,0.0,0.0,0.0,0.0,0.0,0.0,0.0,0.0,0.0,0.0,0.0,0.0,0.0,0.0,0.0,0.0,0.0,0.0,0.0,0.0,0.0,0.0,0.0,0.0,0.0,0.0,0.0,0.0,0.0,2.4427,2.5303,2.6026,2.6039,2.6641,2.7939,2.8004,2.8268,2.8705,0.0,0.0,0.0,0.0,0.0,0.0,0.0,0.0,0.0,0.0,0.0,0.0,0.0,0.0,0.0,0.0,0.0,0.0,0.0,0.0,0.0,0.0,0.0,0.0,0.0,0.0,0.0,0.0,0.0,0.0,0.0,0.0,0.0,0.0,0.0,0.0,0.0,0.0,3.155,3.4421,0.0,0.0,0.0,0.0,0.0,0.0,0.0,0.0,4.2404,0.0,0.0,0.0,0.0,0.0,0.0,0.0,0.0,0.0,0.0,0.0,0.0,0.0,0.0,0.0,0.0,0.0,0.0,0.0,0.0,0.0,0.0,0.0,0.0,0.0,0.0,0.0,0.0,0.0,0.0,0.0,0.0,0.0,0.0,0.0,0.0,0.0,0.0,0.0,0.0,0.0,0.0,0.0,0.0,0.0,0.0,0.0,0.0,0.0,0.0,0.0,0.0,0.0,0.0,0.0,0.0,0.0,0.0,2.5279,2.6114,2.6215,2.7054,2.8548,2.7516,2.7332,0.0,0.0,0.0,0.0,0.0,0.0,0.0,0.0,0.0,0.0,0.0,0.0,0.0,0.0,0.0,0.0,0.0,0.0,0.0,0.0,0.0,0.0,0.0,0.0,0.0,0.0,0.0,0.0,0.0,0.0,0.0,0.0,0.0,0.0,0.0,0.0,0.0,0.0,0.0,0.0,0.0,0.0,0.0,0.0,0.0,0.0,0.0,0.0,0.0,0.0,0.0,0.0,0.0,0.0,0.0,0.0,0.0,0.0,0.0,0.0,0.0,0.0,0.0,0.0,0.0,0.0,0.0,0.0,0.0,0.0,0.0,0.0,0.0,0.0,0.0,0.0,0.0,0.0,0.0,0.0,0.0,0.0,0.0,0.0,0.0,0.0,0.0,0.0,0.0,0.0,0.0,0.0,0.0,0.0,0.0,0.0,0.0,0.0,0.0,0.0,0.0,0.0,0.0,0.0,0.0,0.0,0.0,0.0,2.5146,2.6173,2.6376,2.7373,2.9323,2.7385,2.6668,0.0,0.0,0.0,0.0,0.0,0.0,0.0,0.0,0.0,0.0,0.0,0.0,0.0,0.0,0.0,0.0,0.0,0.0,0.0,0.0,0.0,0.0,0.0,0.0,0.0,0.0,0.0,0.0,0.0,0.0,0.0,0.0,0.0,0.0,0.0,0.0,0.0,0.0,0.0,0.0,0.0,0.0,0.0,0.0,0.0,0.0,0.0,0.0,4.0152,0.0,0.0,0.0,0.0,0.0,0.0,0.0,0.0,0.0,0.0,0.0,0.0,0.0,0.0,0.0,0.0,0.0,0.0,0.0,0.0,0.0,0.0,0.0,0.0,0.0,0.0,0.0,0.0,0.0,0.0,0.0,0.0,0.0,0.0,0.0,0.0,0.0,0.0,0.0,0.0,0.0,0.0,0.0,0.0,0.0,0.0,0.0,0.0,0.0,0.0,0.0,0.0,0.0,0.0,0.0,0.0,0.0,0.0,0.0,2.4707,2.6238,2.6355,2.7353,2.9235,2.8149,2.6946,0.0,0.0,0.0,0.0,0.0,0.0,0.0,0.0,0.0,0.0,0.0,0.0,0.0,0.0,0.0,0.0,0.0,0.0,0.0,0.0,0.0,0.0,0.0,0.0,0.0,0.0,0.0,0.0,0.0,0.0,0.0,0.0,0.0,0.0,0.0,0.0,0.0,0.0,0.0,0.0,0.0,0.0,0.0,0.0,0.0,0.0,0.0,0.0,0.0,0.0,0.0,0.0,0.0,0.0,0.0,0.0,0.0,0.0,0.0,0.0,0.0,0.0,0.0,0.0,0.0,0.0,0.0,0.0,0.0,0.0,0.0,0.0,0.0,0.0,0.0,0.0,0.0,0.0,0.0,0.0,0.0,0.0,0.0,0.0,0.0,0.0,0.0,0.0,0.0,0.0,0.0,0.0,0.0,0.0,0.0,0.0,0.0,0.0,0.0,0.0,0.0,0.0,0.0,0.0,0.0,0.0,0.0,0.0,2.4856,2.6984,2.7137,2.7286,2.7344,2.6872,2.6008,0.0,0.0,0.0,0.0,0.0,0.0,0.0,0.0,0.0,0.0,0.0,0.0,0.0,0.0,0.0,0.0,0.0,0.0,0.0,0.0,0.0,0.0,0.0,0.0,0.0,0.0,0.0,0.0,0.0,0.0,0.0,0.0,0.0,0.0,0.0,0.0,0.0,0.0,0.0,0.0,0.0,0.0,0.0,0.0,0.0,0.0,0.0,0.0,0.0,0.0,0.0,0.0,0.0,0.0,0.0,0.0,0.0,0.0,0.0,0.0,0.0,0.0,0.0,0.0,0.0,0.0,0.0,0.0,0.0,0.0,0.0,0.0,0.0,0.0,0.0,0.0,0.0,0.0,0.0,0.0,0.0,0.0,0.0,0.0,0.0,0.0,0.0,0.0,0.0,0.0,0.0,0.0,0.0,0.0,0.0,0.0,0.0,0.0,0.0,0.0,0.0,0.0,0.0,0.0,0.0,0.0,0.0,0.0,0.0,2.6695,2.6831,2.6352,2.5443,2.542,2.4728,0.0,0.0,0.0,0.0,0.0,0.0,0.0,0.0,0.0,0.0,0.0,0.0,0.0,0.0,0.0,0.0,0.0,0.0,0.0,0.0,0.0,0.0,0.0,0.0,0.0,0.0,0.0,0.0,0.0,0.0,0.0,0.0,0.0,0.0,0.0,0.0,0.0,0.0,0.0,0.0,0.0,0.0,0.0,0.0,0.0,0.0,0.0,0.0,0.0,0.0,0.0,0.0,0.0,0.0,0.0,0.0,0.0,0.0,0.0,0.0,0.0,0.0,0.0,0.0,0.0,0.0,0.0,0.0,0.0,0.0,0.0,0.0,0.0,0.0,0.0,0.0,0.0,0.0,0.0,0.0,0.0,0.0,0.0,0.0,0.0,0.0,0.0,0.0,0.0,0.0,0.0,0.0,0.0,0.0,0.0,0.0,0.0,0.0,0.0,0.0,0.0,0.0,0.0,0.0,0.0,0.0,0.0,0.0,0.0,2.4777,2.4491,2.4269,2.4211,2.4211,2.3257,0.0,0.0,0.0,0.0,0.0,0.0,0.0,0.0,0.0,0.0,0.0,0.0,0.0,0.0,0.0,0.0,0.0,0.0,0.0,0.0,0.0,0.0,0.0,0.0,0.0,0.0,0.0,0.0,0.0,0.0,0.0,0.0,0.0,0.0,0.0,0.0,0.0,0.0,0.0,0.0,0.0,0.0,0.0,0.0,0.0,0.0,0.0,0.0,0.0,0.0,0.0,0.0,0.0,0.0,0.0,0.0,0.0,0.0,0.0,0.0,0.0,0.0,0.0,0.0,0.0,0.0,0.0,0.0,0.0,0.0,0.0,0.0,0.0,0.0,0.0,0.0,0.0,0.0,0.0,0.0,0.0,0.0,0.0,0.0,0.0,0.0,0.0,0.0,0.0,0.0,0.0,0.0,0.0,0.0,0.0,0.0,0.0,0.0,0.0,0.0,0.0,0.0,0.0,0.0,0.0,0.0,0.0,0.0,0.0,2.207,2.2074,2.2204,2.252,2.2897,2.2286,2.0477,0.0,0.0,0.0,0.0,0.0,0.0,0.0,0.0,0.0,0.0,0.0,0.0,0.0,0.0,0.0,0.0,0.0,0.0,0.0,0.0,0.0,0.0,0.0,0.0,0.0,0.0,0.0,0.0,0.0,0.0,0.0,0.0,0.0,0.0,0.0,0.0,0.0,0.0,0.0,0.0,0.0,0.0,0.0,0.0,0.0,0.0,0.0,0.0,0.0,0.0,0.0,0.0,0.0,0.0,0.0,0.0,0.0,0.0,0.0,0.0,0.0,0.0,0.0,0.0,0.0,0.0,0.0,0.0,0.0,0.0,0.0,0.0,0.0,0.0,0.0,0.0,0.0,0.0,0.0,0.0,0.0,0.0,0.0,0.0,0.0,0.0,0.0,0.0,0.0,0.0,0.0,0.0,0.0,0.0,0.0,0.0,0.0,0.0,0.0,0.0,0.0,0.0,0.0,0.0,0.0,0.0,0.0,0.0,1.9666,2.0067,2.0487,2.0851,2.1303,2.0835,0.0,0.0,0.0,0.0,0.0,0.0,0.0,0.0,0.0,0.0,0.0,0.0,0.0,0.0,0.0,0.0,0.0,0.0,0.0,0.0,0.0,0.0,0.0,0.0,0.0,0.0,0.0,0.0,0.0,0.0,0.0,0.0,0.0,0.0,0.0,0.0,0.0,0.0,0.0,0.0,0.0,0.0,0.0,0.0,0.0,0.0,0.0,0.0,0.0,0.0,0.0,0.0,0.0,0.0,0.0,0.0,0.0,0.0,0.0,0.0,0.0,0.0,0.0,0.0,0.0,0.0,0.0,0.0,0.0,0.0,0.0,0.0,0.0,0.0,0.0,0.0,0.0,0.0,0.0,0.0,0.0,0.0,0.0,0.0,0.0,0.0,0.0,0.0,0.0,0.0,0.0,0.0,0.0,0.0,0.0,0.0,0.0,0.0,0.0,0.0,0.0,0.0,0.0,0.0,0.0,0.0,0.0,0.0,1.5321,1.7621,1.8693,1.9206,1.9255,1.928,1.884,0.0,0.0,0.0,0.0,0.0,0.0,0.0,0.0,0.0,0.0,0.0,0.0,0.0,0.0,0.0,0.0,0.0,0.0,0.0,0.0,0.0,0.0,0.0,0.0,0.0,0.0,0.0,0.0,0.0,0.0,0.0,0.0,0.0,0.0,0.0,0.0,0.0,0.0,0.0,0.0,0.0,0.0,0.0,0.0,0.0,0.0,0.0,0.0,0.0,0.0,0.0,0.0,0.0,0.0,0.0,0.0,0.0,0.0,0.0,0.0,0.0,0.0,0.0,0.0,0.0,0.0,0.0,0.0,0.0,0.0,0.0,0.0,0.0,0.0,0.0,0.0,0.0,0.0,0.0,0.0,0.0,0.0,0.0,0.0,0.0,0.0,0.0,0.0,0.0,0.0,0.0,0.0,0.0,0.0,0.0,0.0,0.0,0.0,0.0,0.0,0.0,0.0,0.0,0.0,0.0,0.0,0.0,0.0,0.0,1.5933,0.0,1.7309,1.7635,1.7356,1.7183,0.0,0.0,0.0,0.0,0.0,0.0,0.0,0.0,0.0,0.0,0.0,0.0,0.0,0.0,0.0,0.0,0.0,0.0,0.0,0.0,0.0,0.0,0.0,0.0,0.0,0.0,0.0,0.0,0.0,0.0,0.0,0.0,0.0,0.0,0.0,0.0,0.0,0.0,0.0,0.0,0.0,0.0,0.0,0.0,0.0,0.0,0.0,0.0,0.0,0.0,0.0,0.0,0.0,0.0,0.0,0.0,0.0,0.0,0.0,0.0,0.0,0.0,0.0,0.0,0.0,0.0,0.0,0.0,0.0,0.0,0.0,0.0,0.0,0.0,0.0,0.0,0.0,0.0,0.0,0.0,0.0,0.0,0.0,0.0,0.0,0.0,0.0,0.0,0.0,0.0,0.0,0.0,0.0,0.0,0.0,0.0,0.0,0.0,0.0,0.0,0.0,0.0,0.0,0.0,0.0,0.0,0.0,0.0,0.0,1.4834,1.5298,1.5859,1.6603,1.6319,1.608,0.0,0.0,0.0,0.0,0.0,0.0,0.0,0.0,0.0,0.0,0.0,0.0,0.0,0.0,0.0,0.0,0.0,0.0,0.0,0.0,0.0,0.0,0.0,0.0,0.0,0.0,0.0,0.0,0.0,0.0,0.0,0.0,0.0,0.0,0.0,0.0,0.0,0.0,0.0,0.0,0.0,0.0,0.0,0.0,0.0,0.0,0.0,0.0,0.0,0.0,0.0,0.0,0.0,0.0,0.0,0.0,0.0,0.0,0.0,0.0,0.0,0.0,0.0,0.0,0.0,0.0,0.0,0.0,0.0,0.0,0.0,0.0,0.0,0.0,0.0,0.0,0.0,0.0,0.0,0.0,0.0,0.0,0.0,0.0,0.0,0.0,0.0,0.0,0.0,0.0,0.0,0.0,0.0,0.0,0.0,0.0,0.0,0.0,0.0,0.0,0.0,0.0,0.0,0.0,0.0,0.0,0.0,0.0,0.0,1.4256,1.4323,1.4872,1.5908,1.5985,1.5452,0.0,0.0,0.0,0.0,0.0,0.0,0.0,0.0,0.0,0.0,0.0,0.0,0.0,0.0,0.0,0.0,0.0,0.0,0.0,0.0,0.0,0.0,0.0,0.0,0.0,0.0,0.0,0.0,0.0,0.0,0.0,0.0,0.0,0.0,0.0,0.0,0.0,0.0,0.0,0.0,0.0,0.0,0.0,0.0,0.0,0.0,0.0,0.0,0.0,0.0,0.0,0.0,0.0,0.0,0.0,0.0,0.0,0.0,0.0,0.0,0.0,0.0,0.0,0.0,0.0,0.0,0.0,0.0,0.0,0.0,0.0,0.0,0.0,0.0,0.0,0.0,0.0,0.0,0.0,0.0,0.0,0.0,0.0,0.0,0.0,0.0,0.0,0.0,0.0,0.0,0.0,0.0,0.0,0.0,0.0,0.0,0.0,0.0,0.0,0.0,0.0,0.0,0.0,0.0,0.0,0.0,0.0,0.0,0.0,0.0,1.3248,1.3412,1.3721,1.371,1.3723,1.3668,0.0,0.0,0.0,0.0,0.0,0.0,0.0,0.0,0.0,0.0,0.0,0.0,0.0,0.0,0.0,0.0,0.0,0.0,0.0,0.0,0.0,0.0,0.0,0.0,0.0,0.0,0.0,0.0,0.0,0.0,0.0,0.0,0.0,0.0,0.0,0.0,0.0,0.0,0.0,0.0,0.0,0.0,0.0,0.0,0.0,0.0,0.0,0.0,0.0,0.0,0.0,0.0,0.0,0.0,0.0,0.0,0.0,0.0,0.0,0.0,0.0,0.0,0.0,0.0,0.0,0.0,0.0,0.0,0.0,0.0,0.0,0.0,0.0,0.0,0.0,0.0,0.0,0.0,0.0,0.0,0.0,0.0,0.0,0.0,0.0,0.0,0.0,0.0,0.0,0.0,0.0,0.0,0.0,0.0,0.0,0.0,0.0,0.0,0.0,0.0,0.0,0.0,0.0,0.0,0.0,0.0,0.0,0.0,0.0,0.0,1.2811,1.2811,1.2969,1.3249,0.0,0.0,0.0,0.0,0.0,0.0,0.0,0.0,0.0,0.0,0.0,0.0,0.0,0.0,0.0,0.0,0.0,0.0,0.0,0.0,0.0,0.0,0.0,0.0,0.0,0.0,0.0,0.0,0.0,0.0,0.0,0.0,0.0,0.0,0.0,0.0,0.0,0.0,0.0,0.0,0.0,0.0,0.0,0.0,0.0,0.0,0.0,0.0,0.0,0.0,0.0,0.0,0.0,0.0,0.0,0.0,0.0,0.0,0.0,0.0,0.0,0.0,0.0,0.0,0.0,0.0,0.0,0.0,0.0,0.0,0.0,0.0,0.0,0.0,0.0,0.0,0.0,0.0,0.0,0.0,0.0,0.0,0.0,0.0,0.0,0.0,0.0,0.0,0.0,0.0,0.0,0.0,0.0,0.0,0.0,0.0,0.0,0.0,0.0,0.0,0.0,0.0,0.0,0.0,0.0,0.0,0.0,0.0,0.0,0.0,0.0,1.2811,1.2827,1.32,0.0,1.3939,0.0,0.0,0.0,0.0,0.0,0.0,0.0,0.0,0.0,0.0,0.0,0.0,0.0,0.0,0.0,0.0,0.0,0.0,0.0,0.0,0.0,0.0,0.0,0.0,0.0,0.0,0.0,0.0,0.0,0.0,0.0,0.0,0.0,0.0,0.0,0.0,0.0,0.0,0.0,0.0,0.0,0.0,0.0,0.0,0.0,0.0,0.0,0.0,0.0,0.0,0.0,0.0,0.0,0.0,0.0,0.0,0.0,0.0,0.0,0.0,0.0,0.0,0.0,0.0,0.0,0.0,0.0,0.0,0.0,0.0,0.0,0.0,0.0,0.0,0.0,0.0,0.0,0.0,0.0,0.0,0.0,0.0,0.0,0.0,0.0,0.0,0.0,0.0,0.0,0.0,0.0,0.0,0.0,0.0,0.0,0.0,0.0,0.0,0.0,0.0,0.0,0.0,0.0,0.0,0.0,0.0,0.0,0.0,0.0,0.0,0.0,0.0,1.32,1.3475,1.3546,0.0,0.0,0.0,0.0,0.0,0.0,0.0,0.0,0.0,0.0,0.0,0.0,0.0,0.0,0.0,0.0,0.0,0.0,0.0,0.0,0.0,0.0,0.0,0.0,0.0,0.0,0.0,0.0,0.0,0.0,0.0,0.0,0.0,0.0,0.0,0.0,0.0,0.0,0.0,0.0,0.0,0.0,0.0,0.0,0.0,0.0,0.0,0.0,0.0,0.0,0.0,0.0,0.0,0.0,0.0,0.0,0.0,0.0,0.0,0.0,0.0,0.0,0.0,0.0,0.0,0.0,0.0,0.0,0.0,0.0,0.0,0.0,0.0,0.0,0.0,0.0,0.0,0.0,0.0,0.0,0.0,0.0,0.0,0.0,0.0,0.0,0.0,0.0,0.0,0.0,0.0,0.0,0.0,0.0,0.0,0.0,0.0,0.0,0.0,0.0,0.0,0.0,0.0,0.0,0.0,0.0,0.0,0.0,0.0,0.0,1.2811,1.2827,1.3346,1.3578,1.3609,0.0,0.0,0.0,0.0,0.0,0.0,0.0,0.0,0.0,0.0,0.0,0.0,0.0,0.0,0.0,0.0,0.0,0.0,0.0,0.0,0.0,0.0,0.0,0.0,0.0,0.0,0.0,0.0,0.0,0.0,0.0,0.0,0.0,0.0,0.0,0.0,0.0,0.0,0.0,0.0,0.0,0.0,0.0,0.0,0.0,0.0,0.0,0.0,0.0,0.0,0.0,0.0,0.0,0.0,0.0,0.0,0.0,0.0,0.0,0.0,0.0,0.0,0.0,0.0,0.0,0.0,0.0,0.0,0.0,0.0,0.0,0.0,0.0,0.0,0.0,0.0,0.0,0.0,0.0,0.0,0.0,0.0,0.0,0.0,0.0,0.0,0.0,0.0,0.0,0.0,0.0,0.0,0.0,0.0,0.0,0.0,0.0,0.0,0.0,0.0,0.0,0.0,0.0,0.0,0.0,0.0,0.0,0.0,0.0,0.0,1.2811,0.0,0.0,0.0,1.383,0.0,0.0,0.0,0.0,0.0,0.0,0.0,0.0,0.0,0.0,0.0,0.0,0.0,0.0,0.0,0.0,0.0,0.0,0.0,0.0,0.0,0.0,0.0,0.0,0.0,0.0,0.0,0.0,0.0,0.0,0.0,0.0,0.0,0.0,0.0,0.0,0.0,0.0,0.0,0.0,0.0,0.0,0.0,0.0,0.0,0.0,0.0,0.0,0.0,0.0,0.0,0.0,0.0,0.0,0.0,0.0,0.0,0.0,0.0,0.0,0.0,0.0,0.0,0.0,0.0,0.0,0.0,0.0,0.0,0.0,0.0,0.0,0.0,0.0,0.0,0.0,0.0,0.0,0.0,0.0,0.0,0.0,0.0,0.0,0.0,0.0,0.0,0.0,0.0,0.0,0.0,0.0,0.0,0.0,0.0,0.0,0.0,0.0,0.0,0.0,0.0,0.0,0.0,0.0,0.0,0.0,0.0,0.0,0.0,0.0,0.0,0.0,0.0,0.0,0.0,0.0,0.0,0.0,0.0,0.0,0.0,0.0,0.0,0.0,0.0,0.0,0.0,0.0,0.0,0.0,0.0,0.0,0.0,0.0,0.0,0.0,0.0,0.0,0.0,0.0,0.0,0.0,0.0,0.0,0.0,0.0,0.0,0.0,0.0,0.0,0.0,0.0,0.0,0.0,0.0,0.0,0.0,0.0,0.0,0.0,0.0,0.0,0.0,0.0,0.0,0.0,0.0,0.0,0.0,0.0,0.0,0.0,0.0,0.0,0.0,0.0,0.0,0.0,0.0,0.0,0.0,0.0,0.0,0.0,0.0,0.0,0.0,0.0,0.0,0.0,0.0,0.0,0.0,0.0,0.0,0.0,0.0,0.0,0.0,0.0,0.0,0.0,0.0,0.0,0.0,0.0,0.0,0.0,0.0,0.0,0.0,0.0,0.0,0.0,0.0,0.0,0.0,0.0,0.0,0.0,0.0,0.0,0.0,0.0,0.0,0.0,0.0,0.0,0.0,0.0,0.0,0.0,0.0,0.0,0.0,0.0,0.0,0.0,0.0,0.0,0.0,0.0,0.0,0.0,0.0,0.0,0.0,0.0,0.0,0.0,0.0,0.0,0.0,0.0,0.0,0.0,0.0,0.0,0.0,0.0,0.0,0.0,0.0,0.0,0.0,0.0,0.0,0.0,0.0,0.0,0.0,0.0,0.0,0.0,0.0,0.0,0.0,0.0,0.0,0.0,0.0,0.0,0.0,0.0,0.0,0.0,0.0,0.0,0.0,0.0,0.0,0.0,0.0,0.0,0.0,0.0,0.0,0.0,0.0,0.0,0.0,0.0,0.0,0.0,0.0,0.0,0.0,0.0,0.0,0.0,0.0,0.0,0.0,0.0,0.0,0.0,0.0,0.0,0.0,0.0,0.0,0.0,0.0,0.0,0.0,0.0,0.0,0.0,0.0,0.0,0.0,0.0,0.0,0.0,0.0,0.0,0.0,0.0,0.0,0.0,0.0,0.0,0.0,0.0,0.0,0.0,0.0,0.0,0.0,0.0,0.0,0.0,0.0,0.0,0.0,0.0,0.0,0.0,0.0,0.0,0.0,0.0,0.0,0.0,0.0,0.0,0.0,0.0,0.0,0.0,0.0,0.0,0.0,0.0,0.0,0.0,0.0,0.0,0.0,0.0,0.0,0.0,0.0,0.0,0.0,0.0,0.0,0.0,0.0,0.0,0.0,0.0,0.0,0.0,0.0,0.0,0.0,0.0,0.0,0.0,0.0,0.0,0.0,0.0,0.0,0.0,0.0,0.0,0.0,0.0,0.0,0.0,0.0,0.0,0.0,0.0,0.0,0.0,0.0,0.0,0.0,0.0,0.0,0.0,0.0,0.0,0.0,0.0,0.0,0.0,0.0,0.0,0.0,0.0,0.0,0.0,0.0,0.0,0.0,0.0,0.0,0.0,0.0,0.0,0.0,0.0,0.0,0.0,0.0,0.0,0.0,0.0,0.0,0.0,0.0,0.0,0.0,0.0,0.0,0.0,0.0,0.0,0.0,0.0,0.0,0.0,0.0,0.0,0.0,0.0,0.0,0.0,0.0,0.0,0.0,0.0,0.0,0.0,0.0,0.0,0.0,0.0,0.0,0.0,0.0,0.0,0.0,0.0,0.0,0.0,0.0,0.0,0.0,0.0,0.0,0.0,0.0,0.0,0.0,0.0,0.0,0.0,0.0,0.0,0.0,0.0,0.0,0.0,0.0,0.0,0.0,0.0,0.0,0.0,0.0,0.0,0.0,0.0,0.0,0.0,0.0,0.0,0.0,0.0,0.0,0.0,0.0,0.0,0.0,0.0,0.0,0.0,0.0,0.0,0.0,0.0,0.0,0.0,0.0,0.0,0.0,0.0,0.0,0.0,0.0,0.0,0.0,0.0,0.0,0.0,0.0,0.0,0.0,0.0,0.0,0.0,0.0,0.0,0.0,0.0,0.0,0.0,0.0,0.0,0.0,0.0,0.0,0.0,0.0,0.0,0.0,0.0,0.0,0.0,0.0,0.0,0.0,0.0,0.0,0.0,0.0,0.0,0.0,0.0,0.0,0.0,0.0,0.0,0.0,0.0,0.0,0.0,0.0,0.0,0.0,0.0,0.0,0.0,0.0,0.0,0.0,0.0,0.0,0.0,0.0,0.0,0.0,0.0,0.0,0.0,0.0,0.0,0.0,0.0,0.0,0.0,0.0,0.0,0.0,0.0,0.0,0.0,0.0,0.0,0.0,0.0,0.0,0.0,0.0,0.0,0.0,0.0,0.0,0.0,0.0,0.0,0.0,0.0,0.0,0.0,0.0,0.0,0.0,0.0,0.0,0.0,0.0,0.0,0.0,0.0,0.0,0.0,0.0,0.0,0.0,0.0,0.0,0.0,0.0,0.0,0.0,0.0,0.0,0.0,0.0,0.0,0.0,0.0,0.0,0.0,0.0,0.0,0.0,0.0,0.0,0.0,0.0,0.0,0.0,0.0,0.0,0.0,0.0,0.0,0.0,0.0,0.0,0.0,0.0,0.0,0.0,0.0,0.0,0.0,0.0,0.0,0.0,0.0,0.0,0.0,0.0,0.0,0.0,0.0,0.0,0.0,0.0,0.0,0.0,0.0,0.0,0.0,0.0,0.0,0.0,0.0,0.0,0.0,0.0,0.0,0.0,0.0,0.0,0.0,0.0,0.0,0.0,0.0,0.0,0.0,0.0,0.0,0.0,0.0,0.0,0.0,0.0,0.0,0.0,0.0,0.0,0.0,0.0,0.0,0.0,0.0,0.0,0.0,0.0,0.0,0.0,0.0,0.0,0.0,0.0,0.0,0.0,0.0,0.0,0.0,0.0,0.0,0.0,0.0,0.0,0.0,0.0,0.0,0.0,0.0,0.0,0.0,0.0,0.0,0.0,0.0,0.0,0.0,0.0,0.0,0.0,0.0,0.0,0.0,0.0,0.0,0.0,0.0,0.0,0.0,0.0,0.0,0.0,0.0,0.0,0.0,0.0,0.0,0.0,0.0,0.0,0.0,0.0,0.0,0.0,0.0,0.0,0.0,0.0,0.0,0.0,0.0,0.0,0.0,0.0,0.0,0.0,0.0,0.0,0.0,0.0,0.0,0.0,0.0,0.0,0.0,0.0,0.0,0.0,0.0,0.0,0.0,0.0,0.0,0.0,0.0,0.0,0.0,0.0,0.0,0.0,0.0,0.0,0.0,0.0,0.0,0.0,0.0,0.0,0.0,0.0,0.0,0.0,0.0,0.0,0.0,0.0,0.0,0.0,0.0,0.0,0.0,0.0,0.0,0.0,0.0,0.0,0.0,0.0,0.0,0.0,0.0,0.0,0.0,0.0,0.0,0.0,0.0,0.0,0.0,0.0,0.0,0.0,0.0,0.0,0.0,0.0,0.0,0.0,0.0,0.0,0.0,0.0,0.0,0.0,0.0,0.0,0.0,0.0,0.0,0.0,0.0,0.0,0.0,0.0,0.0,0.0,0.0,0.0,0.0,0.0,0.0,0.0,0.0,0.0,0.0,0.0,0.0,0.0,0.0,0.0,0.0,0.0,0.0,0.0,0.0,0.0,0.0,0.0,0.0,0.0,0.0,0.0,0.0,0.0,0.0,0.0,0.0,0.0,0.0,0.0,0.0,0.0,0.0,0.0,0.0,0.0,0.0,0.0,0.0,0.0,0.0,0.0,0.0,0.0,0.0,0.0,0.0,0.0,0.0,0.0,0.0,0.0,0.0,0.0,0.0,0.0,0.0,0.0,0.0,0.0,0.0,0.0,0.0,0.0,0.0,0.0,0.0,0.0,0.0,0.0,0.0,0.0,0.0,0.0,0.0,0.0,0.0]}]]]